[[{"header":{"parameterUnit":"m.s-1","parameterCategory":1,"la1":31.0,"la2":29.5877,"lo1":-88.7671,"lo2":-86.6584,"dy":0.0162,"dx":0.0185,"nx":115,"ny":88,"refTime":"2024-09-10T12:00:00:Z","depth":0,"parameterNumber":2,"parameterNumberName":"U-component_of_WINDS"},"data":[0.0,0.0,0.0,0.0,0.0,0.0,0.0,0.0,0.0,0.0,0.0,0.0,0.0,0.0,0.0,0.0,0.0,0.0,0.0,0.0,0.0,0.0,0.0,0.0,0.0,0.0,0.0,0.0,0.0,0.0,0.0,0.0,0.0,0.0,0.0,0.0,0.0,0.0,0.0,0.0,0.0,0.0,0.0,0.0,0.0,0.0,0.0,0.0,0.0,0.0,0.0,0.0,0.0,0.0,0.0,0.0,0.0,0.0,0.0,0.0,0.0,0.0,0.0,0.0,0.0,0.0,0.0,0.0,0.0,0.0,0.0,0.0,0.0,0.0,0.0,0.0,0.0,0.0,0.0,0.0,0.0,0.0,0.0,0.0,0.0,0.0,0.0,0.0,0.0,0.0,0.0,0.0,0.0,0.0,0.0,0.0,0.0,0.0,0.0,0.0,0.0,0.0,0.0,0.0,0.0,0.0,0.0,0.0,0.0,0.0,0.0,0.0,0.0,0.0,0.0,0.0,0.0,0.0,0.0,0.0,0.0,0.0,0.0,0.0,0.0,0.0,0.0,0.0,0.0,0.0,0.0,0.0,0.0,0.0,0.0,0.0,0.0,0.0,0.0,0.0,0.0,0.0,0.0,0.0,0.0,0.0,0.0,0.0,0.0,0.0,0.0,0.0,0.0,0.0,0.0,0.0,0.0,0.0,0.0,0.0,0.0,0.0,0.0,0.0,0.0,0.0,0.0,0.0,0.0,0.0,0.0,0.0,0.0,0.0,0.0,0.0,0.0,0.0,0.0,0.0,0.0,0.0,0.0,0.0,0.0,0.0,0.0,0.0,0.0,0.0,0.0,0.0,0.0,0.0,0.0,0.0,0.0,0.0,0.0,0.0,0.0,0.0,0.0,0.0,0.0,0.0,0.0,0.0,0.0,0.0,0.0,0.0,0.0,0.0,0.0,0.0,0.0,0.0,0.0,0.0,0.0,0.0,0.0,0.0,0.0,0.0,0.0,0.0,0.0,0.0,0.0,0.0,0.0,0.0,0.0,0.0,0.0,0.0,0.0,0.0,0.0,0.0,0.0,0.0,0.0,0.0,0.0,0.0,0.0,0.0,0.0,0.0,0.0,0.0,0.0,0.0,0.0,0.0,0.0,0.0,0.0,0.0,0.0,0.0,0.0,0.0,0.0,0.0,0.0,0.0,0.0,0.0,0.0,0.0,0.0,0.0,0.0,0.0,0.0,0.0,0.0,0.0,0.0,0.0,0.0,0.0,0.0,0.0,0.0,0.0,0.0,0.0,0.0,0.0,0.0,0.0,0.0,0.0,0.0,0.0,0.0,0.0,0.0,0.0,0.0,0.0,0.0,0.0,0.0,0.0,0.0,0.0,0.0,0.0,0.0,0.0,0.0,0.0,0.0,0.0,0.0,0.0,0.0,0.0,0.0,0.0,0.0,0.0,0.0,0.0,0.0,0.0,0.0,0.0,0.0,0.0,0.0,0.0,0.0,0.0,0.0,0.0,0.0,0.0,0.0,0.0,0.0,0.0,0.0,0.0,0.0,0.0,0.0,0.0,0.0,0.0,0.0,0.0,0.0,0.0,0.0,0.0,0.0,0.0,0.0,0.0,0.0,0.0,0.0,0.0,0.0,0.0,0.0,0.0,0.0,0.0,0.0,0.0,0.0,0.0,0.0,0.0,0.0,0.0,0.0,0.0,0.0,0.0,0.0,0.0,0.0,0.0,0.0,0.0,0.0,0.0,0.0,0.0,0.0,0.0,0.0,0.0,0.0,0.0,0.0,0.0,0.0,0.0,0.0,0.0,0.0,0.0,0.0,0.0,0.0,0.0,0.0,0.0,0.0,0.0,0.0,0.0,0.0,0.0,0.0,0.0,0.0,0.0,0.0,0.0,0.0,0.0,0.0,0.0,0.0,0.0,0.0,0.0,0.0,0.0,0.0,0.0,0.0,0.0,0.0,0.0,0.0,0.0,0.0,0.0,0.0,0.0,0.0,0.0,0.0,0.0,0.0,0.0,0.0,0.0,0.0,0.0,0.0,0.0,0.0,0.0,0.0,0.0,0.0,0.0,0.0,0.0,0.0,0.0,0.0,0.0,0.0,0.0,0.0,0.0,0.0,0.0,0.0,0.0,0.0,0.0,0.0,0.0,0.0,0.0,0.0,0.0,0.0,0.0,0.0,0.0,0.0,0.0,0.0,0.0,0.0,0.0,0.0,0.0,0.0,0.0,0.0,0.0,0.0,0.0,0.0,0.0,0.0,0.0,0.0,0.0,0.0,0.0,0.0,0.0,0.0,0.0,0.0,0.0,0.0,0.0,0.0,0.0,0.0,0.0,0.0,0.0,0.0,0.0,0.0,0.0,0.0,0.0,0.0,0.0,0.0,0.0,0.0,0.0,0.0,0.0,0.0,0.0,0.0,0.0,0.0,0.0,0.0,0.0,0.0,0.0,0.0,0.0,0.0,0.0,0.0,0.0,0.0,0.0,0.0,0.0,0.0,0.0,0.0,0.0,0.0,0.0,0.0,0.0,0.0,0.0,0.0,0.0,0.0,0.0,0.0,0.0,0.0,0.0,0.0,0.0,0.0,0.0,0.0,0.0,0.0,0.0,0.0,0.0,0.0,0.0,0.0,0.0,0.0,0.0,0.0,0.0,0.0,0.0,0.0,0.0,0.0,0.0,0.0,0.0,0.0,0.0,0.0,0.0,0.0,0.0,0.0,0.0,0.0,0.0,0.0,0.0,0.0,0.0,0.0,0.0,0.0,0.0,0.0,0.0,0.0,0.0,0.0,0.0,0.0,0.0,0.0,0.0,0.0,0.0,0.0,0.0,0.0,0.0,0.0,0.0,0.0,0.0,0.0,0.0,0.0,0.0,0.0,0.0,0.0,0.0,0.0,0.0,0.0,0.0,0.0,0.0,0.0,0.0,0.0,0.0,0.0,0.0,0.0,0.0,0.0,0.0,0.0,0.0,0.0,0.0,0.0,0.0,0.0,0.0,0.0,0.0,0.0,0.0,0.0,0.0,0.0,0.0,0.0,0.0,0.0,0.0,0.0,0.0,0.0,0.0,0.0,0.0,0.0,0.0,0.0,0.0,0.0,0.0,0.0,0.0,0.0,0.0,0.0,0.0,0.0,0.0,0.0,0.0,0.0,0.0,0.0,0.0,0.0,0.0,0.0,0.0,0.0,0.0,0.0,0.0,0.0,0.0,0.0,0.0,0.0,0.0,0.0,0.0,0.0,0.0,0.0,0.0,0.0,0.0,0.0,0.0,0.0,0.0,0.0,0.0,0.0,0.0,0.0,0.0,0.0,0.0,0.0,0.0,0.0,0.0,0.0,0.0,0.0,0.0,0.0,0.0,0.0,0.0,0.0,0.0,0.0,0.0,0.0,0.0,0.0,0.0,0.0,0.0,0.0,0.0,0.0,0.0,0.0,0.0,0.0,0.0,0.0,0.0,0.0,0.0,0.0,0.0,0.0,0.0,0.0,0.0,0.0,0.0,0.0,0.0,0.0,0.0,0.0,0.0,0.0,0.0,0.0,0.0,0.0,0.0,0.0,0.0,0.0,0.0,0.0,0.0,0.0,0.0,0.0,0.0,0.0,0.0,0.0,0.0,0.0,0.0,0.0,0.0,0.0,0.0,0.0,0.0,0.0,0.0,0.0,0.0,0.0,0.0,0.0,0.0,0.0,0.0,0.0,0.0,0.0,0.0,0.0,0.0,0.0,0.0,0.0,0.0,0.0,0.0,0.0,0.0,0.0,0.0,0.0,0.0,0.0,0.0,0.0,0.0,0.0,0.0,0.0,0.0,0.0,0.0,0.0,0.0,0.0,0.0,0.0,0.0,0.0,0.0,0.0,0.0,0.0,0.0,0.0,0.0,0.0,0.0,0.0,0.0,0.0,0.0,0.0,0.0,0.0,0.0,0.0,0.0,0.0,0.0,0.0,0.0,0.0,0.0,0.0,0.0,0.0,0.0,0.0,0.0,0.0,0.0,0.0,0.0,0.0,0.0,0.0,0.0,0.0,0.0,0.0,0.0,0.0,0.0,0.0,0.0,0.0,0.0,0.0,0.0,0.0,0.0,0.0,0.0,0.0,0.0,0.0,0.0,0.0,0.0,0.0,0.0,0.0,0.0,0.0,0.0,0.0,0.0,0.0,0.0,0.0,0.0,0.0,0.0,0.0,0.0,0.0,0.0,0.0,0.0,0.0,0.0,0.0,0.0,0.0,0.0,0.0,0.0,0.0,0.0,0.0,0.0,0.2355,0.0,0.0,0.0,0.0,0.0,0.0,0.0,0.0,0.0,0.0,0.0,0.0,0.0,0.0,0.0,0.0,0.0,0.0,0.0,0.0,0.0,0.0,0.0,0.0,0.0,0.0,0.0,0.0,0.0,0.0,0.0,0.0,0.0,0.0,0.0,0.0,0.0,0.0,0.0,0.0,0.0,0.0,0.0,0.0,0.0,0.0,0.0,0.0,0.0,0.0,0.0,0.0,0.0,0.0,0.0,0.0,0.0,0.0,0.0,0.0,0.0,0.0,0.0,0.0,0.0,0.0,0.0,0.0,0.0,0.0,0.0,0.0,0.0,0.0,0.0,0.0,0.0,0.0,0.0,0.0,0.0,0.0,0.0,0.0,0.0,0.0,0.0,0.0,0.0,0.0,0.0,0.0,0.0,0.0,0.0,0.0,0.0,0.0,0.0,0.0,0.0,0.0,0.0,0.0,0.0,0.0,0.0,0.0,0.0,0.0,0.669,0.7175,0.5386,0.309,0.0326,0.0,0.0,0.0,0.0,0.0,0.0,0.0,0.0,0.0,0.0,0.0,0.0,0.0,0.0,0.0,0.0,0.0,0.0,0.0,0.0,0.0,0.0,0.0,0.0,0.0,0.0,0.0,0.0,0.0,0.0,0.0,0.0,0.0,0.0,0.0,0.0,0.0,0.0,0.0,0.0,0.0,0.0,0.0,0.0,0.0,0.0,0.0,0.0,0.0,0.0,0.0,0.0,0.0,0.0,0.0,0.0,0.0,0.0,0.0,0.0,0.0,0.0,0.0,0.0,0.0,0.0,0.0,0.0,0.0,0.0,0.0,0.0,0.0,0.0,0.0,0.0,0.0,0.0,0.0,0.0,0.0,0.0,0.0,0.0,0.0,0.0,0.0,0.0,0.0,0.0,0.0,0.0,0.0,0.0,0.0,0.0,0.0,0.0,0.0,0.0,0.0,0.0,0.0,0.0,0.0,0.0,0.0,0.0,0.0,0.0,0.0,0.0,0.4035,0.1407,-0.2182,0.0,0.0,0.0,0.0,0.0,0.0,0.0,0.0,0.0,0.0,0.0,0.0,0.0,0.0,0.0,0.0,0.0,0.0,0.0,0.0,0.0,0.0,0.0,0.0,0.0,0.0,0.0,0.0,0.0,0.0,0.0,0.0,0.0,0.0,0.0,0.0,0.0,0.0,0.0,0.0,0.0,0.0,0.0,0.0,0.0,0.0,0.0,0.0,0.0,0.0,0.0,0.0,0.0,0.0,0.0,0.0,0.0,0.0,0.0,0.0,0.0,0.0,0.0,0.0,0.0,0.0,0.0,0.0,0.0,0.0,0.0,0.0,0.0,0.0,0.0,0.0,0.0,0.0,0.0,0.0,0.0,0.0,0.0,0.0,0.0,0.0,0.0,0.0,0.0,0.0,0.0,0.0,0.0,0.0,0.0,0.0,0.0,0.0,0.0,0.0,0.0,0.0,0.0,0.0,0.0,0.0,0.0,0.0,0.0,0.0,0.39,0.5341,0.1417,0.0,-0.4657,0.0,0.0,0.0,0.0,0.0,0.0,0.0,0.0,0.0,0.0,0.0,0.0,0.0,0.0,0.0,0.0,0.0,0.0,0.0,0.0,0.0,0.0,0.0,0.0,0.0,0.0,0.0,0.0,0.0,0.0,0.0,0.0,0.0,0.0,0.0,0.0,0.0,0.0,0.0,0.0,0.0,0.0,0.0,0.0,0.0,0.0,0.0,0.0,0.0,0.0,0.0,0.0,0.0,0.0,0.0,0.0,0.0,0.0,0.0,0.0,0.0,0.0,0.0,0.0,0.0,0.0,0.0,0.0,0.0,0.0,0.0,0.0,0.0,0.0,0.0,0.0,0.0,0.0,0.0,0.0,0.0,0.0,0.0,0.0,0.0,0.0,0.0,0.0,0.0,0.0,0.0,0.0,0.0,0.0,0.0,0.0,0.0,0.0,0.0,0.0,0.0,0.0,0.0,0.0,0.0,0.0,0.0,0.0,0.0,0.0,0.4269,0.4567,0.0529,-0.3704,0.0,0.0,0.0,0.0,0.0,0.0,0.0,0.0,0.0,0.0,0.0,0.0,0.0,0.0,0.0,0.0,0.0,0.0,0.0,0.0,0.0,0.0,0.0,0.0,0.0,0.0,0.0,0.0,0.0,0.0,0.0,0.0,0.0,0.0,0.0,0.0,0.0,0.0,0.0,0.0,0.0,0.0,0.0,0.0,0.0,0.0,0.0,0.0,0.0,0.0,0.0,0.0,0.0,0.0,0.0,0.0,0.0,0.0,0.0,0.0,0.0,0.0,0.0,0.0,0.0,0.0,0.0,0.0,0.0,0.0,0.0,0.0,0.0,0.0,0.0,0.0,0.0,0.0,0.0,0.0,0.0,0.0,0.0,0.0,0.0,0.0,0.0,0.0,0.0,0.0,0.0,0.0,0.0,0.0,0.0,0.0,0.0,0.0,0.0,0.0,0.0,0.0,0.0,0.0,0.0,0.0,0.0,0.0,0.0,0.0,0.456,0.4243,0.3282,-0.1161,-0.5333,-0.8914,0.0,0.0,0.0,0.0,0.0,0.0,0.0,0.0,0.0,0.0,0.0,0.0,0.0,0.0,0.0,0.0,0.0,0.0,0.0,0.0,0.0,0.0,0.0,0.0,0.0,0.0,0.0,0.0,0.0,0.0,0.0,0.0,0.0,0.0,0.0,0.0,0.0,0.0,0.0,0.0,0.0,0.0,0.0,0.0,0.0,0.0,0.0,0.0,0.0,0.0,0.0,0.0,0.0,0.0,0.0,0.0,0.0,0.0,0.0,0.0,0.0,0.0,0.0,0.0,0.0,0.0,0.0,0.0,0.0,0.0,0.0,0.0,0.0,0.0,0.0,0.0,0.0,0.0,0.0,0.0,0.0,0.0,0.0,0.0,0.0,0.0,0.0,0.0,0.0,0.0,0.0,0.0,0.0,0.0,0.0,0.0,0.0,0.0,0.0,0.0,0.0,0.0,0.0,0.0,0.0,0.0,0.0,0.0,0.0,0.445,0.3204,0.202,-0.4397,-0.7274,0.0,0.0,0.0,0.0,0.0,0.0,0.0,0.0,0.0,0.0,0.0,0.0,0.0,0.0,0.0,0.0,0.0,0.0,0.0,0.0,0.0,0.0,0.0,0.0,0.0,0.0,0.0,0.0,0.0,0.0,0.0,0.0,0.0,0.0,0.0,0.0,0.0,0.0,0.0,0.0,0.0,0.0,0.0,0.0,0.0,0.0,0.0,0.0,0.0,0.0,0.0,0.0,0.0,0.0,0.0,0.0,0.0,0.0,0.0,0.0,0.0,0.0,0.0,0.0,0.0,0.0,0.0,0.0,0.0,0.0,0.0,0.0,0.0,0.0,0.0,0.0,0.0,0.0,0.0,0.0,0.0,0.0,0.0,0.0,0.0,0.0,0.0,0.0,0.0,0.0,0.0,0.0,0.0,0.0,0.0,0.0,0.0,0.0,0.0,0.0,0.0,0.0,0.0,0.0,0.0,0.0,0.0,0.0,0.0,0.4512,0.4781,0.4558,0.3669,-0.053,-0.3107,0.0,0.0,0.0,0.0,0.0,0.0,0.0,0.0,0.0,0.0,0.0,0.0,0.0,0.0,0.0,0.0,0.0,0.0,0.0,0.0,0.0,0.0,0.0,0.0,0.0,0.0,0.0,0.0,0.0,0.0,0.0,0.0,0.0,0.0,0.0,0.0,0.0,0.0,0.0,0.0,0.0,0.0,0.0,0.0,0.0,0.0,0.0,0.0,0.0,0.0,0.0,0.0,0.0,0.0,0.0,0.0,0.0,0.0,0.0,0.0,0.0,0.0,0.0,0.0,0.0,0.0,0.0,0.0,0.0,0.0,0.0,0.0,0.0,0.0,0.0,0.0,0.0,0.0,0.0,0.0,0.0,0.0,0.0,0.0,0.0,0.0,0.0,0.0,0.0,0.0,0.0,0.0,0.0,0.0,0.0,0.0,0.0,0.0,0.0,0.0,0.0,0.0,0.0,0.0,0.0,0.0,0.0,0.0,0.0,0.4364,0.0,0.4992,0.0,0.1226,-0.1336,0.0,0.0,0.0,0.0,0.0,0.0,0.0,0.0,0.0,0.0,0.0,0.0,0.0,0.0,0.0,0.0,0.0,0.0,0.0,0.0,0.0,0.0,0.0,0.0,0.0,0.0,0.0,0.0,0.0,0.0,0.0,0.0,0.0,0.0,0.0,0.0,0.0,0.0,0.0,0.0,0.0,0.0,0.0,0.0,0.0,0.0,0.0,0.0,0.0,0.0,0.0,0.0,0.0,0.0,0.0,0.0,0.0,0.0,0.0,0.0,0.0,0.0,0.0,0.0,0.0,0.0,0.0,0.0,0.0,0.0,0.0,0.0,0.0,0.0,0.0,0.0,0.0,0.0,0.0,0.0,0.0,0.0,0.0,0.0,0.0,0.0,0.0,0.0,0.0,0.0,0.0,0.0,0.0,0.0,0.0,0.0,0.0,0.0,0.0,0.0,0.0,0.0,0.0,0.0,0.0,0.0,0.0,0.0,0.4242,0.5377,0.538,0.4417,0.2229,0.0142,-0.2445,0.0,0.0,0.0,0.0,0.0,0.0,0.0,0.0,0.0,0.0,0.0,0.0,0.0,0.0,0.0,0.0,0.0,0.0,0.0,0.0,0.0,0.0,0.0,0.0,0.0,0.0,0.0,0.0,0.0,0.0,0.0,0.0,0.0,0.0,0.0,0.0,0.0,0.0,0.0,0.0,0.0,0.0,0.0,0.0,0.0,0.0,0.0,0.0,0.0,0.0,0.0,0.0,0.0,0.0,0.0,0.0,0.0,0.0,0.0,0.0,0.0,0.0,0.0,0.0,0.0,0.0,0.0,0.0,0.0,0.0,0.0,0.0,0.0,0.0,0.0,0.0,0.0,0.0,0.0,0.0,0.0,0.0,0.0,0.0,0.0,0.0,0.0,0.0,0.0,0.0,0.0,0.0,0.0,0.0,0.0,0.0,0.0,0.0,0.0,0.0,0.0,0.0,0.0,0.0,0.0,0.0,0.0,0.0,0.0,0.49,0.5543,0.5813,0.5468,0.2384,0.0959,0.0,0.0,0.0,0.0,0.0,0.0,0.0,0.0,0.0,0.0,0.0,0.0,0.0,0.0,0.0,0.0,0.0,0.0,0.0,0.0,0.0,0.0,0.0,0.0,0.0,0.0,0.0,0.0,0.0,0.0,0.0,0.0,0.0,0.0,0.0,0.0,0.0,0.0,0.0,0.0,0.0,0.0,0.0,0.0,0.0,0.0,0.0,0.0,0.0,0.0,0.0,0.0,0.0,0.0,0.0,0.0,0.0,0.0,0.0,0.0,0.0,0.0,0.0,0.0,0.0,0.0,0.0,0.0,0.0,0.0,0.0,0.0,0.0,0.0,0.0,0.0,0.0,0.0,0.0,0.0,0.0,0.0,0.0,0.0,0.0,0.0,0.0,0.0,0.0,0.0,0.0,0.0,0.0,0.0,0.0,0.0,0.0,0.0,0.0,0.0,0.0,0.0,0.0,0.0,0.0,0.0,0.0,0.0,0.0,0.5508,0.6414,0.6821,0.6686,0.4753,0.3748,0.3832,0.0,0.0,0.0,0.0,0.0,0.0,0.0,0.0,0.0,0.0,0.0,0.0,0.0,0.0,0.0,0.0,0.0,0.0,0.0,0.0,0.0,0.0,0.0,0.0,0.0,0.0,0.0,0.0,0.0,0.0,0.0,0.0,0.0,0.0,0.0,0.0,0.0,0.0,0.0,0.0,0.0,0.0,0.0,0.0,0.0,0.0,0.0,0.0,0.0,0.0,0.0,0.0,0.0,0.0,0.0,0.0,0.0,0.0,0.0,0.0,0.0,0.0,0.0,0.0,0.0,0.0,0.0,0.0,0.0,0.0,0.0,0.0,0.0,0.0,0.0,0.0,0.0,0.0,0.0,0.0,0.0,0.0,0.0,0.0,0.0,0.0,0.0,0.0,0.0,0.0,0.0,0.0,0.0,0.0,0.0,0.0,0.0,0.0,0.0,0.0,0.0,0.0,0.0,0.0,0.0,0.0,0.0,0.0,0.6973,0.79,0.7729,0.6298,0.6935,0.5899,0.0,0.0,0.0,0.0,0.0,0.0,0.0,0.0,0.0,0.0,0.0,0.0,0.0,0.0,0.0,0.0,0.0,0.0,0.0,0.0,0.0,0.0,0.0,0.0,0.0,0.0,0.0,0.0,0.0,0.0,0.0,0.0,0.0,0.0,0.0,0.0,0.0,0.0,0.0,0.0,0.0,0.0,0.0,0.0,0.0,0.0,0.0,0.0,0.0,0.0,0.0,0.0,0.0,0.0,0.0,0.0,0.0,0.0,0.0,0.0,0.0,0.0,0.0,0.0,0.0,0.0,0.0,0.0,0.0,0.0,0.0,0.0,0.0,0.0,0.0,0.0,0.0,0.0,0.0,0.0,0.0,0.0,0.0,0.0,0.0,0.0,0.0,0.0,0.0,0.0,0.0,0.0,0.0,0.0,0.0,0.0,0.0,0.0,0.0,0.0,0.0,0.0,0.0,0.0,0.0,0.0,0.0,0.0,0.0,0.7928,1.0457,1.0731,0.8617,0.7781,0.762,0.0,0.0,0.0,0.0,0.0,0.0,0.0,0.0,0.0,0.0,0.0,0.0,0.0,0.0,0.0,0.0,0.0,0.0,0.0,0.0,0.0,0.0,0.0,0.0,0.0,0.0,0.0,0.0,0.0,0.0,0.0,0.0,0.0,0.0,0.0,0.0,0.0,0.0,0.0,0.0,0.0,0.0,0.0,0.0,0.0,0.0,0.0,0.0,0.0,0.0,0.0,0.0,0.0,0.0,0.0,0.0,0.0,0.0,0.0,0.0,0.0,0.0,0.0,0.0,0.0,0.0,0.0,0.0,0.0,0.0,0.0,0.0,0.0,0.0,0.0,0.0,0.0,0.0,0.0,0.0,0.0,0.0,0.0,0.0,0.0,0.0,0.0,0.0,0.0,0.0,0.0,0.0,0.0,0.0,0.0,0.0,0.0,0.0,0.0,0.0,0.0,0.0,0.0,0.0,0.0,0.0,0.0,0.0,0.8357,0.9568,1.2159,1.3169,1.2431,1.1517,1.0651,0.0,0.0,0.0,0.0,0.0,0.0,0.0,0.0,0.0,0.0,0.0,0.0,0.0,0.0,0.0,0.0,0.0,0.0,0.0,0.0,0.0,0.0,0.0,0.0,0.0,0.0,0.0,0.0,0.0,0.0,0.0,0.0,0.0,0.0,0.0,0.0,0.0,0.0,0.0,0.0,0.0,0.0,0.0,0.0,0.0,0.0,0.0,0.0,0.0,0.0,0.0,0.0,0.0,0.0,0.0,0.0,0.0,0.0,0.0,0.0,0.0,0.0,0.0,0.0,0.0,0.0,0.0,0.0,0.0,0.0,0.0,0.0,0.0,0.0,0.0,0.0,0.0,0.0,0.0,0.0,0.0,0.0,0.0,0.0,0.0,0.0,0.0,0.0,0.0,0.0,0.0,0.0,0.0,0.0,0.0,0.0,0.0,0.0,0.0,0.0,0.0,0.0,0.0,0.0,0.0,0.0,0.0,0.0,0.981,1.1472,1.3442,1.5131,1.6547,1.6169,1.415,0.0,0.0,0.0,0.0,0.0,0.0,0.0,0.0,0.0,0.0,0.0,0.0,0.0,0.0,0.0,0.0,0.0,0.0,0.0,0.0,0.0,0.0,0.0,0.0,0.0,0.0,0.0,0.0,0.0,0.0,0.0,0.0,0.0,0.0,0.0,0.0,0.0,0.0,0.0,0.0,0.0,0.0,0.0,0.0,0.0,0.0,0.0,0.0,0.0,0.0,0.0,0.0,0.0,0.0,0.0,0.0,0.0,0.0,0.0,0.0,0.0,0.0,0.0,0.0,0.0,0.0,0.0,0.0,0.0,0.0,0.0,0.0,0.0,0.0,0.0,0.0,0.0,0.0,0.0,0.0,0.0,0.0,0.0,0.0,0.0,0.0,0.0,0.0,0.0,0.0,0.0,0.0,0.0,0.0,0.0,0.0,0.0,0.0,0.0,0.0,0.0,0.0,0.0,0.0,0.0,0.0,0.0,0.0,0.9399,1.1297,1.4898,1.6732,1.6735,1.6181,1.5289,0.0,0.0,0.0,0.0,0.0,0.0,0.0,0.0,0.0,0.0,0.0,0.0,0.0,0.0,0.0,0.0,0.0,0.0,0.0,0.0,0.0,0.0,0.0,0.0,0.0,0.0,0.0,0.0,0.0,0.0,0.0,0.0,0.0,0.0,0.0,0.0,0.0,0.0,0.0,0.0,0.0,0.0,0.0,0.0,0.0,0.0,0.0,0.0,0.5326,0.0,0.0,0.0,0.0,0.0,0.0,0.0,0.0,0.0,0.0,0.0,0.0,0.0,0.0,0.0,0.0,0.0,0.0,0.0,0.0,0.0,0.0,0.0,0.0,0.0,0.0,0.0,0.0,0.0,0.0,0.0,0.0,0.0,0.0,0.0,0.0,0.0,0.0,0.0,0.0,0.0,0.0,0.0,0.0,0.0,0.0,0.0,0.0,0.0,0.0,0.0,0.0,0.0,0.0,0.0,0.0,0.0,0.0,0.0,0.9936,1.2567,1.5752,1.7985,1.9199,1.9633,1.8587,0.0,0.0,0.0,0.0,0.0,0.0,0.0,0.0,0.0,0.0,0.0,0.0,0.0,0.0,0.0,0.0,0.0,0.0,0.0,0.0,0.0,0.0,0.0,0.0,0.0,0.0,0.0,0.0,0.0,0.0,0.0,0.0,0.0,0.0,0.0,0.0,0.0,0.0,0.0,0.0,0.0,0.0,0.0,0.0,0.0,0.0,0.0,0.0,0.0,0.0,0.0,0.0,0.0,0.0,0.0,0.0,0.0,0.0,0.0,0.0,0.0,0.0,0.0,0.0,0.0,0.0,0.0,0.0,0.0,0.0,0.0,0.0,0.0,0.0,0.0,0.0,0.0,0.0,0.0,0.0,0.0,0.0,0.0,0.0,0.0,0.0,0.0,0.0,0.0,0.0,0.0,0.0,0.0,0.0,0.0,0.0,0.0,0.0,0.0,0.0,0.0,0.0,0.0,0.0,0.0,0.0,0.0,0.833,1.0616,1.4061,1.6328,1.8919,2.1942,2.343,2.2293,1.8324,0.0,0.0,0.0,0.0,0.0,0.0,0.0,0.0,0.0,0.0,0.0,0.0,0.0,0.0,0.0,0.0,0.0,0.0,0.0,0.0,0.0,0.0,0.0,0.0,0.0,0.0,0.0,0.0,0.0,0.0,0.0,0.0,0.0,0.0,0.0,0.0,0.0,0.0,0.8485,0.9881,0.0,0.0,0.0,0.0,0.0,0.0,0.0,0.0,0.6391,0.0,0.0,0.0,0.0,0.0,0.0,0.0,0.0,0.0,0.0,0.0,0.0,0.0,0.0,0.0,0.0,0.0,0.0,0.0,0.0,0.0,0.0,0.0,0.0,0.0,0.0,0.0,0.0,0.0,0.0,0.0,0.0,0.0,0.0,0.0,0.0,0.0,0.0,0.0,0.0,0.0,0.0,0.0,0.0,0.0,0.0,0.0,0.0,0.0,0.0,0.0,0.0,0.0,0.0,0.0,0.0,0.7811,0.8557,1.0521,1.3786,1.6628,1.9253,2.1631,2.3204,2.3934,2.3515,0.0,0.0,0.0,0.0,0.0,0.0,0.0,0.0,0.0,0.0,0.0,0.0,0.0,0.0,0.0,0.0,0.0,0.0,0.0,0.0,0.0,0.0,0.0,0.0,0.0,0.0,0.0,0.0,0.0,0.0,0.0,0.0,0.0,0.0,0.0,0.0,0.0,0.0,0.0,1.4797,1.4761,0.0,0.0,0.0,0.0,0.0,0.0,0.0,0.0,0.6635,0.0,0.0,0.0,0.0,0.0,0.0,0.0,0.0,0.0,0.0,0.0,0.0,0.0,0.0,0.0,0.0,0.0,0.0,0.0,0.0,0.0,0.0,0.0,0.0,0.0,0.0,0.0,0.0,0.0,0.0,0.0,0.0,0.0,0.0,0.0,0.0,0.0,0.0,0.0,0.0,0.0,0.0,0.0,0.0,0.0,0.0,0.0,0.0,0.0,0.0,0.0,0.0,0.0,0.0,0.0,0.7628,0.8622,1.0711,1.3755,1.6579,1.8996,2.0935,2.1876,2.244,0.0,0.0,0.0,0.0,0.0,0.0,0.0,0.0,0.0,0.0,0.0,0.0,0.0,0.0,0.0,0.0,0.0,0.0,0.0,0.0,0.0,0.0,0.0,0.0,0.0,0.0,0.0,0.0,0.0,0.0,0.0,0.0,0.0,0.0,0.0,0.0,0.0,0.0,0.0,0.0,1.8102,1.8505,1.7725,0.0,0.0,0.0,0.0,0.0,0.0,0.7965,0.7364,0.0,0.0,0.0,0.0,0.0,0.0,0.0,0.0,0.0,0.0,0.0,0.0,0.0,0.0,0.0,0.0,0.0,0.0,0.0,0.0,0.0,0.0,0.0,0.0,0.0,0.0,0.0,0.0,0.0,0.0,0.0,0.0,0.0,0.0,0.0,0.0,0.0,0.0,0.0,0.0,0.0,0.0,0.0,0.0,0.0,0.0,0.0,0.0,0.0,0.0,0.0,0.0,0.0,0.0,0.0,0.7524,0.9128,1.1268,1.4086,1.7035,1.9296,2.0698,2.1255,2.0796,0.0,0.0,0.0,0.0,0.0,0.0,0.0,0.0,0.0,0.0,0.0,0.0,0.0,0.0,0.0,0.0,0.0,0.0,0.0,0.0,0.0,0.0,0.0,0.0,0.0,0.0,0.0,0.0,0.0,0.0,0.0,0.0,0.0,0.0,0.0,0.0,0.0,0.0,0.0,0.0,0.0,2.2121,2.0789,1.9149,0.0,0.0,0.0,0.0,1.0154,0.9663,0.0,0.0,0.0,0.0,0.0,0.0,0.0,0.0,0.0,0.0,0.0,0.0,0.0,0.0,0.0,0.0,0.0,0.0,0.0,0.0,0.0,0.0,0.0,0.0,0.0,0.0,0.0,0.0,0.0,0.0,0.0,0.0,0.0,0.0,0.0,0.0,0.0,0.0,0.0,0.0,0.0,0.0,0.0,0.0,0.0,0.0,0.0,0.0,0.0,0.0,0.0,0.0,0.0,0.0,0.0,0.0,0.8165,1.0541,1.2756,1.4757,1.8818,2.12,2.1671,2.3144,2.1177,0.0,0.0,0.0,0.0,0.0,0.0,0.0,0.0,0.0,0.0,0.0,0.0,0.0,0.0,0.0,0.0,0.0,0.0,0.0,0.0,0.0,0.0,0.0,0.0,0.0,0.0,0.0,0.0,0.0,0.0,0.0,0.0,0.0,0.0,0.0,0.0,0.0,0.0,0.0,0.0,0.0,2.5445,2.178,2.1334,1.9965,0.0,0.0,1.361,1.1461,1.2696,0.0,0.0,0.0,0.0,0.0,0.0,0.0,0.0,0.0,0.0,0.0,0.0,0.0,0.0,0.0,0.0,0.0,0.0,0.0,0.0,0.0,0.0,0.0,0.0,0.0,0.0,0.0,0.0,0.0,0.0,0.0,0.0,0.0,0.0,0.0,0.0,0.0,0.0,0.0,0.0,0.0,0.0,0.0,0.0,0.0,0.0,0.0,0.0,0.0,0.0,0.0,0.0,0.0,0.0,0.0,0.7628,0.8997,1.0838,1.2962,1.5429,1.8736,2.085,2.1784,2.1277,1.9585,0.0,0.0,0.0,0.0,0.0,0.0,0.0,0.0,0.0,0.0,0.0,0.0,0.0,0.0,0.0,0.0,0.0,0.0,0.0,0.0,0.0,0.0,0.0,0.0,0.0,0.0,0.0,0.0,0.0,0.0,0.0,0.0,0.0,0.0,0.0,0.0,0.0,0.0,0.0,0.0,0.0,0.0,2.5205,2.4628,0.0,0.0,0.0,1.6043,1.4326,0.0,0.0,0.0,0.0,0.0,0.0,0.0,0.0,0.0,0.0,0.0,0.0,0.0,0.0,0.0,0.0,0.0,0.0,0.0,0.0,0.0,0.0,0.0,0.0,0.0,0.0,0.0,0.0,0.0,0.0,0.0,0.0,0.0,0.0,0.0,0.0,0.0,0.0,0.0,0.0,0.0,0.0,0.0,0.0,0.0,0.0,0.0,0.0,0.0,0.0,0.0,0.0,0.0,0.0,0.0,0.0,0.0,1.0258,1.1639,1.3679,1.6423,1.9286,2.1212,2.2061,2.0893,0.0,0.0,0.0,0.0,0.0,0.0,0.0,0.0,0.0,0.0,0.0,0.0,0.0,0.0,0.0,0.0,0.0,0.0,0.0,0.0,0.0,0.0,0.0,0.0,0.0,0.0,0.0,1.0231,0.0,0.0,0.0,0.0,0.0,0.0,0.0,0.0,0.0,0.0,0.0,0.0,0.0,0.0,3.0036,2.8264,2.7837,2.6992,0.0,0.0,1.8318,1.6943,1.7339,1.6506,0.0,0.0,0.0,0.0,0.0,0.0,0.0,0.0,0.0,0.0,0.0,0.0,0.0,0.0,0.0,0.0,0.0,0.0,0.0,0.0,0.0,0.0,0.0,0.0,0.0,0.0,0.0,0.0,0.0,0.0,0.0,0.0,0.0,0.0,0.0,0.0,0.0,0.0,0.0,0.0,0.0,0.0,0.0,0.0,0.0,0.0,0.0,0.0,0.0,0.0,0.0,0.0,0.0,0.0,0.0,1.208,1.3573,1.553,1.8024,2.1705,2.3472,2.3137,2.4519,2.3366,0.0,0.0,0.0,0.0,0.0,0.0,0.0,0.0,0.0,0.0,0.0,0.0,0.0,0.0,0.0,0.0,0.0,0.0,0.0,0.0,0.0,0.0,0.0,0.0,0.0,0.0,0.0,0.0,0.0,0.0,0.0,0.0,0.0,0.0,0.0,0.0,0.0,0.0,0.0,0.0,0.0,3.2984,2.9819,3.054,3.0838,0.0,0.0,2.0637,1.8833,1.9684,1.8805,1.3466,0.0,0.0,0.0,0.0,0.0,0.0,0.0,0.0,0.0,0.0,0.0,0.0,0.0,0.0,0.0,0.0,0.0,0.0,0.0,0.0,0.0,0.0,0.0,0.0,0.0,0.0,0.0,0.0,0.0,0.0,0.0,0.0,0.0,0.0,0.0,0.0,0.0,0.0,0.0,0.0,0.0,0.0,0.0,0.0,0.0,0.0,0.0,0.0,0.0,0.0,0.0,0.0,0.0,1.033,1.292,1.4329,1.6584,1.9736,2.158,2.3257,2.4823,2.4133,2.1961,0.0,0.0,0.0,0.0,0.0,0.0,0.0,0.0,0.0,0.0,0.0,0.0,0.0,0.0,0.0,0.0,0.0,0.0,0.0,0.0,0.0,0.0,0.0,0.0,0.0,0.0,0.0,0.0,1.5041,1.5251,1.4425,0.0,0.0,0.0,0.0,0.0,0.0,0.0,0.0,0.0,0.0,3.2712,3.3394,3.4132,0.0,0.0,2.8933,2.507,2.0119,2.035,1.9132,1.3441,1.1942,0.0,0.0,0.0,0.0,0.0,0.0,0.0,0.0,0.0,0.0,0.0,0.0,0.0,0.0,0.0,0.0,0.0,0.0,0.0,0.0,0.0,0.0,0.0,0.0,0.0,0.0,0.0,0.0,0.0,0.0,0.0,0.0,0.0,0.0,0.0,0.0,0.0,0.0,0.0,0.0,0.0,0.0,0.0,0.0,0.0,0.0,0.0,0.0,0.0,0.0,0.0,0.0,1.0953,1.3874,1.5061,1.7468,2.1254,2.2261,2.3863,2.6093,2.4728,2.2093,0.0,0.0,0.0,0.0,0.0,0.0,0.0,0.0,0.0,0.0,0.0,0.0,0.0,0.0,0.0,0.0,0.0,0.0,0.0,0.0,0.0,0.0,0.0,0.0,0.0,0.0,0.0,0.0,1.6378,1.6163,1.4167,0.0,0.0,0.0,0.0,0.0,0.0,0.0,0.0,0.0,0.0,3.382,3.6123,3.621,3.5405,3.371,3.0619,2.6554,2.1208,2.0069,1.8243,1.3572,0.0,0.0,0.0,0.0,0.0,0.0,0.0,0.0,0.0,0.0,0.0,0.0,0.0,0.0,0.0,0.0,0.0,0.0,0.0,0.0,0.0,0.0,0.0,0.0,0.0,0.0,0.0,0.5147,0.0,0.0,0.3818,0.0,0.0,0.0,0.0,0.0,0.0,0.0,0.0,0.0,0.0,0.0,0.0,0.0,0.0,0.0,0.0,0.0,0.0,0.0,0.0,0.0,0.0,1.2212,1.5131,1.6023,1.8352,2.2175,2.4338,2.5821,2.7011,2.7095,2.4885,2.003,0.0,0.0,0.0,0.0,0.0,0.0,0.0,0.0,0.0,0.0,0.0,0.0,0.0,0.0,0.0,0.0,0.0,0.0,0.0,0.0,0.0,0.0,0.0,0.0,0.0,0.0,1.3177,1.4739,1.5054,0.0,0.0,0.0,0.0,0.0,0.0,0.0,0.0,0.0,0.0,3.2122,3.7034,3.737,3.6248,3.513,3.4144,2.8912,2.4162,2.2057,1.8952,1.5936,0.0,0.0,0.0,0.0,0.0,0.0,0.0,0.0,0.0,0.0,0.0,0.0,0.0,0.0,0.0,0.0,0.0,0.0,0.0,0.0,0.0,0.0,0.0,0.0,0.0,0.0,0.0,0.5483,0.4937,0.0,0.0,0.0,0.0,0.0,0.0,0.0,0.0,0.0,0.0,0.0,1.5197,1.5871,0.0,0.0,0.0,0.0,0.0,0.0,0.0,0.0,0.0,0.0,0.0,0.0,1.3214,1.5939,1.7062,1.91,2.2007,2.2526,2.4133,2.6869,2.4175,2.0449,1.5699,0.0,0.0,0.0,0.0,0.0,0.0,0.0,0.0,0.0,0.0,0.0,0.0,0.0,0.0,0.0,0.0,0.0,0.0,0.0,0.0,0.0,0.0,0.0,0.0,0.0,1.3486,0.0,0.0,0.0,0.0,0.0,0.0,0.0,0.0,0.0,0.0,0.0,2.5564,2.9206,3.1845,3.4261,3.6521,3.77,3.8123,0.0,0.0,0.0,0.0,0.0,0.0,0.0,0.0,0.0,0.0,0.0,0.0,0.0,0.0,0.3724,0.457,0.4689,0.4596,0.4297,0.0,0.0,0.0,0.0,0.0,0.0,0.0,0.0,0.0,0.0,0.0,0.0,0.0,0.0,0.5861,0.0,0.4282,0.0,0.0,0.0,0.0,0.0,0.0,0.0,0.0,1.5048,1.661,1.7203,1.7971,1.8788,0.0,1.9004,1.7423,0.0,0.0,0.0,0.0,0.0,0.0,0.0,0.0,1.4305,1.6385,1.789,1.9736,2.1886,2.2347,2.3844,2.6466,2.204,1.7182,1.2178,0.7697,0.6206,0.0,0.0,0.0,0.0,0.0,0.0,0.0,0.0,0.0,0.0,0.0,0.0,0.0,0.0,0.0,0.0,0.0,0.0,0.0,0.0,0.0,0.0,0.0,1.3735,0.0,0.0,0.0,0.0,0.0,0.0,0.0,0.0,0.0,2.3013,2.4987,2.7677,3.1459,3.2889,3.4207,3.6124,0.0,0.0,0.0,0.0,0.0,0.0,0.0,1.81,0.8318,0.8381,0.8926,0.6646,0.4723,0.3226,0.2636,0.0,0.0,0.3962,0.3434,0.2801,0.3199,0.2168,0.1199,0.1198,0.073,0.0269,0.0,0.0,0.0,0.0,0.0,0.0,0.0,0.0,0.7077,0.6309,0.0,0.5737,0.0,0.0,0.0,0.0,0.0,1.0804,0.0,0.0,1.6701,1.7945,1.7835,1.8999,2.0049,2.0921,2.1459,2.0889,1.9252,1.5941,0.0,0.0,0.0,0.0,0.0,0.0,1.5413,1.6344,1.8269,2.0206,2.1886,2.3508,2.4915,2.5661,2.0662,1.5185,0.9744,0.7127,0.4442,0.1362,0.4123,0.0,0.0,0.0,0.0,0.0,0.0,0.0,0.0,0.0,0.0,0.0,0.0,0.0,0.0,0.0,0.0,0.0,0.0,0.0,0.0,1.1749,0.0,0.0,0.0,0.0,0.0,0.0,0.0,0.0,0.0,0.0,2.325,2.7717,3.1462,3.2191,0.0,0.0,0.0,0.0,3.289,3.3255,2.9608,2.4404,1.7536,1.7372,1.4773,0.5061,0.0,0.0,0.2998,0.0299,-0.1387,-0.2008,-0.0812,0.1047,0.3054,0.1603,0.0375,0.1074,0.0097,-0.0859,-0.1054,-0.1389,-0.1821,2.5683,0.0,0.0,0.0,0.0,1.2271,1.0927,0.8006,0.8281,0.8164,0.7734,0.6497,0.0,0.0,0.0,0.0,0.0,0.0,1.3691,1.5978,1.9017,1.9819,1.8777,2.0287,2.1123,2.1327,2.1624,2.1424,2.0754,1.9123,1.7102,1.4771,0.0,0.0,0.0,0.0,1.6033,1.797,1.828,1.9152,2.064,2.1123,2.0699,1.923,1.5332,1.1409,0.7327,0.3393,0.1754,0.2635,0.1798,0.0,0.0,0.0,0.0,0.0,0.0,0.0,0.0,0.0,0.0,0.0,0.0,0.0,0.0,0.0,0.0,0.0,0.0,0.0,1.4547,1.3287,1.2934,0.0,0.0,0.0,0.0,0.0,0.0,0.0,0.0,0.0,2.7853,2.841,2.9728,0.0,0.0,3.3184,3.2018,3.2374,3.2342,3.0903,2.3659,0.0,1.127,0.6116,0.0,-0.7899,-0.6123,-0.3369,-0.2348,-0.3161,-0.3653,-0.2758,-0.3145,-0.2944,-0.0781,-0.0542,-0.0861,-0.0668,-0.166,-0.2628,-0.2769,-0.3362,-0.3959,3.1734,2.6441,2.4104,1.997,1.5139,1.5756,1.3533,0.9408,0.9108,0.8742,0.8385,0.7351,0.7431,0.8204,0.7843,0.0,0.0,0.0,1.4906,1.6798,2.0065,2.0952,1.9845,2.16,2.2287,2.2071,2.3047,2.311,2.2318,2.2118,2.0577,1.7842,0.0,0.0,1.718,1.6866,1.7353,1.8621,1.8477,1.8787,1.9649,1.9509,1.8294,1.5909,1.248,0.879,0.489,0.0981,-0.0656,0.0174,-0.0,0.0228,0.0,0.0,0.0,0.0,0.0,0.0,0.0,0.0,0.0,0.0,0.0,0.7796,0.0,0.0,0.0,0.0,1.042,1.2127,1.4413,1.3436,0.0,0.0,0.0,0.0,0.0,0.0,0.0,2.4896,2.6974,2.8761,2.9659,2.8288,2.8381,3.1599,3.1959,3.1101,2.901,0.0,2.8978,2.6926,2.0954,1.3324,0.4046,-0.018,-0.519,-1.3523,-1.2354,-0.9847,-0.8345,-0.7864,-0.7646,-0.7554,-0.7458,-0.7,-0.6051,-0.5722,-0.4984,-0.3677,-0.4501,-0.5556,-0.5485,-0.5975,-0.6239,3.5537,3.4337,3.0422,2.5064,1.9273,1.8735,1.6238,1.2415,0.9577,0.854,0.8796,0.8316,0.8726,0.9933,1.0926,0.0,1.0617,1.3939,1.5785,1.6545,1.9956,2.1148,2.0586,2.2513,2.3322,2.3041,2.5027,2.5262,2.3929,2.4485,2.3742,2.1633,1.9538,1.8482,1.8384,1.8721,1.8748,1.8488,1.8697,1.89,1.9019,1.8435,1.7196,1.5373,1.1209,0.6921,0.257,-0.0295,-0.2657,-0.4459,-0.1594,-0.0119,-0.0642,0.0,0.0,0.0,0.0,0.0,0.0,0.0,0.0,0.0,0.0,0.0,0.0,0.0,0.0,0.0,0.8435,0.0,1.2503,1.329,0.0,0.0,0.0,2.2848,2.5085,2.6455,2.74,2.8041,0.0,0.0,2.9274,2.7724,2.7466,2.9829,3.0626,2.9914,2.6918,2.5742,2.4251,2.2566,1.9825,1.2898,-0.0277,-0.4809,-0.9343,-1.6318,-1.5553,-1.5355,-1.4738,-1.3795,-1.3726,-1.4682,-1.2798,-1.1013,-1.2149,-1.1996,-1.1272,-0.7782,-0.7987,-0.8809,-0.8678,-0.8557,-0.8196,3.4431,3.5415,2.8565,2.4169,2.167,2.1036,1.6879,1.0648,0.937,0.8954,0.9023,0.8897,0.8931,0.913,0.9325,1.0118,1.1261,1.2128,1.3427,1.5168,1.8054,1.9374,1.9374,2.1095,2.2579,2.3671,2.3385,2.3732,2.4648,2.3966,2.3013,2.1829,2.0438,1.949,1.8887,1.7888,1.7698,1.8396,1.7991,1.8358,1.9394,1.7382,1.6008,1.5521,0.8461,0.4019,0.2582,-0.1278,-0.3732,-0.4497,-0.3247,-0.2655,-0.2771,0.1957,0.0,0.0,0.0,0.0,0.0,0.0,0.0,0.0,0.0,0.8068,0.9474,0.0,1.1395,0.0,0.8563,1.2049,2.0114,1.8152,0.0,0.0,2.4329,2.5574,2.6334,2.8383,2.9515,2.8942,3.021,3.0675,2.9166,2.8626,2.7447,2.5333,2.6347,2.6837,2.512,2.5717,2.4996,2.1045,1.4084,0.8429,0.4113,-1.826,-3.3431,-2.8521,-2.8502,-2.7603,-2.2863,-2.1616,-2.0676,-1.8724,-1.6866,-1.529,-1.3907,-1.3808,-1.3689,-1.2711,-1.1439,-1.0027,-0.9303,-0.9061,-0.8462,3.8363,3.9337,3.4945,2.9979,2.4719,2.1115,1.6046,1.0469,0.9619,0.9336,0.9332,0.9332,1.0,1.1046,1.1139,1.1676,1.2655,1.3556,1.463,1.5777,1.7285,1.8537,1.9427,2.055,2.1683,2.2693,2.3069,2.4133,2.5583,2.5008,2.436,2.3557,2.2774,2.1197,1.8912,1.781,1.7877,1.9221,1.8045,1.7609,1.7956,1.587,1.475,1.4536,0.7635,0.4014,0.4554,-0.1021,-0.3659,-0.2761,-0.2485,-0.2313,-0.2279,0.0474,0.2024,0.0,0.0,0.0,0.0,0.0,0.0,0.0,0.0,0.0,0.0,0.0,1.1518,1.3194,1.208,1.4128,2.1008,2.0484,2.0864,2.3479,2.6101,2.8106,2.906,3.0546,3.1497,3.1565,3.2551,3.2394,3.0322,2.8998,2.6951,2.359,2.3103,2.2862,2.2346,2.3002,2.1803,1.6423,0.9678,0.1566,-0.514,-2.9373,-4.5245,-3.9546,-3.5878,-3.3101,-3.0373,-2.7521,-2.5031,-2.331,-2.1577,-1.9804,-1.7877,-1.767,-1.7811,-1.7259,-1.5853,-1.3836,-1.2067,-1.1471,-1.0993,4.3135,4.362,4.2611,3.7169,2.857,2.0986,1.5172,1.1016,0.9947,0.9759,1.016,1.0181,1.1768,1.4521,1.4151,1.4245,1.4615,1.6023,1.6955,1.7231,1.7507,1.8616,2.0473,2.0907,2.1428,2.1909,2.341,2.4824,2.6116,2.5704,2.5181,2.467,2.418,2.2052,1.86,1.7684,1.8038,1.9437,1.8187,1.7073,1.607,1.4847,1.3953,1.3241,0.8389,0.5789,0.5943,-0.0454,-0.3168,-0.1219,-0.1154,-0.1303,-0.1344,-0.1012,-0.0772,0.0,-0.0337,0.0,0.0,0.0,0.0,0.0,0.0,0.0,0.0,0.8122,1.1028,1.888,1.6156,1.5502,1.9293,2.125,2.2319,2.2478,2.6062,2.9443,3.1514,3.21,3.2767,3.3972,3.4261,3.3427,3.0449,2.8183,2.5647,2.283,2.0287,1.8657,1.8314,1.8052,1.5797,1.0059,0.1992,-1.2675,-2.4339,-3.8573,-4.776,-4.6058,-4.0995,-3.6201,-3.7096,-3.2617,-2.8778,-2.8468,-2.6736,-2.474,-2.2855,-2.2534,-2.2114,-2.1314,-1.9821,-1.7861,-1.5521,-1.447,-1.4123,4.0003,4.3059,3.6753,3.4816,3.509,2.5201,1.7071,1.0688,0.9665,1.0632,1.2966,1.3159,1.479,1.734,1.5065,1.5338,1.7432,1.5438,1.5903,1.8167,1.9851,2.1216,2.2351,2.3302,2.4545,2.5799,2.3283,2.2578,2.3731,2.0977,1.9393,1.9074,1.806,1.7604,1.7585,0.0,0.0,0.0,1.7219,1.7652,1.6515,1.7113,1.5848,1.2451,1.2131,0.0,0.1474,-0.1671,-0.3411,-0.3851,-0.3488,0.0,0.0,0.0,0.0,0.0,0.0,0.0,0.0,0.0,0.0,0.0,0.9765,1.0496,0.7098,0.8562,1.2221,1.7868,1.4866,1.5459,2.2798,2.0584,2.0701,2.5471,2.5108,2.5808,2.9442,3.0194,3.0732,3.1368,3.1449,2.9729,2.5411,2.3857,2.267,2.0338,1.7134,1.4774,1.3622,1.1146,0.9496,0.8065,-1.6889,-3.6823,-2.9817,-4.1536,-5.0117,-4.8318,-4.6591,-4.3788,-4.1155,-3.7792,-3.492,-3.4318,-3.1684,-2.9029,-2.7861,-2.635,-2.4726,-2.3492,-2.1526,-1.9279,-1.7253,-1.5639,-1.4242,4.4959,0.0,4.2996,4.0576,0.0,3.0151,2.367,1.8718,1.2614,1.1925,1.5114,1.6632,1.9238,2.2399,1.91,1.929,2.2031,2.0656,2.0835,2.2041,2.1042,2.2107,2.4837,2.4966,2.5426,2.6028,2.5895,2.5965,2.6368,2.4832,2.3329,2.1969,2.074,1.8912,1.6317,1.3391,1.2544,1.3676,1.5121,1.5396,1.4408,1.3765,1.1545,0.7688,0.7313,0.0,0.0,0.0,0.0,0.0,0.0,0.0,0.0,0.0,0.0,-0.275,-0.2043,-0.0769,0.124,0.3206,0.4617,0.5199,0.9606,1.1164,0.8349,0.9611,1.2272,1.6262,1.5122,1.5992,2.0222,2.014,2.0757,2.2793,2.322,2.4388,2.6536,2.7217,2.7719,2.8416,2.8609,2.7055,2.3328,2.2974,2.116,1.7304,1.5184,1.2416,0.8603,0.6661,0.5454,0.2557,-1.6612,-3.3516,-3.2148,-3.9434,-4.9185,-4.9982,-4.9118,-4.7116,-4.5272,-4.1792,-3.8959,-3.7632,-3.4961,-3.2438,-3.0867,-2.8695,-2.6779,-2.5943,-2.3896,-2.179,-2.0144,-1.81,-1.6492,5.0598,5.0909,5.0909,4.7076,4.0474,3.406,2.8834,2.4386,0.0,0.0,0.0,2.0683,2.3784,2.638,2.3456,2.3926,2.686,2.6329,2.6394,2.6784,2.3328,2.3849,2.7572,2.6995,2.6414,2.6246,2.8556,2.9643,2.939,2.8395,2.7076,2.5289,2.3328,1.973,1.4721,1.1467,1.084,1.2759,1.2932,1.2729,1.2105,0.9689,0.6678,0.3097,0.0868,0.0351,0.1768,-0.2876,-0.4095,-0.1107,-0.2777,-0.3172,-0.17,-0.4175,-0.5471,-0.5009,-0.5785,-0.4781,-0.1302,-0.008,0.1743,0.442,0.9431,1.1898,1.0641,1.1731,1.3288,1.5203,1.6155,1.6846,1.7615,1.9231,2.0066,1.8891,2.0767,2.2384,2.3556,2.4043,2.4607,2.5472,2.566,2.4854,2.2292,2.1406,1.9666,1.4636,1.2285,0.9884,0.413,0.2681,0.0976,-0.4531,-1.4406,-2.108,-2.8412,-3.7681,-4.4767,-5.0606,-5.0039,-4.8749,-4.7872,-4.5016,-4.2041,-4.0572,-3.7887,-3.5506,-3.3691,-3.1302,-2.9217,-2.8751,-2.6573,-2.4369,-2.3151,-2.1023,-1.9435,4.9557,5.0916,5.0909,4.6998,4.0357,3.4266,2.4902,1.4564,2.0202,2.2074,2.1076,2.6025,2.7244,2.559,2.5314,2.7215,3.0519,2.7184,2.7396,3.0451,2.9928,3.0054,3.0655,3.0703,3.0716,3.0529,2.88,2.7846,2.7198,2.1987,1.9442,2.0,1.5824,1.3182,1.2109,1.0068,0.977,1.1212,1.1554,1.1766,1.1985,0.9511,0.6757,0.3674,-0.1035,-0.3626,-0.3779,-0.5309,-0.5668,-0.455,-0.5121,-0.5383,-0.5274,-0.5628,-0.602,-0.6189,-0.402,-0.2451,-0.207,0.2552,0.6647,0.9597,1.3098,1.4136,1.205,1.6334,1.8588,1.7059,1.6901,1.8053,2.03,1.7392,1.6212,1.7768,1.6991,1.7418,2.0562,2.1449,2.1845,2.2261,2.2688,2.175,1.8948,1.6215,1.4122,1.1765,0.7712,0.3161,-0.0122,-0.2949,-0.4056,-0.6739,-1.5749,-2.2773,-2.5756,-3.5498,-4.3178,-4.6248,-4.9985,-5.1182,-4.9405,-4.6864,-4.4652,-4.3731,-4.0869,-3.8701,-3.7521,-3.5301,-3.2664,-3.0806,-2.8367,-2.6191,-2.5032,-2.3391,-2.1828,5.0163,5.0858,5.0909,4.9143,4.5961,4.2257,3.3321,2.2311,2.7951,2.7794,2.367,2.747,3.0347,3.1973,3.1093,3.1979,3.4249,3.1782,3.1801,3.3679,3.3198,3.3198,3.3858,3.3926,3.3557,3.2863,3.2458,3.0739,2.7797,2.4705,2.1897,1.9049,1.4288,1.2012,1.2102,0.9119,0.8679,1.1005,0.9446,0.9103,1.0074,0.6812,0.3267,-0.0479,-0.2999,-0.4359,-0.4873,-0.5902,-0.6379,-0.6058,-0.6595,-0.6464,-0.558,-0.6438,-0.684,-0.6489,-0.3849,-0.161,-0.0182,0.5475,1.0224,1.3486,1.634,1.7699,1.6877,1.8985,1.995,1.8912,1.9107,1.9884,2.1321,1.9743,1.8499,1.8201,1.781,1.7588,1.7811,1.8223,1.8594,1.882,1.9199,1.8018,1.4478,1.2885,0.9972,0.637,0.1578,-0.0981,-0.1355,-0.4301,-0.627,-0.6348,-1.2753,-1.8471,-2.141,-3.1248,-3.957,-4.3481,-4.9175,-5.1684,-5.0323,-4.8429,-4.7042,-4.5372,-4.297,-4.1241,-4.0096,-3.6829,-3.4365,-3.2841,-3.0223,-2.8038,-2.6553,-2.516,-2.3391,5.0909,5.0909,5.0909,5.0045,4.8411,4.5541,3.872,3.0454,3.2877,3.1455,2.7531,2.9114,3.2541,3.6618,3.6153,3.6522,3.751,3.7571,3.7341,3.7002,3.6507,3.6594,3.7277,3.7351,3.6692,3.5707,3.6742,3.5018,3.0923,2.9065,2.4541,1.7745,1.2925,1.103,1.1317,0.7033,0.6421,0.9119,0.5981,0.5034,0.6731,0.3157,-0.0822,-0.4541,-0.4673,-0.4802,-0.5518,-0.6436,-0.6871,-0.6738,-0.7495,-0.7059,-0.5183,-0.6471,-0.7021,-0.5972,-0.3763,-0.0931,0.2461,0.7462,1.2068,1.5717,1.8486,2.0575,2.177,2.2302,2.2127,2.1582,2.1944,2.2231,2.2184,2.1481,2.062,1.8438,1.8163,1.7187,1.5649,1.5483,1.5715,1.5941,1.6307,1.5032,1.1704,1.0725,0.7589,0.0364,-0.2941,-0.3076,-0.2092,-0.4906,-0.6621,-0.7484,-1.0027,-1.4164,-1.8514,-2.6635,-3.4804,-4.0734,-4.7261,-5.0405,-5.0508,-5.0214,-4.8775,-4.6608,-4.4573,-4.2809,-4.1295,-3.8456,-3.5717,-3.4316,-3.2029,-2.9714,-2.764,-2.6372,-2.4956,5.0913,5.0916,5.0948,4.7324,4.1849,3.5671,3.2421,3.0962,3.0124,3.1726,3.4206,3.3131,3.3309,3.494,3.8069,3.9802,4.0647,4.3399,4.2989,4.0525,4.1714,4.203,4.1251,4.1456,4.1144,4.0257,4.0453,3.933,3.6653,3.0255,2.2621,1.4227,0.917,0.7287,0.6988,0.2769,0.1491,0.3785,0.01,-0.0687,0.1421,-0.1136,-0.4069,-0.681,-0.6107,-0.6276,-0.7188,-0.7563,-0.7269,-0.6464,-0.7396,-0.6935,-0.5066,-0.5637,-0.574,-0.472,-0.2868,0.0097,0.4542,0.7785,1.1288,1.4692,1.8178,2.143,2.4294,2.7331,2.7875,2.5549,2.489,2.5025,2.4746,2.0845,1.829,1.7925,1.5863,1.3893,1.4074,1.4147,1.4391,1.4386,1.4624,1.3489,1.0158,0.8489,0.4504,-0.3684,-0.4547,-0.4547,-0.4674,-0.5639,-0.7337,-0.9054,-1.1483,-1.3205,-1.5881,-2.15,-3.0184,-3.7351,-4.3611,-4.8252,-5.0695,-5.1705,-5.0934,-4.8001,-4.5853,-4.4251,-4.2085,-3.9903,-3.8132,-3.5507,-3.3534,-3.1501,-2.8512,-2.7187,-2.6409,5.2128,5.1683,5.1679,4.9836,4.6482,4.3753,4.0542,3.7252,3.6397,3.6701,3.7372,3.6352,3.7156,3.947,4.1026,4.2372,4.3668,4.5064,4.4777,4.316,4.3781,4.3656,4.303,4.3033,4.2616,4.1836,4.1875,4.0087,3.5745,2.7967,2.1701,1.773,1.144,0.7993,0.729,0.2176,-0.0,0.1195,-0.2004,-0.3593,-0.3734,-0.4181,-0.5389,-0.7146,-0.6599,-0.6485,-0.7192,-0.7529,-0.7722,-0.7688,-0.7785,-0.7312,-0.6458,-0.6167,-0.5818,-0.5211,-0.1661,0.1987,0.5576,0.9175,1.2113,1.4171,1.8094,2.1112,2.2946,2.5513,2.6486,2.5968,2.7108,2.8265,2.7788,2.4646,2.1981,2.0431,1.7824,1.5487,1.3784,1.3803,1.3923,1.3799,1.291,1.0808,0.6909,0.3041,-0.1346,-0.6046,-0.6035,-0.5657,-0.6403,-0.7606,-0.8809,-1.002,-1.3246,-1.5032,-1.5305,-2.2638,-3.0025,-3.5894,-4.2445,-4.8265,-5.2049,-5.3335,-5.2512,-4.9604,-4.8027,-4.6202,-4.4149,-4.1997,-4.0034,-3.7221,-3.44,-3.2308,-2.9985,-2.8956,-2.8329,5.313,5.2569,5.2298,5.1702,5.0916,5.0899,4.8365,4.4406,4.3304,4.2378,4.1406,4.0519,4.1694,4.4118,4.4165,4.4874,4.6205,4.6846,4.6562,4.5764,4.6123,4.5983,4.5271,4.4993,4.4457,4.3716,4.3672,4.113,3.5942,2.9115,2.3514,1.9507,1.288,0.8157,0.5101,-0.0099,-0.2392,-0.1996,-0.3912,-0.5636,-0.6739,-0.6265,-0.6371,-0.7452,-0.6997,-0.6884,-0.7308,-0.7655,-0.8048,-0.8684,-0.82,-0.762,-0.704,-0.6266,-0.5726,-0.5116,-0.0598,0.3036,0.4826,0.898,1.2409,1.4651,1.7729,2.0337,2.2339,2.3895,2.4837,2.5371,2.7494,2.8537,2.8082,2.5724,2.3136,2.0711,1.7818,1.4964,1.3066,1.284,1.2844,1.2715,1.0978,0.8392,0.414,-0.0978,-0.5665,-0.7158,-0.7268,-0.7378,-0.8488,-0.9933,-1.0997,-1.1583,-1.6232,-1.8391,-1.6996,-2.1881,-2.9797,-3.6763,-4.2731,-4.6529,-5.2543,-5.4246,-5.3678,-5.0779,-4.9748,-4.7922,-4.5371,-4.3272,-4.1208,-3.8541,-3.5639,-3.3178,-3.1677,-3.0732,-2.9682,5.3478,5.3323,5.2569,5.1757,5.0909,5.0935,5.0764,4.9759,4.8496,4.7796,4.7367,4.5966,4.6338,4.7878,4.7174,4.7401,4.8297,4.972,4.9378,4.801,4.95,4.9957,4.9045,4.8278,4.7383,4.6376,4.636,4.3435,3.8186,3.541,2.8356,1.6228,1.1288,0.5914,-0.0581,-0.4984,-0.6833,-0.5942,-0.6137,-0.6642,-0.7353,-0.7235,-0.7316,-0.7786,-0.7741,-0.7814,-0.8041,-0.8118,-0.839,-0.859,-0.8682,-0.7892,-0.6101,-0.5506,-0.4916,-0.3626,0.0408,0.2572,0.2581,0.6461,1.0953,1.527,1.6581,1.9008,2.2766,2.3861,2.4242,2.4537,2.493,2.492,2.3318,2.0978,1.8164,1.5994,1.2836,1.1113,1.0664,1.1031,1.0914,1.066,0.9045,0.6109,0.2818,-0.2575,-0.6033,-0.7766,-0.861,-0.9576,-1.1175,-1.2234,-1.3159,-1.5467,-1.9367,-2.3226,-2.1677,-2.4386,-3.0262,-3.684,-4.1255,-4.3351,-4.9711,-5.4496,-5.3244,-5.199,-5.0694,-4.8781,-4.6271,-4.3956,-4.1724,-3.9095,-3.6207,-3.397,-3.345,-3.2004,-3.0927,5.4774,5.4252,5.3382,5.2511,5.1776,5.1722,5.1412,5.0855,5.024,4.9967,4.9888,4.9267,4.9377,4.9928,4.9654,4.9697,4.9987,5.05,5.0024,4.8962,4.9432,4.9192,4.8316,4.7953,4.7806,4.7666,4.7623,4.1721,3.1415,2.938,2.1522,0.866,0.2334,-0.1334,-0.3483,-0.765,-0.908,-0.7347,-0.7135,-0.7531,-0.8237,-0.8219,-0.8711,-0.9801,-0.9429,-0.9323,-0.9698,-0.962,-0.9913,-1.0596,-0.962,-0.8829,-0.8134,-0.7,-0.5826,-0.4409,-0.0623,0.2108,0.3304,0.7298,1.0083,1.0692,1.4673,1.6853,1.7784,1.9721,2.142,2.1693,2.1699,2.0628,1.832,1.7604,1.7089,1.5055,1.2086,1.0061,0.9943,1.0061,1.0183,0.993,0.7464,0.3795,0.0491,-0.2585,-0.5421,-0.8885,-0.9734,-1.0565,-1.2001,-1.3292,-1.4821,-1.658,-2.0281,-2.3896,-2.4984,-2.7786,-3.2428,-3.7647,-4.2217,-4.6651,-5.2271,-5.4736,-5.4265,-5.3647,-5.2173,-5.0167,-4.7821,-4.4297,-4.2166,-4.0667,-3.7686,-3.5573,-3.5306,-3.3772,-3.2521,5.5528,5.4774,5.4175,5.342,5.2608,5.2318,5.1873,5.1312,5.1022,5.0906,5.0906,5.0906,5.0865,5.0811,5.087,5.086,5.0802,5.0722,5.0343,4.9746,4.9645,4.9262,4.8669,4.8352,4.8301,4.8404,4.8298,4.0661,2.8095,2.7368,1.8169,0.1314,-0.2112,-0.4008,-0.5783,-0.9037,-0.9746,-0.8383,-0.7867,-0.8268,-0.9268,-0.9461,-1.0167,-1.1274,-1.1468,-1.15,-1.1404,-1.1063,-1.1165,-1.1595,-1.0609,-0.964,-0.9207,-0.7722,-0.6246,-0.4904,-0.1797,0.1074,0.3153,0.6737,0.8544,0.8112,1.1783,1.404,1.396,1.6524,1.8415,1.9309,1.8979,1.7291,1.5252,1.5488,1.5654,1.3922,1.1551,1.0051,1.0051,0.9572,0.8711,0.7479,0.5391,0.1963,-0.1478,-0.3078,-0.5531,-0.9217,-1.0179,-1.1732,-1.3292,-1.5182,-1.6715,-1.7886,-2.1292,-2.459,-2.6839,-3.0028,-3.4713,-3.9959,-4.3099,-4.8124,-5.2549,-5.4587,-5.5434,-5.4946,-5.3639,-5.1629,-4.8793,-4.5119,-4.321,-4.2053,-3.9559,-3.7011,-3.6405,-3.5515,-3.4012,5.5548,5.4909,5.4793,5.4291,5.3478,5.2763,5.2279,5.2086,5.1331,5.1041,5.108,5.0945,5.0809,5.0696,5.0817,5.0783,5.0708,5.0802,5.0656,5.0339,5.0513,5.0407,5.0014,4.9274,4.7728,4.6969,4.7842,3.9818,2.4719,2.6286,1.763,0.0566,-0.114,-0.3714,-0.9607,-0.9812,-0.9711,-0.9376,-0.8734,-0.9168,-1.0551,-1.1017,-1.1518,-1.2367,-1.3779,-1.4196,-1.335,-1.2543,-1.217,-1.2237,-1.1629,-1.0487,-0.915,-0.7449,-0.5939,-0.4778,-0.2694,-0.0544,0.1856,0.4087,0.6656,0.8216,0.9413,1.1463,1.3869,1.5212,1.6445,1.7666,1.7043,1.5309,1.3505,1.3536,1.3072,1.1102,1.0386,1.051,1.0034,0.8952,0.6514,0.3808,0.2703,0.1353,-0.1969,-0.4671,-0.6736,-0.8406,-1.1299,-1.4208,-1.5671,-1.7436,-1.9183,-2.0422,-2.2686,-2.5463,-2.8725,-3.229,-3.7379,-4.2148,-4.433,-4.7842,-5.2544,-5.5352,-5.5587,-5.5172,-5.4,-5.201,-4.9457,-4.6067,-4.4297,-4.2816,-4.0368,-3.8476,-3.7484,-3.6493,-3.4993,5.5857,5.5644,5.5625,5.5161,5.4407,5.4097,5.3672,5.3014,5.2182,5.1815,5.1679,5.1157,5.086,5.083,5.0874,5.086,5.0817,5.0845,5.04,4.9683,4.9666,4.9323,4.8663,4.8431,4.3229,3.6026,3.7898,2.6417,0.7703,0.8912,0.2421,-1.0121,-1.1852,-1.0988,-1.0918,-1.2297,-1.264,-1.098,-1.0551,-1.1169,-1.251,-1.2818,-1.3539,-1.4963,-1.5808,-1.6117,-1.6157,-1.5103,-1.4207,-1.3646,-1.293,-1.2146,-1.1209,-0.9057,-0.6664,-0.4511,-0.2517,-0.0222,0.2332,0.3567,0.5029,0.68,0.8329,0.9738,1.1142,1.2601,1.3702,1.451,1.3913,1.2873,1.1286,1.2039,1.1315,0.8468,0.9431,0.9667,0.8221,0.7004,0.5039,0.2703,0.1597,-0.0,-0.2707,-0.5527,-0.8071,-1.0499,-1.3784,-1.647,-1.7584,-1.8848,-2.0228,-2.1684,-2.4069,-2.6073,-2.8615,-3.2049,-3.6928,-4.1897,-4.5018,-4.8003,-5.2507,-5.5412,-5.5611,-5.5186,-5.3997,-5.227,-4.9687,-4.7457,-4.5599,-4.3733,-4.1668,-4.0056,-3.8701,-3.7403,-3.6143,5.6012,5.6012,5.6012,5.5722,5.5219,5.4948,5.4503,5.3884,5.3053,5.2511,5.2117,5.1535,5.0996,5.0719,5.0753,5.065,5.0547,5.0739,5.0386,4.9623,4.9724,4.9411,4.889,4.9007,4.2654,3.2847,3.3948,2.0415,-0.6447,-0.1635,-0.5127,-1.7671,-1.7268,-1.4629,-1.2656,-1.3158,-1.2971,-1.2154,-1.1829,-1.2551,-1.3915,-1.4435,-1.5166,-1.651,-1.7062,-1.7272,-1.7442,-1.7027,-1.6501,-1.5442,-1.4441,-1.3681,-1.2992,-1.0396,-0.7871,-0.5682,-0.3093,-0.0447,0.168,0.2573,0.3694,0.5031,0.6798,0.8222,0.8992,1.0429,1.1092,1.1744,1.1208,1.0233,0.9049,0.9649,0.9023,0.6274,0.8088,0.8207,0.6272,0.4923,0.3566,0.1722,0.0615,-0.0984,-0.2953,-0.5892,-0.9172,-1.2483,-1.5292,-1.7811,-1.8874,-2.012,-2.1586,-2.3159,-2.5075,-2.6717,-2.8077,-3.1806,-3.6289,-4.1067,-4.5535,-4.8952,-5.2977,-5.4996,-5.586,-5.5208,-5.4188,-5.2864,-5.0485,-4.8481,-4.6601,-4.4739,-4.268,-4.1127,-3.9578,-3.8966,-3.7638,5.6012,5.6012,5.6012,5.5973,5.5857,5.5219,5.4909,5.4735,5.3942,5.3188,5.2526,5.2008,5.1291,5.0576,5.0679,5.0468,5.0081,5.0595,5.0747,5.0488,5.0586,5.0412,4.9372,4.8397,4.1161,3.1873,3.1321,1.7943,-0.6908,-0.2344,-0.5455,-1.9932,-1.6051,-1.3053,-1.3864,-1.2398,-1.2507,-1.3347,-1.2704,-1.3455,-1.5399,-1.5737,-1.6374,-1.7226,-1.7522,-1.7613,-1.7705,-1.8324,-1.8306,-1.715,-1.5682,-1.4653,-1.3657,-1.1458,-0.9424,-0.7847,-0.4236,-0.1679,-0.0112,0.112,0.2239,0.3469,0.4711,0.5935,0.7265,0.7682,0.8436,0.9253,0.843,0.7396,0.6712,0.6899,0.5872,0.4548,0.6008,0.6377,0.4307,0.3079,0.1847,0.0616,-0.0492,-0.16,-0.308,-0.6134,-0.9778,-1.2933,-1.5343,-1.7572,-2.0005,-2.1601,-2.3175,-2.4633,-2.6082,-2.706,-2.8329,-3.2106,-3.6301,-3.9033,-4.4381,-4.9424,-5.2717,-5.4615,-5.5816,-5.5152,-5.4281,-5.2933,-5.1268,-4.9147,-4.7013,-4.4946,-4.317,-4.1583,-4.0534,-3.9775,-3.8572,5.6012,5.6012,5.6012,5.6012,5.5993,5.576,5.5683,5.5586,5.4813,5.4291,5.3855,5.2671,5.1938,5.1639,5.1042,5.0734,5.0633,5.0786,5.0972,5.0926,5.1042,4.8467,4.4663,4.1008,3.049,1.5875,1.4455,0.3324,-1.3448,-1.1308,-1.2274,-1.4212,-1.6761,-1.5907,-1.4126,-1.3819,-1.4369,-1.503,-1.4595,-1.4804,-1.6086,-1.6411,-1.7054,-1.7898,-1.749,-1.7589,-1.8206,-1.8527,-1.8157,-1.7153,-1.6008,-1.5329,-1.4697,-1.2361,-1.03,-0.8739,-0.5996,-0.3015,-0.0672,0.0224,0.1008,0.213,0.2943,0.3303,0.3068,0.3688,0.4088,0.4361,0.4064,0.3857,0.3651,0.3673,0.2826,0.1721,0.3439,0.4423,0.3076,0.1724,0.0616,-0.0615,-0.2459,-0.3689,-0.5037,-0.7588,-1.0853,-1.3379,-1.5537,-1.8021,-2.0558,-2.2047,-2.3167,-2.5296,-2.6744,-2.752,-2.9221,-3.2909,-3.584,-3.7597,-4.2776,-4.9504,-5.2357,-5.4549,-5.5228,-5.5249,-5.4254,-5.3013,-5.1207,-4.9203,-4.7132,-4.5097,-4.3822,-4.2444,-4.1173,-4.0238,-3.9,5.6012,5.6012,5.6012,5.6012,5.6012,5.6012,5.6012,5.5915,5.5528,5.5084,5.4517,5.3256,5.2364,5.1956,5.115,5.0702,5.0582,5.0268,4.899,4.6263,4.2517,4.0226,3.84,3.4775,2.2803,0.6558,0.5152,-0.2458,-1.3516,-1.5258,-1.4174,-1.4495,-1.5577,-1.5695,-1.4866,-1.4261,-1.4702,-1.5244,-1.5351,-1.5779,-1.6842,-1.7054,-1.7582,-1.8325,-1.7918,-1.8122,-1.8729,-1.852,-1.7779,-1.6592,-1.5737,-1.5102,-1.4256,-1.1946,-1.0288,-0.9399,-0.6664,-0.3907,-0.2236,-0.1008,-0.0112,0.0679,0.1371,0.161,0.1388,0.1402,0.1537,0.1438,0.1323,0.1213,0.0981,0.0862,0.0246,-0.0492,0.0369,0.1107,0.0985,-0.0123,-0.0863,-0.197,-0.3445,-0.5165,-0.578,-0.8569,-1.0978,-1.3021,-1.4837,-1.7983,-2.1001,-2.2024,-2.3487,-2.5845,-2.7187,-2.7853,-2.9262,-3.2406,-3.5995,-3.7765,-4.2807,-4.944,-5.2553,-5.4692,-5.5121,-5.5228,-5.4202,-5.292,-5.1004,-4.9219,-4.7376,-4.5656,-4.4522,-4.3,-4.1396,-4.0772,-3.9513,5.6012,5.6012,5.6012,5.6012,5.6012,5.6012,5.6012,5.6012,5.5954,5.5567,5.482,5.3682,5.2773,5.1907,5.0782,5.0176,4.9844,4.7898,4.4167,3.896,3.2684,2.8793,2.953,2.5994,1.6795,0.5033,0.484,-0.2579,-1.1181,-1.2276,-1.367,-1.5151,-1.4008,-1.4228,-1.5192,-1.4578,-1.4493,-1.5357,-1.5672,-1.6205,-1.706,-1.7483,-1.801,-1.8653,-1.875,-1.8429,-1.8408,-1.8199,-1.7351,-1.5316,-1.5316,-1.4776,-1.3171,-1.0967,-0.987,-0.9428,-0.7227,-0.5244,-0.4252,-0.2355,-0.1355,-0.1028,-0.0115,0.0347,0.0117,-0.0,-0.0,-0.0363,-0.0362,-0.0609,-0.1228,-0.197,-0.246,-0.2829,-0.2951,-0.2706,-0.1971,-0.2219,-0.2713,-0.2959,-0.4312,-0.5536,-0.6759,-0.8343,-1.04,-1.3278,-1.4955,-1.74,-2.0394,-2.2099,-2.4241,-2.706,-2.7853,-2.8184,-2.987,-3.1805,-3.5251,-3.8447,-4.4125,-4.9775,-5.3148,-5.5004,-5.5357,-5.5183,-5.4135,-5.2638,-5.0789,-4.9007,-4.7357,-4.5698,-4.4169,-4.2461,-4.0887,-4.1056,-4.0374,5.6012,5.6012,5.6012,5.6012,5.6012,5.6012,5.6012,5.6012,5.6012,5.5877,5.539,5.4105,5.3333,5.2917,5.0317,4.8735,4.7886,4.356,3.7763,3.0806,2.4737,1.767,1.4537,1.142,0.6825,0.02,-0.5006,-0.8352,-1.0728,-1.2709,-1.3573,-1.3156,-1.5606,-1.6467,-1.5097,-1.5968,-1.663,-1.6749,-1.6524,-1.673,-1.7378,-1.7806,-1.8338,-1.8862,-1.8952,-1.8094,-1.7252,-1.7252,-1.6505,-1.512,-1.5001,-1.4995,-1.4035,-1.2512,-1.1193,-1.0202,-0.9106,-0.7127,-0.5037,-0.4075,-0.3313,-0.2534,-0.1761,-0.1671,-0.2396,-0.2058,-0.1951,-0.1962,-0.1963,-0.2331,-0.3076,-0.504,-0.5408,-0.5287,-0.5776,-0.5898,-0.5042,-0.4307,-0.4309,-0.5047,-0.6151,-0.7622,-0.8465,-0.9684,-1.1619,-1.366,-1.5306,-1.7049,-1.934,-2.173,-2.4335,-2.7051,-2.8067,-2.8398,-2.9377,-3.194,-3.6037,-3.9129,-4.4385,-4.9454,-5.2867,-5.4606,-5.4702,-5.4483,-5.4002,-5.2358,-5.061,-4.8931,-4.7275,-4.5536,-4.3878,-4.2416,-4.134,-4.1494,-4.0301,5.5505,5.5993,5.6012,5.6012,5.6012,5.6012,5.6012,5.6012,5.6012,5.6012,5.5741,5.4619,5.3904,5.3273,5.0405,4.8748,4.5745,3.7367,2.947,2.2309,1.4837,0.8147,0.4367,0.0194,-0.307,-0.5503,-0.752,-0.946,-1.0777,-1.2186,-1.3166,-1.2856,-1.531,-1.5749,-1.5435,-1.6086,-1.6418,-1.6749,-1.6955,-1.7272,-1.7799,-1.8331,-1.8855,-1.9376,-1.9472,-1.8826,-1.7351,-1.7569,-1.6723,-1.5446,-1.4911,-1.4691,-1.404,-1.2852,-1.1755,-1.1311,-1.0398,-0.921,-0.7241,-0.5735,-0.477,-0.422,-0.3343,-0.3619,-0.4132,-0.4295,-0.4185,-0.4189,-0.4432,-0.48,-0.5287,-0.7121,-0.7858,-0.7497,-0.8227,-0.8349,-0.7008,-0.5784,-0.5293,-0.5906,-0.6644,-0.7983,-0.9198,-1.0418,-1.1872,-1.343,-1.3913,-1.5779,-1.8757,-2.1149,-2.3653,-2.5918,-2.7501,-2.8485,-2.9187,-3.2151,-3.709,-4.021,-4.3646,-4.8293,-5.2178,-5.3172,-5.3725,-5.3754,-5.3867,-5.2302,-5.0581,-4.8907,-4.7131,-4.5547,-4.3988,-4.2655,-4.1397,-4.0527,-3.9024,5.5002,5.6012,5.6012,5.6012,5.6012,5.6012,5.6012,5.5975,5.5807,5.5615,5.548,5.4747,5.3338,5.2445,5.0078,4.8113,4.1632,3.1904,2.1931,1.4624,0.6757,0.1927,-0.0971,-0.4559,-0.7753,-1.0237,-0.9464,-0.9684,-1.057,-1.1669,-1.2861,-1.3717,-1.3835,-1.4702,-1.5666,-1.5779,-1.5891,-1.653,-1.7067,-1.7589,-1.822,-1.8848,-1.9583,-1.999,-2.0205,-1.9569,-1.8304,-1.8101,-1.7575,-1.5992,-1.4595,-1.4072,-1.3557,-1.2356,-1.1836,-1.2297,-1.1342,-1.0273,-0.9295,-0.7907,-0.6737,-0.6478,-0.5548,-0.5223,-0.6006,-0.6143,-0.6147,-0.6394,-0.6759,-0.7248,-0.7858,-0.9195,-0.9566,-0.9204,-1.0058,-1.0058,-0.8601,-0.7255,-0.6641,-0.6399,-0.7011,-0.8108,-0.9204,-1.0422,-1.1752,-1.296,-1.3444,-1.4728,-1.772,-2.0352,-2.2735,-2.5023,-2.6617,-2.9106,-3.0109,-3.1794,-3.6819,-4.0862,-4.3718,-4.7148,-5.1098,-5.2562,-5.3384,-5.3926,-5.3618,-5.1977,-5.0152,-4.8179,-4.6555,-4.5354,-4.3902,-4.2353,-4.0929,-3.953,-3.79,5.5215,5.6012,5.6012,5.6012,5.5975,5.5975,5.5806,5.5826,5.4828,5.4592,5.4267,5.262,5.1396,5.0071,4.7927,4.1578,3.2675,2.3417,1.5398,0.8676,0.2638,-0.0442,-0.4668,-0.6015,-0.8033,-1.0135,-1.0464,-1.057,-1.057,-1.1559,-1.2866,-1.3516,-1.4272,-1.5024,-1.5672,-1.6105,-1.653,-1.6736,-1.7384,-1.8016,-1.8681,-1.9308,-2.0074,-2.0488,-2.0711,-1.9955,-1.8883,-1.8331,-1.7575,-1.5879,-1.383,-1.4261,-1.4839,-1.3116,-1.2306,-1.2528,-1.1811,-1.0926,-1.0819,-1.0597,-0.9859,-0.9334,-0.8576,-0.8041,-0.7845,-0.7612,-0.7734,-0.8099,-0.8708,-0.9316,-0.9438,-1.0774,-1.1144,-1.0902,-1.1144,-1.1394,-1.0304,-0.9207,-0.8233,-0.7622,-0.7869,-0.7991,-0.9211,-1.0058,-1.1148,-1.2234,-1.296,-1.448,-1.7131,-1.9428,-2.1496,-2.3669,-2.5845,-2.869,-3.1302,-3.3012,-3.616,-4.085,-4.3956,-4.6174,-4.9585,-5.1961,-5.3148,-5.3348,-5.2803,-5.1353,-4.9451,-4.755,-4.584,-4.4422,-4.3175,-4.199,-4.0343,-3.8849,-3.8057,5.5111,5.588,5.4978,5.4555,5.4441,5.385,5.3409,5.3067,5.2856,5.2586,5.178,5.0337,4.9034,4.7257,4.3157,3.5466,2.6197,1.791,1.0745,0.4501,-0.0221,-0.3111,-0.6589,-0.6924,-0.8251,-0.9798,-1.0903,-1.1463,-1.0903,-1.2219,-1.33,-1.4261,-1.4911,-1.5458,-1.6099,-1.653,-1.6967,-1.7173,-1.7714,-1.8422,-1.9281,-2.0031,-2.0713,-2.1474,-2.1482,-2.1065,-2.0649,-1.9542,-1.8759,-1.7229,-1.5511,-1.5687,-1.5678,-1.4585,-1.2824,-1.3393,-1.2574,-1.1927,-1.2173,-1.2068,-1.1446,-1.1565,-1.0688,-1.0009,-0.9664,-0.9549,-0.9434,-1.0044,-1.0162,-1.077,-1.1016,-1.223,-1.2354,-1.1993,-1.2359,-1.2118,-1.1152,-1.0429,-0.9576,-0.8723,-0.8238,-0.836,-0.897,-0.9819,-1.0425,-1.139,-1.2354,-1.4227,-1.6546,-1.8404,-2.0259,-2.2317,-2.4693,-2.7912,-3.0729,-3.2746,-3.5968,-4.0576,-4.3639,-4.5883,-4.7692,-4.9907,-5.1484,-5.2291,-5.1398,-5.0096,-4.941,-4.7761,-4.5667,-4.3728,-4.2986,-4.1893,-3.9766,-3.8213,-3.7533,5.4818,5.5303,5.3832,5.2996,5.2507,5.1628,5.0939,5.0404,5.0293,4.9954,4.9265,4.7455,4.5748,4.2763,3.6561,2.9027,2.1512,1.3696,0.7056,0.1989,-0.2783,-0.5592,-0.6624,-0.7741,-0.9106,-0.9619,-1.1052,-1.1854,-1.1787,-1.2659,-1.3948,-1.4589,-1.4922,-1.5827,-1.6825,-1.6876,-1.7051,-1.7649,-1.8194,-1.8978,-1.999,-2.0855,-2.165,-2.2633,-2.2449,-2.2229,-2.1699,-2.0911,-1.9648,-1.8441,-1.7255,-1.6723,-1.6925,-1.501,-1.4038,-1.4573,-1.3558,-1.3278,-1.357,-1.3632,-1.3699,-1.4282,-1.2277,-1.1823,-1.1475,-1.137,-1.1137,-1.1868,-1.2341,-1.2221,-1.259,-1.3439,-1.3439,-1.2964,-1.3084,-1.3204,-1.1993,-1.1027,-1.0425,-0.9454,-0.8601,-0.836,-0.8726,-0.9089,-0.9572,-1.0422,-1.1386,-1.3287,-1.5499,-1.7277,-1.9137,-2.1086,-2.3628,-2.6896,-2.9673,-3.1806,-3.5775,-4.0942,-4.3054,-4.4719,-4.6155,-4.7604,-4.9165,-5.0761,-4.9412,-4.8277,-4.8082,-4.7603,-4.5144,-4.3491,-4.3126,-4.1864,-3.9664,-3.8187,-3.7441,5.4262,5.3532,5.3264,5.2233,5.0651,5.0257,5.0228,4.967,4.7523,4.6669,4.5835,4.3519,4.0441,3.5385,2.7218,2.1378,1.6215,0.9475,0.3027,-0.1356,-0.3942,-0.5996,-0.6848,-0.7198,-0.9178,-1.014,-1.1549,-1.1966,-1.2358,-1.3054,-1.3779,-1.4548,-1.524,-1.5683,-1.7105,-1.7334,-1.7784,-1.84,-1.9206,-2.0004,-2.0879,-2.1754,-2.2217,-2.2465,-2.2577,-2.2553,-2.2196,-2.1707,-2.0635,-1.8809,-1.7622,-1.7316,-1.7216,-1.5515,-1.5384,-1.553,-1.4919,-1.3746,-1.515,-1.5644,-1.6015,-1.6133,-1.5182,-1.4485,-1.3765,-1.2937,-1.259,-1.296,-1.4143,-1.45,-1.4147,-1.4629,-1.451,-1.4038,-1.3564,-1.3569,-1.2844,-1.1269,-1.0547,-0.9572,-0.848,-0.7991,-0.7991,-0.8358,-0.872,-0.9572,-1.0657,-1.244,-1.4336,-1.5992,-1.8015,-2.0085,-2.2099,-2.5277,-2.8271,-3.0408,-3.4792,-4.0463,-4.2409,-4.3618,-4.4764,-4.6123,-4.7822,-4.8654,-4.7411,-4.7202,-4.7726,-4.6703,-4.4363,-4.29,-4.217,-4.1043,-3.9563,-3.8405,-3.7335,5.3622,5.3015,5.0875,4.896,4.7333,4.6629,4.5503,4.4304,4.3479,4.1773,3.9699,3.7523,3.2889,2.6321,2.0325,1.7222,1.2918,0.5454,-0.1275,-0.4965,-0.6446,-0.7257,-0.8335,-0.9154,-1.036,-1.0747,-1.2122,-1.3197,-1.3476,-1.4124,-1.5016,-1.5331,-1.5997,-1.6838,-1.7618,-1.7948,-1.855,-1.9339,-2.0252,-2.1038,-2.1674,-2.2457,-2.3195,-2.3676,-2.3851,-2.3983,-2.3939,-2.3343,-2.2193,-2.0542,-1.9375,-1.8899,-1.8611,-1.7648,-1.6996,-1.8068,-1.7946,-1.7253,-1.6844,-1.675,-1.6985,-1.7103,-1.6509,-1.5784,-1.5644,-1.4826,-1.4826,-1.6569,-1.6492,-1.6273,-1.5688,-1.5693,-1.5337,-1.4748,-1.4043,-1.3324,-1.2844,-1.1635,-1.0422,-0.9326,-0.8355,-0.7622,-0.7133,-0.7255,-0.7622,-0.8108,-0.9079,-1.0517,-1.2547,-1.4455,-1.6715,-1.921,-2.1207,-2.3365,-2.624,-2.8982,-3.3203,-3.8127,-4.1612,-4.2699,-4.3539,-4.4875,-4.5979,-4.671,-4.6147,-4.6389,-4.7248,-4.6225,-4.4173,-4.26,-4.1114,-4.01,-3.9019,-3.7952,-3.6764,5.1974,5.0866,4.8031,4.5849,4.4213,4.2937,4.1309,3.9481,3.8833,3.6867,3.3635,3.0504,2.4659,1.8805,1.5494,1.1472,0.7225,0.1552,-0.3916,-0.7808,-0.9185,-0.88,-0.9292,-1.0469,-1.1309,-1.0996,-1.3254,-1.4269,-1.4948,-1.5607,-1.6368,-1.6476,-1.6938,-1.7824,-1.8557,-1.8918,-1.9299,-2.0337,-2.1294,-2.1942,-2.2268,-2.3165,-2.3913,-2.4511,-2.511,-2.5638,-2.5954,-2.529,-2.3767,-2.1939,-2.1027,-2.0303,-1.9605,-1.8717,-1.8601,-1.9483,-1.9828,-1.9936,-1.9047,-1.837,-1.7449,-1.7097,-1.7085,-1.695,-1.6932,-1.6121,-1.5891,-1.7977,-1.8119,-1.767,-1.7325,-1.6509,-1.6042,-1.5219,-1.4396,-1.332,-1.2238,-1.1027,-0.9933,-0.8839,-0.7742,-0.6764,-0.6399,-0.6276,-0.6521,-0.6764,-0.7614,-0.883,-1.0989,-1.3498,-1.588,-1.85,-1.9523,-2.182,-2.4963,-2.8177,-3.2374,-3.6171,-3.9615,-4.2032,-4.308,-4.2769,-4.2829,-4.3456,-4.4269,-4.438,-4.4599,-4.4429,-4.4113,-4.2651,-4.1142,-3.9678,-3.8545,-3.7481,-3.5974,4.8539,4.5552,4.508,4.3847,4.2195,4.0605,3.9248,3.7286,3.4408,3.2231,2.9203,2.3428,1.9119,1.5609,0.94,0.3518,-0.2081,-0.3256,-0.5765,-0.7765,-0.8645,-0.9137,-1.0005,-1.1118,-1.2229,-1.2944,-1.4468,-1.5552,-1.6323,-1.7163,-1.7303,-1.6985,-1.7728,-1.848,-1.9255,-1.9794,-2.0351,-2.1279,-2.2099,-2.2469,-2.2839,-2.3472,-2.4216,-2.4464,-2.4952,-2.5445,-2.5482,-2.5381,-2.4447,-2.2489,-2.2307,-2.1528,-2.0562,-2.0146,-2.0516,-2.1229,-2.1632,-2.1632,-2.0873,-2.0329,-1.9428,-1.8493,-1.8125,-1.8216,-1.81,-1.7977,-1.7873,-1.8125,-1.9067,-1.8732,-1.8033,-1.7208,-1.6626,-1.5688,-1.4505,-1.2831,-1.1627,-1.0415,-0.9323,-0.8227,-0.725,-0.6029,-0.5542,-0.5419,-0.5663,-0.6029,-0.6759,-0.7853,-1.0974,-1.348,-1.5628,-1.7541,-1.804,-2.0237,-2.3998,-2.7323,-3.0167,-3.4576,-3.8824,-4.123,-4.3024,-4.2151,-4.0203,-4.1353,-4.2262,-4.2106,-4.243,-4.3537,-4.3777,-4.2567,-4.1139,-3.9672,-3.8185,-3.6913,-3.5005,3.8762,3.7437,3.5319,3.6207,3.9034,3.7793,3.5681,3.292,2.9982,2.6055,2.1822,1.6756,1.3885,1.0587,0.2429,-0.1717,-0.2333,-0.5262,-0.7435,-0.9131,-0.982,-1.0281,-1.1156,-1.2226,-1.2985,-1.3994,-1.544,-1.6397,-1.6862,-1.8071,-1.8558,-1.8574,-1.8717,-1.9394,-2.0074,-2.0757,-2.1427,-2.1934,-2.2456,-2.2683,-2.3103,-2.3917,-2.4573,-2.4657,-2.5603,-2.6123,-2.616,-2.6142,-2.5118,-2.4132,-2.3794,-2.2942,-2.2289,-2.2235,-2.2515,-2.3055,-2.3365,-2.2768,-2.1435,-2.0994,-2.0301,-1.9272,-1.9008,-1.9564,-1.9821,-2.0165,-2.0737,-2.0994,-2.0694,-2.0019,-1.991,-1.8383,-1.6973,-1.6155,-1.4609,-1.2706,-1.102,-0.9805,-0.8221,-0.7006,-0.6151,-0.5172,-0.4807,-0.4439,-0.4807,-0.5172,-0.6025,-0.7235,-1.0116,-1.2631,-1.4538,-1.634,-1.6956,-1.8616,-2.2209,-2.5074,-2.7767,-3.284,-3.802,-4.0679,-4.2564,-3.9409,-3.8121,-3.9322,-4.0278,-4.0259,-4.1199,-4.3288,-4.3457,-4.2088,-4.0865,-3.9659,-3.8043,-3.6458,-3.4423,3.0158,3.1663,2.8171,2.9563,3.3995,3.3087,3.0637,2.7505,2.5094,2.0684,1.4534,1.1491,0.8851,0.4901,-0.1348,-0.5423,-0.4179,-0.6145,-0.8729,-0.994,-1.0528,-1.1382,-1.2702,-1.3889,-1.4708,-1.5316,-1.6279,-1.7361,-1.759,-1.8765,-1.9183,-1.9401,-1.9673,-2.0235,-2.0938,-2.1653,-2.2237,-2.2456,-2.2683,-2.2909,-2.3352,-2.4223,-2.4982,-2.5194,-2.6273,-2.6707,-2.6689,-2.667,-2.6127,-2.5142,-2.4633,-2.4531,-2.4317,-2.4214,-2.4326,-2.4429,-2.4268,-2.3475,-2.1895,-2.028,-2.0623,-2.053,-2.1072,-2.2099,-2.2678,-2.2461,-2.2919,-2.2934,-2.2305,-2.1653,-2.1196,-1.8971,-1.756,-1.6621,-1.4381,-1.2354,-1.0653,-0.9195,-0.7245,-0.5661,-0.4926,-0.4438,-0.4316,-0.4071,-0.4318,-0.4561,-0.4805,-0.6141,-0.8551,-1.0831,-1.2512,-1.4306,-1.5869,-1.7996,-2.043,-2.3132,-2.648,-3.2433,-3.7226,-4.0865,-4.1632,-3.8667,-3.7112,-3.833,-3.8912,-3.8659,-3.9945,-4.2032,-4.2164,-4.1581,-4.0123,-3.8612,-3.7756,-3.6068,-3.435,2.3881,2.9611,2.5263,2.5013,2.6956,2.6143,2.4173,2.1559,1.9131,1.5332,1.0379,0.7215,0.4031,0.0613,-0.3559,-0.5531,-0.7016,-0.763,-0.897,-1.0183,-1.1261,-1.2221,-1.366,-1.5095,-1.6048,-1.6885,-1.7713,-1.8188,-1.8305,-1.9113,-1.957,-2.0033,-2.0493,-2.1074,-2.1789,-2.2351,-2.2578,-2.2683,-2.3014,-2.3239,-2.3904,-2.4565,-2.5229,-2.578,-2.6707,-2.714,-2.7098,-2.6961,-2.6409,-2.545,-2.5119,-2.4778,-2.4103,-2.388,-2.3751,-2.3669,-2.3137,-2.3365,-2.4114,-2.1178,-2.0965,-2.2484,-2.3151,-2.4061,-2.395,-2.4189,-2.442,-2.4078,-2.2974,-2.232,-2.0938,-1.9087,-1.7917,-1.6621,-1.4381,-1.1989,-1.0165,-0.8587,-0.6759,-0.5172,-0.4439,-0.395,-0.395,-0.395,-0.395,-0.395,-0.395,-0.5167,-0.7342,-0.8666,-1.0233,-1.2631,-1.4543,-1.7505,-1.9726,-2.1602,-2.538,-3.1443,-3.6632,-4.0446,-4.1931,-4.0252,-3.9051,-3.8379,-3.6997,-3.6222,-3.8266,-4.0698,-4.0929,-4.1008,-3.8812,-3.7217,-3.6552,-3.5784,-3.4166,1.3018,1.5237,1.3793,1.3644,1.5134,1.9556,1.922,1.539,1.1455,0.8004,0.526,0.2815,0.0734,-0.2085,-0.5035,-0.7505,-0.8864,-0.923,-0.9947,-1.186,-1.2457,-1.3899,-1.5219,-1.6172,-1.712,-1.7719,-1.8428,-1.8894,-1.9004,-1.9693,-2.0385,-2.0852,-2.1546,-2.2146,-2.226,-2.2585,-2.2901,-2.3672,-2.3568,-2.3464,-2.4462,-2.5221,-2.5771,-2.6091,-2.6957,-2.7387,-2.7286,-2.714,-2.649,-2.5898,-2.5798,-2.5569,-2.5229,-2.5119,-2.5125,-2.4654,-2.4068,-2.3434,-2.3753,-2.2418,-2.2378,-2.3883,-2.5119,-2.5441,-2.4965,-2.5212,-2.5212,-2.4642,-2.3751,-2.3095,-2.207,-1.9183,-1.7554,-1.6733,-1.4599,-1.1607,-0.9556,-0.8099,-0.6519,-0.4928,-0.395,-0.395,-0.395,-0.395,-0.395,-0.4073,-0.4071,-0.4071,-0.5653,-0.6377,-0.7585,-1.0707,-1.3337,-1.654,-1.9225,-2.1805,-2.5568,-3.1437,-3.6449,-4.0575,-4.1148,-4.1271,-3.9624,-3.8225,-3.5846,-3.3924,-3.6737,-3.9286,-4.0587,-4.034,-3.8496,-3.7019,-3.6295,-3.5522,-3.4385,0.3003,0.5468,0.5233,0.5113,0.6422,1.3752,1.3902,0.8437,0.4719,0.2692,0.1471,-0.0368,-0.2698,-0.4909,-0.7373,-0.9101,-1.0197,-1.0668,-1.1503,-1.3412,-1.377,-1.4971,-1.6166,-1.7126,-1.7837,-1.8434,-1.8894,-1.9352,-1.97,-2.05,-2.1089,-2.1789,-2.282,-2.34,-2.34,-2.3721,-2.3784,-2.4445,-2.4223,-2.4223,-2.5,-2.5652,-2.6518,-2.6915,-2.7611,-2.8105,-2.7756,-2.7239,-2.6788,-2.6763,-2.6691,-2.6691,-2.6591,-2.6545,-2.6227,-2.5469,-2.472,-2.3819,-2.358,-2.4141,-2.4284,-2.5305,-2.6236,-2.6345,-2.5981,-2.6218,-2.61,-2.5652,-2.4753,-2.3871,-2.2628,-1.9625,-1.7652,-1.6827,-1.4475,-1.1487,-0.968,-0.8221,-0.6761,-0.5174,-0.395,-0.395,-0.395,-0.395,-0.395,-0.4071,-0.4318,-0.4439,-0.4561,-0.5657,-0.7104,-1.0466,-1.3447,-1.6879,-1.9901,-2.2592,-2.6717,-3.1692,-3.6498,-4.1228,-4.2496,-4.2864,-4.0471,-3.763,-3.4545,-3.3168,-3.5791,-3.7952,-4.004,-4.0432,-3.9,-3.756,-3.6282,-3.5259,-3.4311,-0.5369,0.0611,0.0245,0.0122,0.1466,0.8489,0.7276,0.0243,-0.0122,-0.0368,-0.0612,-0.3297,-0.5616,-0.8221,-0.9798,-1.0517,-1.1261,-1.2213,-1.3172,-1.4123,-1.4728,-1.5924,-1.6885,-1.7726,-1.8428,-1.901,-1.9468,-1.9924,-2.0392,-2.1081,-2.1782,-2.2472,-2.3576,-2.4384,-2.4735,-2.5043,-2.5,-2.5203,-2.5084,-2.5093,-2.5533,-2.6391,-2.7267,-2.798,-2.8886,-2.9001,-2.8724,-2.829,-2.7785,-2.7403,-2.6899,-2.68,-2.6691,-2.6691,-2.5898,-2.5072,-2.4416,-2.3888,-2.3926,-2.4738,-2.5568,-2.6036,-2.6473,-2.6682,-2.6781,-2.6772,-2.6763,-2.6318,-2.5525,-2.4531,-2.3183,-2.063,-1.8203,-1.6345,-1.4247,-1.2093,-1.0407,-0.883,-0.737,-0.5906,-0.4562,-0.4073,-0.395,-0.395,-0.395,-0.4071,-0.4439,-0.5295,-0.5784,-0.6884,-0.8809,-1.2021,-1.499,-1.7817,-2.0786,-2.3997,-2.8291,-3.3313,-3.7977,-4.2255,-4.3421,-4.3689,-4.0505,-3.7107,-3.2961,-3.2122,-3.4176,-3.7108,-4.0407,-4.0078,-3.8814,-3.7469,-3.5928,-3.5174,-3.4213,-0.4983,-0.1658,-0.2132,-0.2133,-0.1777,-0.0355,-0.012,-0.0489,-0.3684,-0.575,-0.5923,-0.7725,-0.8809,-1.0003,-1.0814,-1.1491,-1.2543,-1.3813,-1.4406,-1.5116,-1.5924,-1.6879,-1.7713,-1.8428,-1.901,-1.9468,-1.9924,-2.05,-2.0974,-2.166,-2.2116,-2.2683,-2.4111,-2.5128,-2.578,-2.6427,-2.6291,-2.6063,-2.5945,-2.5954,-2.6391,-2.7257,-2.8116,-2.9051,-2.9517,-2.9662,-2.9671,-2.8805,-2.8404,-2.8426,-2.8349,-2.8155,-2.7413,-2.7394,-2.6779,-2.4642,-2.3986,-2.3608,-2.4003,-2.4323,-2.5058,-2.6281,-2.6573,-2.6582,-2.6791,-2.6999,-2.6989,-2.6527,-2.5744,-2.4642,-2.3175,-2.098,-1.8558,-1.6474,-1.4366,-1.2573,-1.0767,-0.883,-0.737,-0.5786,-0.4441,-0.4073,-0.395,-0.395,-0.395,-0.4073,-0.4561,-0.5661,-0.6759,-0.7856,-1.0375,-1.3584,-1.6266,-1.8962,-2.2704,-2.6108,-3.0375,-3.4842,-3.9714,-4.368,-4.5432,-4.4685,-4.0692,-3.6378,-3.2016,-3.1004,-3.1928,-3.5668,-4.0491,-3.9625,-3.8411,-3.696,-3.5738,-3.4993,-3.3906,-0.7013,-0.4559,-0.4668,-0.4906,-0.5272,-0.6102,-0.5104,-0.4215,-0.6654,-0.8301,-0.9049,-0.9863,-1.0707,-1.1581,-1.2407,-1.3207,-1.377,-1.5483,-1.6324,-1.6543,-1.6885,-1.7713,-1.8538,-1.9004,-1.9468,-1.9924,-2.0507,-2.0974,-2.1554,-2.2116,-2.257,-2.2901,-2.4437,-2.5305,-2.6182,-2.7267,-2.7892,-2.7444,-2.7121,-2.6924,-2.7356,-2.8329,-2.9292,-2.9776,-3.0066,-3.0398,-3.0421,-2.9382,-2.9255,-2.9167,-2.9092,-2.888,-2.8252,-2.7921,-2.7106,-2.5335,-2.4819,-2.4606,-2.4757,-2.481,-2.5361,-2.6009,-2.6509,-2.6582,-2.6691,-2.689,-2.6654,-2.6191,-2.5415,-2.4403,-2.2822,-2.1108,-1.8925,-1.6733,-1.4713,-1.2813,-1.0884,-0.8952,-0.7126,-0.5419,-0.4562,-0.4073,-0.395,-0.395,-0.4073,-0.4316,-0.5172,-0.6637,-0.7609,-0.8456,-1.1563,-1.5129,-1.7548,-2.0074,-2.42,-2.8579,-3.2765,-3.727,-4.2017,-4.548,-4.7419,-4.3714,-3.7835,-3.408,-3.0807,-3.0563,-3.0809,-3.6188,-4.0229,-3.91,-3.7961,-3.6716,-3.5571,-3.4823,-3.3511,-1.0108,-0.6998,-0.6972,-0.7552,-0.8916,-0.854,-0.8308,-0.8558,-0.832,-0.8894,-0.991,-1.0256,-1.1364,-1.2832,-1.4054,-1.4802,-1.5338,-1.6503,-1.7144,-1.7843,-1.7843,-1.8311,-1.8887,-1.9352,-1.9931,-2.0615,-2.1081,-2.1432,-2.1896,-2.2343,-2.2901,-2.3231,-2.5296,-2.6173,-2.6291,-2.8038,-2.8764,-2.8493,-2.8502,-2.8522,-2.83,-2.9177,-3.0495,-3.0785,-3.1165,-3.1505,-3.0888,-3.0463,-3.0172,-2.9628,-2.9303,-2.9408,-2.8774,-2.8232,-2.7157,-2.6338,-2.5672,-2.56,-2.5554,-2.5609,-2.5718,-2.6169,-2.6362,-2.6527,-2.6691,-2.6791,-2.6554,-2.6091,-2.5305,-2.4309,-2.295,-2.0537,-1.8229,-1.6486,-1.4718,-1.2937,-1.114,-0.9076,-0.6884,-0.5297,-0.4318,-0.395,-0.395,-0.395,-0.4318,-0.4684,-0.5418,-0.6881,-0.8812,-0.9654,-1.2746,-1.6534,-1.9341,-2.2212,-2.6748,-3.0975,-3.5177,-3.9719,-4.4335,-4.7694,-4.9821,-4.3242,-3.4233,-3.0253,-2.6743,-2.8832,-3.0563,-3.51,-3.8209,-3.882,-3.7685,-3.6376,-3.5391,-3.4543,-3.3112,-0.9898,-0.8332,-0.7444,-0.8236,-1.0039,-0.9039,-0.8716,-0.8828,-0.9482,-0.9999,-1.042,-1.1335,-1.2599,-1.4168,-1.5468,-1.5892,-1.5754,-1.6879,-1.6973,-1.7337,-1.7806,-1.8777,-1.9352,-1.9809,-2.0392,-2.0974,-2.1432,-2.1896,-2.2343,-2.2796,-2.3456,-2.4334,-2.5954,-2.6599,-2.7032,-2.8794,-2.9187,-2.9337,-2.986,-3.0276,-3.0337,-3.0203,-3.0899,-3.1902,-3.2711,-3.2711,-3.2398,-3.2398,-3.1902,-3.1187,-3.0785,-3.0047,-2.889,-2.8145,-2.7365,-2.6615,-2.6151,-2.6078,-2.6078,-2.6059,-2.6105,-2.6307,-2.6499,-2.6545,-2.6582,-2.6691,-2.6455,-2.599,-2.5203,-2.4086,-2.2725,-2.0193,-1.7769,-1.625,-1.4604,-1.3062,-1.1394,-0.8958,-0.6639,-0.5419,-0.4195,-0.395,-0.395,-0.4071,-0.4562,-0.5051,-0.554,-0.6996,-1.0002,-1.1675,-1.4267,-1.789,-2.1294,-2.4642,-2.9034,-3.3635,-3.7853,-4.1836,-4.6281,-4.9345,-5.1593,-4.3463,-3.4399,-2.6604,-2.2617,-2.5631,-2.8786,-3.1765,-3.451,-3.6839,-3.7629,-3.6433,-3.5174,-3.4213,-3.2577,-1.1855,-1.0433,-0.9237,-0.9464,-1.0343,-0.9798,-0.9585,-0.9915,-1.0781,-1.1494,-1.2137,-1.2922,-1.3957,-1.5263,-1.6348,-1.6664,-1.6223,-1.7177,-1.759,-1.7633,-1.8008,-1.9107,-1.97,-2.0263,-2.0852,-2.1318,-2.1888,-2.2343,-2.2796,-2.3239,-2.4016,-2.5093,-2.6273,-2.7346,-2.8096,-2.8956,-2.9911,-3.0182,-3.1111,-3.1803,-3.2286,-3.2454,-3.2196,-3.33,-3.3499,-3.3697,-3.3598,-3.3499,-3.2812,-3.2117,-3.1516,-3.037,-2.9313,-2.8678,-2.7843,-2.6943,-2.6399,-2.6261,-2.6289,-2.6298,-2.6233,-2.638,-2.6554,-2.6573,-2.6582,-2.6582,-2.6136,-2.5551,-2.4309,-2.3191,-2.207,-1.9883,-1.7904,-1.6149,-1.4966,-1.3536,-1.0767,-0.7736,-0.5906,-0.4562,-0.395,-0.395,-0.395,-0.395,-0.4439,-0.5663,-0.6151,-0.8085,-1.0842,-1.4025,-1.6611,-1.9742,-2.3409,-2.6959,-3.0871,-3.571,-4.068,-4.4541,-4.8215,-4.7136,-4.6637,-4.133,-3.4525,-2.6259,-2.203,-2.4065,-2.717,-3.0535,-3.3435,-3.6159,-3.6696,-3.6628,-3.5259,-3.3895,-3.2465,-1.4369,-1.2526,-1.1324,-1.1,-1.1109,-1.1,-1.0891,-1.1105,-1.2191,-1.3181,-1.4072,-1.4396,-1.5275,-1.6054,-1.663,-1.69,-1.7241,-1.7584,-1.8002,-1.8447,-1.8886,-1.9543,-2.0148,-2.0601,-2.1074,-2.1653,-2.2343,-2.2683,-2.2901,-2.3672,-2.465,-2.5617,-2.6698,-2.7776,-2.8599,-2.9849,-3.1122,-3.1111,-3.1836,-3.3066,-3.3981,-3.469,-3.3993,-3.3784,-3.4276,-3.4775,-3.4385,-3.3895,-3.33,-3.2521,-3.1721,-3.0578,-2.9523,-2.8774,-2.7941,-2.7079,-2.6436,-2.6254,-2.6289,-2.6408,-2.6298,-2.6298,-2.6472,-2.6564,-2.6582,-2.6364,-2.5907,-2.5119,-2.3871,-2.2636,-2.1509,-1.9788,-1.7917,-1.6042,-1.4847,-1.3526,-1.0151,-0.737,-0.6029,-0.4684,-0.4682,-0.4682,-0.4803,-0.4682,-0.5655,-0.6632,-0.7967,-1.0016,-1.2393,-1.5882,-1.903,-2.275,-2.6693,-3.0125,-3.3173,-3.7917,-4.3044,-4.6497,-4.9048,-4.553,-4.2117,-3.9065,-3.3803,-2.5395,-2.2738,-2.4013,-2.6988,-3.0676,-3.3273,-3.5681,-3.6621,-3.6764,-3.5379,-3.3993,-3.2555,-1.4272,-1.3732,-1.2526,-1.2635,-1.329,-1.2526,-1.2091,-1.2299,-1.3604,-1.4363,-1.4798,-1.5773,-1.6361,-1.631,-1.6869,-1.7117,-1.7289,-1.7802,-1.8398,-1.8864,-1.928,-1.9855,-2.0493,-2.0838,-2.1296,-2.1987,-2.2675,-2.2901,-2.3664,-2.4539,-2.5516,-2.6698,-2.7346,-2.8542,-2.9953,-3.0774,-3.0639,-3.1246,-3.2039,-3.3066,-3.3476,-3.408,-3.4471,-3.486,-3.5726,-3.5642,-3.5259,-3.4557,-3.3685,-3.2812,-3.2026,-3.0877,-2.9838,-2.8986,-2.8262,-2.752,-2.6781,-2.6617,-2.6779,-2.6717,-2.6723,-2.6643,-2.6682,-2.6473,-2.6482,-2.6364,-2.5907,-2.5459,-2.4326,-2.3087,-2.1729,-1.9543,-1.7566,-1.5688,-1.4262,-1.2457,-0.9802,-0.8955,-0.8099,-0.7606,-0.7477,-0.7718,-0.808,-0.8554,-0.9741,-1.0594,-1.1079,-1.2998,-1.5231,-1.8352,-2.1429,-2.5531,-2.9674,-3.2779,-3.5773,-4.0379,-4.5101,-4.8467,-5.0081,-4.7216,-4.3706,-3.9335,-3.3054,-2.3952,-2.2237,-2.3569,-2.6873,-2.9806,-3.2929,-3.5158,-3.6736,-3.6993,-3.5642,-3.3993,-3.2364]},{"header":{"parameterUnit":"m.s-1","parameterCategory":1,"la1":31.0,"la2":29.5877,"lo1":-88.7671,"lo2":-86.6584,"dy":0.0162,"dx":0.0185,"nx":115,"ny":88,"refTime":"2024-09-10T12:00:00:Z","depth":0,"parameterNumber":3,"parameterNumberName":"V-component_of_WINDS"},"data":[0.0,0.0,0.0,0.0,0.0,0.0,0.0,0.0,0.0,0.0,0.0,0.0,0.0,0.0,0.0,0.0,0.0,0.0,0.0,0.0,0.0,0.0,0.0,0.0,0.0,0.0,0.0,0.0,0.0,0.0,0.0,0.0,0.0,0.0,0.0,0.0,0.0,0.0,0.0,0.0,0.0,0.0,0.0,0.0,0.0,0.0,0.0,0.0,0.0,0.0,0.0,0.0,0.0,0.0,0.0,0.0,0.0,0.0,0.0,0.0,0.0,0.0,0.0,0.0,0.0,0.0,0.0,0.0,0.0,0.0,0.0,0.0,0.0,0.0,0.0,0.0,0.0,0.0,0.0,0.0,0.0,0.0,0.0,0.0,0.0,0.0,0.0,0.0,0.0,0.0,0.0,0.0,0.0,0.0,0.0,0.0,0.0,0.0,0.0,0.0,0.0,0.0,0.0,0.0,0.0,0.0,0.0,0.0,0.0,0.0,0.0,0.0,0.0,0.0,0.0,0.0,0.0,0.0,0.0,0.0,0.0,0.0,0.0,0.0,0.0,0.0,0.0,0.0,0.0,0.0,0.0,0.0,0.0,0.0,0.0,0.0,0.0,0.0,0.0,0.0,0.0,0.0,0.0,0.0,0.0,0.0,0.0,0.0,0.0,0.0,0.0,0.0,0.0,0.0,0.0,0.0,0.0,0.0,0.0,0.0,0.0,0.0,0.0,0.0,0.0,0.0,0.0,0.0,0.0,0.0,0.0,0.0,0.0,0.0,0.0,0.0,0.0,0.0,0.0,0.0,0.0,0.0,0.0,0.0,0.0,0.0,0.0,0.0,0.0,0.0,0.0,0.0,0.0,0.0,0.0,0.0,0.0,0.0,0.0,0.0,0.0,0.0,0.0,0.0,0.0,0.0,0.0,0.0,0.0,0.0,0.0,0.0,0.0,0.0,0.0,0.0,0.0,0.0,0.0,0.0,0.0,0.0,0.0,0.0,0.0,0.0,0.0,0.0,0.0,0.0,0.0,0.0,0.0,0.0,0.0,0.0,0.0,0.0,0.0,0.0,0.0,0.0,0.0,0.0,0.0,0.0,0.0,0.0,0.0,0.0,0.0,0.0,0.0,0.0,0.0,0.0,0.0,0.0,0.0,0.0,0.0,0.0,0.0,0.0,0.0,0.0,0.0,0.0,0.0,0.0,0.0,0.0,0.0,0.0,0.0,0.0,0.0,0.0,0.0,0.0,0.0,0.0,0.0,0.0,0.0,0.0,0.0,0.0,0.0,0.0,0.0,0.0,0.0,0.0,0.0,0.0,0.0,0.0,0.0,0.0,0.0,0.0,0.0,0.0,0.0,0.0,0.0,0.0,0.0,0.0,0.0,0.0,0.0,0.0,0.0,0.0,0.0,0.0,0.0,0.0,0.0,0.0,0.0,0.0,0.0,0.0,0.0,0.0,0.0,0.0,0.0,0.0,0.0,0.0,0.0,0.0,0.0,0.0,0.0,0.0,0.0,0.0,0.0,0.0,0.0,0.0,0.0,0.0,0.0,0.0,0.0,0.0,0.0,0.0,0.0,0.0,0.0,0.0,0.0,0.0,0.0,0.0,0.0,0.0,0.0,0.0,0.0,0.0,0.0,0.0,0.0,0.0,0.0,0.0,0.0,0.0,0.0,0.0,0.0,0.0,0.0,0.0,0.0,0.0,0.0,0.0,0.0,0.0,0.0,0.0,0.0,0.0,0.0,0.0,0.0,0.0,0.0,0.0,0.0,0.0,0.0,0.0,0.0,0.0,0.0,0.0,0.0,0.0,0.0,0.0,0.0,0.0,0.0,0.0,0.0,0.0,0.0,0.0,0.0,0.0,0.0,0.0,0.0,0.0,0.0,0.0,0.0,0.0,0.0,0.0,0.0,0.0,0.0,0.0,0.0,0.0,0.0,0.0,0.0,0.0,0.0,0.0,0.0,0.0,0.0,0.0,0.0,0.0,0.0,0.0,0.0,0.0,0.0,0.0,0.0,0.0,0.0,0.0,0.0,0.0,0.0,0.0,0.0,0.0,0.0,0.0,0.0,0.0,0.0,0.0,0.0,0.0,0.0,0.0,0.0,0.0,0.0,0.0,0.0,0.0,0.0,0.0,0.0,0.0,0.0,0.0,0.0,0.0,0.0,0.0,0.0,0.0,0.0,0.0,0.0,0.0,0.0,0.0,0.0,0.0,0.0,0.0,0.0,0.0,0.0,0.0,0.0,0.0,0.0,0.0,0.0,0.0,0.0,0.0,0.0,0.0,0.0,0.0,0.0,0.0,0.0,0.0,0.0,0.0,0.0,0.0,0.0,0.0,0.0,0.0,0.0,0.0,0.0,0.0,0.0,0.0,0.0,0.0,0.0,0.0,0.0,0.0,0.0,0.0,0.0,0.0,0.0,0.0,0.0,0.0,0.0,0.0,0.0,0.0,0.0,0.0,0.0,0.0,0.0,0.0,0.0,0.0,0.0,0.0,0.0,0.0,0.0,0.0,0.0,0.0,0.0,0.0,0.0,0.0,0.0,0.0,0.0,0.0,0.0,0.0,0.0,0.0,0.0,0.0,0.0,0.0,0.0,0.0,0.0,0.0,0.0,0.0,0.0,0.0,0.0,0.0,0.0,0.0,0.0,0.0,0.0,0.0,0.0,0.0,0.0,0.0,0.0,0.0,0.0,0.0,0.0,0.0,0.0,0.0,0.0,0.0,0.0,0.0,0.0,0.0,0.0,0.0,0.0,0.0,0.0,0.0,0.0,0.0,0.0,0.0,0.0,0.0,0.0,0.0,0.0,0.0,0.0,0.0,0.0,0.0,0.0,0.0,0.0,0.0,0.0,0.0,0.0,0.0,0.0,0.0,0.0,0.0,0.0,0.0,0.0,0.0,0.0,0.0,0.0,0.0,0.0,0.0,0.0,0.0,0.0,0.0,0.0,0.0,0.0,0.0,0.0,0.0,0.0,0.0,0.0,0.0,0.0,0.0,0.0,0.0,0.0,0.0,0.0,0.0,0.0,0.0,0.0,0.0,0.0,0.0,0.0,0.0,0.0,0.0,0.0,0.0,0.0,0.0,0.0,0.0,0.0,0.0,0.0,0.0,0.0,0.0,0.0,0.0,0.0,0.0,0.0,0.0,0.0,0.0,0.0,0.0,0.0,0.0,0.0,0.0,0.0,0.0,0.0,0.0,0.0,0.0,0.0,0.0,0.0,0.0,0.0,0.0,0.0,0.0,0.0,0.0,0.0,0.0,0.0,0.0,0.0,0.0,0.0,0.0,0.0,0.0,0.0,0.0,0.0,0.0,0.0,0.0,0.0,0.0,0.0,0.0,0.0,0.0,0.0,0.0,0.0,0.0,0.0,0.0,0.0,0.0,0.0,0.0,0.0,0.0,0.0,0.0,0.0,0.0,0.0,0.0,0.0,0.0,0.0,0.0,0.0,0.0,0.0,0.0,0.0,0.0,0.0,0.0,0.0,0.0,0.0,0.0,0.0,0.0,0.0,0.0,0.0,0.0,0.0,0.0,0.0,0.0,0.0,0.0,0.0,0.0,0.0,0.0,0.0,0.0,0.0,0.0,0.0,0.0,0.0,0.0,0.0,0.0,0.0,0.0,0.0,0.0,0.0,0.0,0.0,0.0,0.0,0.0,0.0,0.0,0.0,0.0,0.0,0.0,0.0,0.0,0.0,0.0,0.0,0.0,0.0,0.0,0.0,0.0,0.0,0.0,0.0,0.0,0.0,0.0,0.0,0.0,0.0,0.0,0.0,0.0,0.0,0.0,0.0,0.0,0.0,0.0,0.0,0.0,0.0,0.0,0.0,0.0,0.0,0.0,0.0,0.0,0.0,0.0,0.0,0.0,0.0,0.0,0.0,0.0,0.0,0.0,0.0,0.0,0.0,0.0,0.0,0.0,0.0,0.0,0.0,0.0,0.0,0.0,0.0,0.0,0.0,0.0,0.0,0.0,0.0,0.0,0.0,0.0,0.0,0.0,0.0,0.0,0.0,0.0,0.0,0.0,0.0,0.0,0.0,0.0,0.0,0.0,0.0,0.0,0.0,0.0,0.0,0.0,0.0,0.0,0.0,0.0,0.0,0.0,0.0,0.0,0.0,0.0,0.0,0.0,0.0,0.0,0.0,0.0,0.0,0.0,0.0,0.0,0.0,0.0,0.0,0.0,0.0,0.0,0.0,0.0,0.0,0.0,0.0,0.0,0.0,0.0,0.0,0.0,0.0,0.0,0.0,0.0,0.0,0.0,0.4121,0.0,0.0,0.0,0.0,0.0,0.0,0.0,0.0,0.0,0.0,0.0,0.0,0.0,0.0,0.0,0.0,0.0,0.0,0.0,0.0,0.0,0.0,0.0,0.0,0.0,0.0,0.0,0.0,0.0,0.0,0.0,0.0,0.0,0.0,0.0,0.0,0.0,0.0,0.0,0.0,0.0,0.0,0.0,0.0,0.0,0.0,0.0,0.0,0.0,0.0,0.0,0.0,0.0,0.0,0.0,0.0,0.0,0.0,0.0,0.0,0.0,0.0,0.0,0.0,0.0,0.0,0.0,0.0,0.0,0.0,0.0,0.0,0.0,0.0,0.0,0.0,0.0,0.0,0.0,0.0,0.0,0.0,0.0,0.0,0.0,0.0,0.0,0.0,0.0,0.0,0.0,0.0,0.0,0.0,0.0,0.0,0.0,0.0,0.0,0.0,0.0,0.0,0.0,0.0,0.0,0.0,0.0,0.0,0.0,0.0,-0.5394,-0.444,-0.1815,0.0469,0.2321,0.0,0.0,0.0,0.0,0.0,0.0,0.0,0.0,0.0,0.0,0.0,0.0,0.0,0.0,0.0,0.0,0.0,0.0,0.0,0.0,0.0,0.0,0.0,0.0,0.0,0.0,0.0,0.0,0.0,0.0,0.0,0.0,0.0,0.0,0.0,0.0,0.0,0.0,0.0,0.0,0.0,0.0,0.0,0.0,0.0,0.0,0.0,0.0,0.0,0.0,0.0,0.0,0.0,0.0,0.0,0.0,0.0,0.0,0.0,0.0,0.0,0.0,0.0,0.0,0.0,0.0,0.0,0.0,0.0,0.0,0.0,0.0,0.0,0.0,0.0,0.0,0.0,0.0,0.0,0.0,0.0,0.0,0.0,0.0,0.0,0.0,0.0,0.0,0.0,0.0,0.0,0.0,0.0,0.0,0.0,0.0,0.0,0.0,0.0,0.0,0.0,0.0,0.0,0.0,0.0,0.0,0.0,0.0,0.0,0.0,0.0,0.0,-0.3948,-0.1239,0.08,0.0,0.0,0.0,0.0,0.0,0.0,0.0,0.0,0.0,0.0,0.0,0.0,0.0,0.0,0.0,0.0,0.0,0.0,0.0,0.0,0.0,0.0,0.0,0.0,0.0,0.0,0.0,0.0,0.0,0.0,0.0,0.0,0.0,0.0,0.0,0.0,0.0,0.0,0.0,0.0,0.0,0.0,0.0,0.0,0.0,0.0,0.0,0.0,0.0,0.0,0.0,0.0,0.0,0.0,0.0,0.0,0.0,0.0,0.0,0.0,0.0,0.0,0.0,0.0,0.0,0.0,0.0,0.0,0.0,0.0,0.0,0.0,0.0,0.0,0.0,0.0,0.0,0.0,0.0,0.0,0.0,0.0,0.0,0.0,0.0,0.0,0.0,0.0,0.0,0.0,0.0,0.0,0.0,0.0,0.0,0.0,0.0,0.0,0.0,0.0,0.0,0.0,0.0,0.0,0.0,0.0,0.0,0.0,0.0,0.0,-0.9357,-0.9298,-0.8139,0.0,0.0531,0.0,0.0,0.0,0.0,0.0,0.0,0.0,0.0,0.0,0.0,0.0,0.0,0.0,0.0,0.0,0.0,0.0,0.0,0.0,0.0,0.0,0.0,0.0,0.0,0.0,0.0,0.0,0.0,0.0,0.0,0.0,0.0,0.0,0.0,0.0,0.0,0.0,0.0,0.0,0.0,0.0,0.0,0.0,0.0,0.0,0.0,0.0,0.0,0.0,0.0,0.0,0.0,0.0,0.0,0.0,0.0,0.0,0.0,0.0,0.0,0.0,0.0,0.0,0.0,0.0,0.0,0.0,0.0,0.0,0.0,0.0,0.0,0.0,0.0,0.0,0.0,0.0,0.0,0.0,0.0,0.0,0.0,0.0,0.0,0.0,0.0,0.0,0.0,0.0,0.0,0.0,0.0,0.0,0.0,0.0,0.0,0.0,0.0,0.0,0.0,0.0,0.0,0.0,0.0,0.0,0.0,0.0,0.0,0.0,0.0,-1.0977,-1.1025,-0.756,-0.3836,0.0,0.0,0.0,0.0,0.0,0.0,0.0,0.0,0.0,0.0,0.0,0.0,0.0,0.0,0.0,0.0,0.0,0.0,0.0,0.0,0.0,0.0,0.0,0.0,0.0,0.0,0.0,0.0,0.0,0.0,0.0,0.0,0.0,0.0,0.0,0.0,0.0,0.0,0.0,0.0,0.0,0.0,0.0,0.0,0.0,0.0,0.0,0.0,0.0,0.0,0.0,0.0,0.0,0.0,0.0,0.0,0.0,0.0,0.0,0.0,0.0,0.0,0.0,0.0,0.0,0.0,0.0,0.0,0.0,0.0,0.0,0.0,0.0,0.0,0.0,0.0,0.0,0.0,0.0,0.0,0.0,0.0,0.0,0.0,0.0,0.0,0.0,0.0,0.0,0.0,0.0,0.0,0.0,0.0,0.0,0.0,0.0,0.0,0.0,0.0,0.0,0.0,0.0,0.0,0.0,0.0,0.0,0.0,0.0,0.0,-1.1576,-1.2234,-1.2466,-0.6042,-0.2021,-0.1273,0.0,0.0,0.0,0.0,0.0,0.0,0.0,0.0,0.0,0.0,0.0,0.0,0.0,0.0,0.0,0.0,0.0,0.0,0.0,0.0,0.0,0.0,0.0,0.0,0.0,0.0,0.0,0.0,0.0,0.0,0.0,0.0,0.0,0.0,0.0,0.0,0.0,0.0,0.0,0.0,0.0,0.0,0.0,0.0,0.0,0.0,0.0,0.0,0.0,0.0,0.0,0.0,0.0,0.0,0.0,0.0,0.0,0.0,0.0,0.0,0.0,0.0,0.0,0.0,0.0,0.0,0.0,0.0,0.0,0.0,0.0,0.0,0.0,0.0,0.0,0.0,0.0,0.0,0.0,0.0,0.0,0.0,0.0,0.0,0.0,0.0,0.0,0.0,0.0,0.0,0.0,0.0,0.0,0.0,0.0,0.0,0.0,0.0,0.0,0.0,0.0,0.0,0.0,0.0,0.0,0.0,0.0,0.0,0.0,-1.2741,-1.297,-1.4607,-0.4359,-0.0397,0.0,0.0,0.0,0.0,0.0,0.0,0.0,0.0,0.0,0.0,0.0,0.0,0.0,0.0,0.0,0.0,0.0,0.0,0.0,0.0,0.0,0.0,0.0,0.0,0.0,0.0,0.0,0.0,0.0,0.0,0.0,0.0,0.0,0.0,0.0,0.0,0.0,0.0,0.0,0.0,0.0,0.0,0.0,0.0,0.0,0.0,0.0,0.0,0.0,0.0,0.0,0.0,0.0,0.0,0.0,0.0,0.0,0.0,0.0,0.0,0.0,0.0,0.0,0.0,0.0,0.0,0.0,0.0,0.0,0.0,0.0,0.0,0.0,0.0,0.0,0.0,0.0,0.0,0.0,0.0,0.0,0.0,0.0,0.0,0.0,0.0,0.0,0.0,0.0,0.0,0.0,0.0,0.0,0.0,0.0,0.0,0.0,0.0,0.0,0.0,0.0,0.0,0.0,0.0,0.0,0.0,0.0,0.0,0.0,-1.1237,-1.176,-1.3427,-1.5891,-0.6933,-0.3107,0.0,0.0,0.0,0.0,0.0,0.0,0.0,0.0,0.0,0.0,0.0,0.0,0.0,0.0,0.0,0.0,0.0,0.0,0.0,0.0,0.0,0.0,0.0,0.0,0.0,0.0,0.0,0.0,0.0,0.0,0.0,0.0,0.0,0.0,0.0,0.0,0.0,0.0,0.0,0.0,0.0,0.0,0.0,0.0,0.0,0.0,0.0,0.0,0.0,0.0,0.0,0.0,0.0,0.0,0.0,0.0,0.0,0.0,0.0,0.0,0.0,0.0,0.0,0.0,0.0,0.0,0.0,0.0,0.0,0.0,0.0,0.0,0.0,0.0,0.0,0.0,0.0,0.0,0.0,0.0,0.0,0.0,0.0,0.0,0.0,0.0,0.0,0.0,0.0,0.0,0.0,0.0,0.0,0.0,0.0,0.0,0.0,0.0,0.0,0.0,0.0,0.0,0.0,0.0,0.0,0.0,0.0,0.0,0.0,-1.1149,0.0,-1.4497,0.0,-0.8723,-0.4737,0.0,0.0,0.0,0.0,0.0,0.0,0.0,0.0,0.0,0.0,0.0,0.0,0.0,0.0,0.0,0.0,0.0,0.0,0.0,0.0,0.0,0.0,0.0,0.0,0.0,0.0,0.0,0.0,0.0,0.0,0.0,0.0,0.0,0.0,0.0,0.0,0.0,0.0,0.0,0.0,0.0,0.0,0.0,0.0,0.0,0.0,0.0,0.0,0.0,0.0,0.0,0.0,0.0,0.0,0.0,0.0,0.0,0.0,0.0,0.0,0.0,0.0,0.0,0.0,0.0,0.0,0.0,0.0,0.0,0.0,0.0,0.0,0.0,0.0,0.0,0.0,0.0,0.0,0.0,0.0,0.0,0.0,0.0,0.0,0.0,0.0,0.0,0.0,0.0,0.0,0.0,0.0,0.0,0.0,0.0,0.0,0.0,0.0,0.0,0.0,0.0,0.0,0.0,0.0,0.0,0.0,0.0,0.0,-1.1196,-1.4191,-1.585,-1.6064,-1.4695,-0.9296,-0.4957,0.0,0.0,0.0,0.0,0.0,0.0,0.0,0.0,0.0,0.0,0.0,0.0,0.0,0.0,0.0,0.0,0.0,0.0,0.0,0.0,0.0,0.0,0.0,0.0,0.0,0.0,0.0,0.0,0.0,0.0,0.0,0.0,0.0,0.0,0.0,0.0,0.0,0.0,0.0,0.0,0.0,0.0,0.0,0.0,0.0,0.0,0.0,0.0,0.0,0.0,0.0,0.0,0.0,0.0,0.0,0.0,0.0,0.0,0.0,0.0,0.0,0.0,0.0,0.0,0.0,0.0,0.0,0.0,0.0,0.0,0.0,0.0,0.0,0.0,0.0,0.0,0.0,0.0,0.0,0.0,0.0,0.0,0.0,0.0,0.0,0.0,0.0,0.0,0.0,0.0,0.0,0.0,0.0,0.0,0.0,0.0,0.0,0.0,0.0,0.0,0.0,0.0,0.0,0.0,0.0,0.0,0.0,0.0,0.0,-1.2764,-1.4441,-1.5863,-1.6706,-1.0754,-0.7163,0.0,0.0,0.0,0.0,0.0,0.0,0.0,0.0,0.0,0.0,0.0,0.0,0.0,0.0,0.0,0.0,0.0,0.0,0.0,0.0,0.0,0.0,0.0,0.0,0.0,0.0,0.0,0.0,0.0,0.0,0.0,0.0,0.0,0.0,0.0,0.0,0.0,0.0,0.0,0.0,0.0,0.0,0.0,0.0,0.0,0.0,0.0,0.0,0.0,0.0,0.0,0.0,0.0,0.0,0.0,0.0,0.0,0.0,0.0,0.0,0.0,0.0,0.0,0.0,0.0,0.0,0.0,0.0,0.0,0.0,0.0,0.0,0.0,0.0,0.0,0.0,0.0,0.0,0.0,0.0,0.0,0.0,0.0,0.0,0.0,0.0,0.0,0.0,0.0,0.0,0.0,0.0,0.0,0.0,0.0,0.0,0.0,0.0,0.0,0.0,0.0,0.0,0.0,0.0,0.0,0.0,0.0,0.0,0.0,-1.483,-1.6387,-1.7654,-1.8496,-1.4,-1.0296,-0.7561,0.0,0.0,0.0,0.0,0.0,0.0,0.0,0.0,0.0,0.0,0.0,0.0,0.0,0.0,0.0,0.0,0.0,0.0,0.0,0.0,0.0,0.0,0.0,0.0,0.0,0.0,0.0,0.0,0.0,0.0,0.0,0.0,0.0,0.0,0.0,0.0,0.0,0.0,0.0,0.0,0.0,0.0,0.0,0.0,0.0,0.0,0.0,0.0,0.0,0.0,0.0,0.0,0.0,0.0,0.0,0.0,0.0,0.0,0.0,0.0,0.0,0.0,0.0,0.0,0.0,0.0,0.0,0.0,0.0,0.0,0.0,0.0,0.0,0.0,0.0,0.0,0.0,0.0,0.0,0.0,0.0,0.0,0.0,0.0,0.0,0.0,0.0,0.0,0.0,0.0,0.0,0.0,0.0,0.0,0.0,0.0,0.0,0.0,0.0,0.0,0.0,0.0,0.0,0.0,0.0,0.0,0.0,0.0,-1.9556,-2.113,-2.1235,-1.9824,-1.8426,-1.4067,0.0,0.0,0.0,0.0,0.0,0.0,0.0,0.0,0.0,0.0,0.0,0.0,0.0,0.0,0.0,0.0,0.0,0.0,0.0,0.0,0.0,0.0,0.0,0.0,0.0,0.0,0.0,0.0,0.0,0.0,0.0,0.0,0.0,0.0,0.0,0.0,0.0,0.0,0.0,0.0,0.0,0.0,0.0,0.0,0.0,0.0,0.0,0.0,0.0,0.0,0.0,0.0,0.0,0.0,0.0,0.0,0.0,0.0,0.0,0.0,0.0,0.0,0.0,0.0,0.0,0.0,0.0,0.0,0.0,0.0,0.0,0.0,0.0,0.0,0.0,0.0,0.0,0.0,0.0,0.0,0.0,0.0,0.0,0.0,0.0,0.0,0.0,0.0,0.0,0.0,0.0,0.0,0.0,0.0,0.0,0.0,0.0,0.0,0.0,0.0,0.0,0.0,0.0,0.0,0.0,0.0,0.0,0.0,0.0,-2.1931,-2.3907,-2.4533,-2.3676,-1.9879,-1.5624,0.0,0.0,0.0,0.0,0.0,0.0,0.0,0.0,0.0,0.0,0.0,0.0,0.0,0.0,0.0,0.0,0.0,0.0,0.0,0.0,0.0,0.0,0.0,0.0,0.0,0.0,0.0,0.0,0.0,0.0,0.0,0.0,0.0,0.0,0.0,0.0,0.0,0.0,0.0,0.0,0.0,0.0,0.0,0.0,0.0,0.0,0.0,0.0,0.0,0.0,0.0,0.0,0.0,0.0,0.0,0.0,0.0,0.0,0.0,0.0,0.0,0.0,0.0,0.0,0.0,0.0,0.0,0.0,0.0,0.0,0.0,0.0,0.0,0.0,0.0,0.0,0.0,0.0,0.0,0.0,0.0,0.0,0.0,0.0,0.0,0.0,0.0,0.0,0.0,0.0,0.0,0.0,0.0,0.0,0.0,0.0,0.0,0.0,0.0,0.0,0.0,0.0,0.0,0.0,0.0,0.0,0.0,0.0,-2.03,-2.3982,-2.6375,-2.7302,-2.6658,-2.166,-1.6881,0.0,0.0,0.0,0.0,0.0,0.0,0.0,0.0,0.0,0.0,0.0,0.0,0.0,0.0,0.0,0.0,0.0,0.0,0.0,0.0,0.0,0.0,0.0,0.0,0.0,0.0,0.0,0.0,0.0,0.0,0.0,0.0,0.0,0.0,0.0,0.0,0.0,0.0,0.0,0.0,0.0,0.0,0.0,0.0,0.0,0.0,0.0,0.0,0.0,0.0,0.0,0.0,0.0,0.0,0.0,0.0,0.0,0.0,0.0,0.0,0.0,0.0,0.0,0.0,0.0,0.0,0.0,0.0,0.0,0.0,0.0,0.0,0.0,0.0,0.0,0.0,0.0,0.0,0.0,0.0,0.0,0.0,0.0,0.0,0.0,0.0,0.0,0.0,0.0,0.0,0.0,0.0,0.0,0.0,0.0,0.0,0.0,0.0,0.0,0.0,0.0,0.0,0.0,0.0,0.0,0.0,0.0,0.0,-2.2697,-2.5615,-2.8341,-2.9379,-2.8516,-2.3417,-1.7869,0.0,0.0,0.0,0.0,0.0,0.0,0.0,0.0,0.0,0.0,0.0,0.0,0.0,0.0,0.0,0.0,0.0,0.0,0.0,0.0,0.0,0.0,0.0,0.0,0.0,0.0,0.0,0.0,0.0,0.0,0.0,0.0,0.0,0.0,0.0,0.0,0.0,0.0,0.0,0.0,0.0,0.0,0.0,0.0,0.0,0.0,0.0,0.0,0.0,0.0,0.0,0.0,0.0,0.0,0.0,0.0,0.0,0.0,0.0,0.0,0.0,0.0,0.0,0.0,0.0,0.0,0.0,0.0,0.0,0.0,0.0,0.0,0.0,0.0,0.0,0.0,0.0,0.0,0.0,0.0,0.0,0.0,0.0,0.0,0.0,0.0,0.0,0.0,0.0,0.0,0.0,0.0,0.0,0.0,0.0,0.0,0.0,0.0,0.0,0.0,0.0,0.0,0.0,0.0,0.0,0.0,0.0,0.0,-2.386,-2.6777,-2.8466,-2.9423,-2.9578,-2.3764,-1.8302,0.0,0.0,0.0,0.0,0.0,0.0,0.0,0.0,0.0,0.0,0.0,0.0,0.0,0.0,0.0,0.0,0.0,0.0,0.0,0.0,0.0,0.0,0.0,0.0,0.0,0.0,0.0,0.0,0.0,0.0,0.0,0.0,0.0,0.0,0.0,0.0,0.0,0.0,0.0,0.0,0.0,0.0,0.0,0.0,0.0,0.0,0.0,0.0,1.6033,0.0,0.0,0.0,0.0,0.0,0.0,0.0,0.0,0.0,0.0,0.0,0.0,0.0,0.0,0.0,0.0,0.0,0.0,0.0,0.0,0.0,0.0,0.0,0.0,0.0,0.0,0.0,0.0,0.0,0.0,0.0,0.0,0.0,0.0,0.0,0.0,0.0,0.0,0.0,0.0,0.0,0.0,0.0,0.0,0.0,0.0,0.0,0.0,0.0,0.0,0.0,0.0,0.0,0.0,0.0,0.0,0.0,0.0,0.0,-2.5223,-2.7735,-2.9162,-2.9638,-2.9007,-2.3606,-1.8425,0.0,0.0,0.0,0.0,0.0,0.0,0.0,0.0,0.0,0.0,0.0,0.0,0.0,0.0,0.0,0.0,0.0,0.0,0.0,0.0,0.0,0.0,0.0,0.0,0.0,0.0,0.0,0.0,0.0,0.0,0.0,0.0,0.0,0.0,0.0,0.0,0.0,0.0,0.0,0.0,0.0,0.0,0.0,0.0,0.0,0.0,0.0,0.0,0.0,0.0,0.0,0.0,0.0,0.0,0.0,0.0,0.0,0.0,0.0,0.0,0.0,0.0,0.0,0.0,0.0,0.0,0.0,0.0,0.0,0.0,0.0,0.0,0.0,0.0,0.0,0.0,0.0,0.0,0.0,0.0,0.0,0.0,0.0,0.0,0.0,0.0,0.0,0.0,0.0,0.0,0.0,0.0,0.0,0.0,0.0,0.0,0.0,0.0,0.0,0.0,0.0,0.0,0.0,0.0,0.0,0.0,0.0,-2.2887,-2.6276,-2.8671,-2.9916,-2.984,-2.8338,-2.3636,-1.8706,-1.3621,0.0,0.0,0.0,0.0,0.0,0.0,0.0,0.0,0.0,0.0,0.0,0.0,0.0,0.0,0.0,0.0,0.0,0.0,0.0,0.0,0.0,0.0,0.0,0.0,0.0,0.0,0.0,0.0,0.0,0.0,0.0,0.0,0.0,0.0,0.0,0.0,0.0,0.0,0.9099,1.4111,0.0,0.0,0.0,0.0,0.0,0.0,0.0,0.0,1.8559,0.0,0.0,0.0,0.0,0.0,0.0,0.0,0.0,0.0,0.0,0.0,0.0,0.0,0.0,0.0,0.0,0.0,0.0,0.0,0.0,0.0,0.0,0.0,0.0,0.0,0.0,0.0,0.0,0.0,0.0,0.0,0.0,0.0,0.0,0.0,0.0,0.0,0.0,0.0,0.0,0.0,0.0,0.0,0.0,0.0,0.0,0.0,0.0,0.0,0.0,0.0,0.0,0.0,0.0,0.0,0.0,-2.2056,-2.3511,-2.6041,-2.9733,-3.0153,-2.9789,-2.8576,-2.4883,-1.9818,-1.3372,0.0,0.0,0.0,0.0,0.0,0.0,0.0,0.0,0.0,0.0,0.0,0.0,0.0,0.0,0.0,0.0,0.0,0.0,0.0,0.0,0.0,0.0,0.0,0.0,0.0,0.0,0.0,0.0,0.0,0.0,0.0,0.0,0.0,0.0,0.0,0.0,0.0,0.0,0.0,1.6506,1.9151,0.0,0.0,0.0,0.0,0.0,0.0,0.0,0.0,1.8867,0.0,0.0,0.0,0.0,0.0,0.0,0.0,0.0,0.0,0.0,0.0,0.0,0.0,0.0,0.0,0.0,0.0,0.0,0.0,0.0,0.0,0.0,0.0,0.0,0.0,0.0,0.0,0.0,0.0,0.0,0.0,0.0,0.0,0.0,0.0,0.0,0.0,0.0,0.0,0.0,0.0,0.0,0.0,0.0,0.0,0.0,0.0,0.0,0.0,0.0,0.0,0.0,0.0,0.0,0.0,-2.1541,-2.5041,-2.8085,-3.0713,-3.0535,-2.9675,-2.8292,-2.5055,-1.9941,0.0,0.0,0.0,0.0,0.0,0.0,0.0,0.0,0.0,0.0,0.0,0.0,0.0,0.0,0.0,0.0,0.0,0.0,0.0,0.0,0.0,0.0,0.0,0.0,0.0,0.0,0.0,0.0,0.0,0.0,0.0,0.0,0.0,0.0,0.0,0.0,0.0,0.0,0.0,0.0,1.3031,1.4918,1.61,0.0,0.0,0.0,0.0,0.0,0.0,2.075,1.9829,0.0,0.0,0.0,0.0,0.0,0.0,0.0,0.0,0.0,0.0,0.0,0.0,0.0,0.0,0.0,0.0,0.0,0.0,0.0,0.0,0.0,0.0,0.0,0.0,0.0,0.0,0.0,0.0,0.0,0.0,0.0,0.0,0.0,0.0,0.0,0.0,0.0,0.0,0.0,0.0,0.0,0.0,0.0,0.0,0.0,0.0,0.0,0.0,0.0,0.0,0.0,0.0,0.0,0.0,0.0,-2.0395,-2.5775,-2.9545,-3.1271,-3.0418,-2.9153,-2.7592,-2.4997,-1.9908,0.0,0.0,0.0,0.0,0.0,0.0,0.0,0.0,0.0,0.0,0.0,0.0,0.0,0.0,0.0,0.0,0.0,0.0,0.0,0.0,0.0,0.0,0.0,0.0,0.0,0.0,0.0,0.0,0.0,0.0,0.0,0.0,0.0,0.0,0.0,0.0,0.0,0.0,0.0,0.0,0.0,0.9907,1.5313,1.4827,0.0,0.0,0.0,0.0,2.2674,2.2357,0.0,0.0,0.0,0.0,0.0,0.0,0.0,0.0,0.0,0.0,0.0,0.0,0.0,0.0,0.0,0.0,0.0,0.0,0.0,0.0,0.0,0.0,0.0,0.0,0.0,0.0,0.0,0.0,0.0,0.0,0.0,0.0,0.0,0.0,0.0,0.0,0.0,0.0,0.0,0.0,0.0,0.0,0.0,0.0,0.0,0.0,0.0,0.0,0.0,0.0,0.0,0.0,0.0,0.0,0.0,0.0,-2.0083,-2.3955,-2.767,-3.0938,-2.9256,-2.7628,-2.6406,-2.5257,-2.0273,0.0,0.0,0.0,0.0,0.0,0.0,0.0,0.0,0.0,0.0,0.0,0.0,0.0,0.0,0.0,0.0,0.0,0.0,0.0,0.0,0.0,0.0,0.0,0.0,0.0,0.0,0.0,0.0,0.0,0.0,0.0,0.0,0.0,0.0,0.0,0.0,0.0,0.0,0.0,0.0,0.0,0.7417,1.6338,1.5858,1.6095,0.0,0.0,2.468,2.5148,2.6468,0.0,0.0,0.0,0.0,0.0,0.0,0.0,0.0,0.0,0.0,0.0,0.0,0.0,0.0,0.0,0.0,0.0,0.0,0.0,0.0,0.0,0.0,0.0,0.0,0.0,0.0,0.0,0.0,0.0,0.0,0.0,0.0,0.0,0.0,0.0,0.0,0.0,0.0,0.0,0.0,0.0,0.0,0.0,0.0,0.0,0.0,0.0,0.0,0.0,0.0,0.0,0.0,0.0,0.0,0.0,-1.8192,-2.1324,-2.6164,-2.9633,-3.1459,-2.984,-2.7795,-2.5393,-2.3839,-1.9499,0.0,0.0,0.0,0.0,0.0,0.0,0.0,0.0,0.0,0.0,0.0,0.0,0.0,0.0,0.0,0.0,0.0,0.0,0.0,0.0,0.0,0.0,0.0,0.0,0.0,0.0,0.0,0.0,0.0,0.0,0.0,0.0,0.0,0.0,0.0,0.0,0.0,0.0,0.0,0.0,0.0,0.0,1.1288,1.2279,0.0,0.0,0.0,2.5304,2.5846,0.0,0.0,0.0,0.0,0.0,0.0,0.0,0.0,0.0,0.0,0.0,0.0,0.0,0.0,0.0,0.0,0.0,0.0,0.0,0.0,0.0,0.0,0.0,0.0,0.0,0.0,0.0,0.0,0.0,0.0,0.0,0.0,0.0,0.0,0.0,0.0,0.0,0.0,0.0,0.0,0.0,0.0,0.0,0.0,0.0,0.0,0.0,0.0,0.0,0.0,0.0,0.0,0.0,0.0,0.0,0.0,0.0,-2.1874,-2.7756,-3.1088,-3.1548,-2.9697,-2.7273,-2.4394,-2.2016,0.0,0.0,0.0,0.0,0.0,0.0,0.0,0.0,0.0,0.0,0.0,0.0,0.0,0.0,0.0,0.0,0.0,0.0,0.0,0.0,0.0,0.0,0.0,0.0,0.0,0.0,0.0,-0.403,0.0,0.0,0.0,0.0,0.0,0.0,0.0,0.0,0.0,0.0,0.0,0.0,0.0,0.0,0.4088,0.6851,0.9382,1.273,0.0,0.0,2.5919,2.7114,2.8156,2.7883,0.0,0.0,0.0,0.0,0.0,0.0,0.0,0.0,0.0,0.0,0.0,0.0,0.0,0.0,0.0,0.0,0.0,0.0,0.0,0.0,0.0,0.0,0.0,0.0,0.0,0.0,0.0,0.0,0.0,0.0,0.0,0.0,0.0,0.0,0.0,0.0,0.0,0.0,0.0,0.0,0.0,0.0,0.0,0.0,0.0,0.0,0.0,0.0,0.0,0.0,0.0,0.0,0.0,0.0,0.0,-2.0923,-2.6929,-3.0316,-3.0752,-2.7656,-2.5061,-2.3239,-2.0122,-1.6209,0.0,0.0,0.0,0.0,0.0,0.0,0.0,0.0,0.0,0.0,0.0,0.0,0.0,0.0,0.0,0.0,0.0,0.0,0.0,0.0,0.0,0.0,0.0,0.0,0.0,0.0,0.0,0.0,0.0,0.0,0.0,0.0,0.0,0.0,0.0,0.0,0.0,0.0,0.0,0.0,0.0,0.3977,0.5661,0.9264,1.3811,0.0,0.0,2.7637,2.9848,3.1964,3.1765,2.7157,0.0,0.0,0.0,0.0,0.0,0.0,0.0,0.0,0.0,0.0,0.0,0.0,0.0,0.0,0.0,0.0,0.0,0.0,0.0,0.0,0.0,0.0,0.0,0.0,0.0,0.0,0.0,0.0,0.0,0.0,0.0,0.0,0.0,0.0,0.0,0.0,0.0,0.0,0.0,0.0,0.0,0.0,0.0,0.0,0.0,0.0,0.0,0.0,0.0,0.0,0.0,0.0,0.0,-1.8927,-2.1083,-2.6668,-2.9462,-2.9259,-2.8124,-2.5604,-2.1578,-2.025,-1.7943,0.0,0.0,0.0,0.0,0.0,0.0,0.0,0.0,0.0,0.0,0.0,0.0,0.0,0.0,0.0,0.0,0.0,0.0,0.0,0.0,0.0,0.0,0.0,0.0,0.0,0.0,0.0,0.0,-0.6934,-0.6991,-0.5902,0.0,0.0,0.0,0.0,0.0,0.0,0.0,0.0,0.0,0.0,-0.2001,0.051,0.3362,0.0,0.0,2.2001,2.6534,3.0833,3.1637,3.0767,2.7865,2.5464,0.0,0.0,0.0,0.0,0.0,0.0,0.0,0.0,0.0,0.0,0.0,0.0,0.0,0.0,0.0,0.0,0.0,0.0,0.0,0.0,0.0,0.0,0.0,0.0,0.0,0.0,0.0,0.0,0.0,0.0,0.0,0.0,0.0,0.0,0.0,0.0,0.0,0.0,0.0,0.0,0.0,0.0,0.0,0.0,0.0,0.0,0.0,0.0,0.0,0.0,0.0,0.0,-1.8687,-2.0961,-2.6351,-2.8786,-2.8077,-2.7613,-2.5256,-2.0941,-2.0114,-1.9121,0.0,0.0,0.0,0.0,0.0,0.0,0.0,0.0,0.0,0.0,0.0,0.0,0.0,0.0,0.0,0.0,0.0,0.0,0.0,0.0,0.0,0.0,0.0,0.0,0.0,0.0,0.0,0.0,-0.6952,-0.6861,-0.576,0.0,0.0,0.0,0.0,0.0,0.0,0.0,0.0,0.0,0.0,-0.6574,-0.4036,-0.0237,0.5687,1.5185,2.0653,2.5643,3.0714,3.1052,3.0212,2.8776,0.0,0.0,0.0,0.0,0.0,0.0,0.0,0.0,0.0,0.0,0.0,0.0,0.0,0.0,0.0,0.0,0.0,0.0,0.0,0.0,0.0,0.0,0.0,0.0,0.0,0.0,0.0,-1.0157,0.0,0.0,-0.939,0.0,0.0,0.0,0.0,0.0,0.0,0.0,0.0,0.0,0.0,0.0,0.0,0.0,0.0,0.0,0.0,0.0,0.0,0.0,0.0,0.0,0.0,-1.7936,-2.017,-2.5893,-2.8394,-2.7507,-2.5424,-2.3454,-2.1293,-1.9326,-1.9095,-2.0651,0.0,0.0,0.0,0.0,0.0,0.0,0.0,0.0,0.0,0.0,0.0,0.0,0.0,0.0,0.0,0.0,0.0,0.0,0.0,0.0,0.0,0.0,0.0,0.0,0.0,0.0,-0.5695,-0.5695,-0.5854,0.0,0.0,0.0,0.0,0.0,0.0,0.0,0.0,0.0,0.0,-1.067,-0.8635,-0.7349,-0.0395,0.7387,1.5741,2.0814,2.524,2.9404,3.0626,3.0942,0.0,0.0,0.0,0.0,0.0,0.0,0.0,0.0,0.0,0.0,0.0,0.0,0.0,0.0,0.0,0.0,0.0,0.0,0.0,0.0,0.0,0.0,0.0,0.0,0.0,0.0,0.0,-1.4192,-1.375,0.0,0.0,0.0,0.0,0.0,0.0,0.0,0.0,0.0,0.0,0.0,-1.7482,-1.85,0.0,0.0,0.0,0.0,0.0,0.0,0.0,0.0,0.0,0.0,0.0,0.0,-1.8355,-2.0586,-2.6274,-2.8721,-2.7666,-2.7448,-2.5431,-2.1565,-2.2445,-2.1549,-1.8544,0.0,0.0,0.0,0.0,0.0,0.0,0.0,0.0,0.0,0.0,0.0,0.0,0.0,0.0,0.0,0.0,0.0,0.0,0.0,0.0,0.0,0.0,0.0,0.0,0.0,-0.6432,0.0,0.0,0.0,0.0,0.0,0.0,0.0,0.0,0.0,0.0,0.0,-1.3026,-1.5042,-1.4849,-1.3582,-1.1078,-0.6647,-0.0416,0.0,0.0,0.0,0.0,0.0,0.0,0.0,0.0,0.0,0.0,0.0,0.0,0.0,0.0,3.4703,2.5591,2.6939,3.2193,4.0888,0.0,0.0,0.0,0.0,0.0,0.0,0.0,0.0,0.0,0.0,0.0,0.0,0.0,0.0,-1.859,0.0,-1.6706,0.0,0.0,0.0,0.0,0.0,0.0,0.0,0.0,-2.0523,-2.1745,-2.153,-2.2491,-2.2096,0.0,-1.8193,-1.5619,0.0,0.0,0.0,0.0,0.0,0.0,0.0,0.0,-1.8983,-2.145,-2.6523,-2.8716,-2.7762,-2.7719,-2.6021,-2.2604,-2.4911,-2.4425,-2.0572,-1.9051,-1.3462,0.0,0.0,0.0,0.0,0.0,0.0,0.0,0.0,0.0,0.0,0.0,0.0,0.0,0.0,0.0,0.0,0.0,0.0,0.0,0.0,0.0,0.0,0.0,-0.7692,0.0,0.0,0.0,0.0,0.0,0.0,0.0,0.0,0.0,-1.23,-1.4572,-1.6961,-1.8439,-1.8419,-1.7055,-1.3416,0.0,0.0,0.0,0.0,0.0,0.0,0.0,2.7346,3.4319,3.5248,3.5799,3.8176,4.0664,4.2162,4.1616,0.0,0.0,3.4775,3.487,3.8844,4.7235,4.3168,3.9239,4.2229,4.181,4.1034,0.0,0.0,0.0,0.0,0.0,0.0,0.0,0.0,-2.2446,-2.3342,0.0,-2.1413,0.0,0.0,0.0,0.0,0.0,-2.0534,0.0,0.0,-2.6089,-2.7633,-2.6818,-2.603,-2.5205,-2.428,-2.1932,-2.0708,-2.0288,-1.6725,0.0,0.0,0.0,0.0,0.0,0.0,-1.9906,-2.2913,-2.6832,-2.8459,-2.7762,-2.6455,-2.5244,-2.4458,-2.6686,-2.7536,-2.6591,-2.331,-2.0461,-1.8328,-0.926,0.0,0.0,0.0,0.0,0.0,0.0,0.0,0.0,0.0,0.0,0.0,0.0,0.0,0.0,0.0,0.0,0.0,0.0,0.0,0.0,-0.9728,0.0,0.0,0.0,0.0,0.0,0.0,0.0,0.0,0.0,0.0,-1.6204,-1.7743,-2.0044,-2.2436,0.0,0.0,0.0,0.0,-1.1325,0.0653,0.2655,0.7287,2.0262,2.6,3.1147,3.7807,0.0,0.0,4.5742,4.5741,4.5389,4.3802,4.6516,4.7977,4.5092,4.3193,4.2987,4.4733,4.4492,4.3741,4.3894,4.5447,4.6351,-1.953,0.0,0.0,0.0,0.0,-2.3954,-2.6381,-3.0409,-2.9362,-2.8949,-2.8865,-2.7063,0.0,0.0,0.0,0.0,0.0,0.0,-2.548,-2.6856,-2.793,-2.9108,-3.0344,-2.938,-2.8808,-2.856,-2.6116,-2.5084,-2.5289,-2.372,-1.9501,-1.2897,0.0,0.0,0.0,0.0,-2.2271,-2.4847,-2.8556,-3.0062,-2.9204,-2.8808,-2.8489,-2.8375,-2.8988,-2.9721,-3.0519,-2.8667,-2.5898,-2.2266,-1.7859,0.0,0.0,0.0,0.0,0.0,0.0,0.0,0.0,0.0,0.0,0.0,0.0,0.0,0.0,0.0,0.0,0.0,0.0,0.0,-0.7372,-1.1449,-1.3277,0.0,0.0,0.0,0.0,0.0,0.0,0.0,0.0,0.0,-2.3475,-2.3108,-2.3018,0.0,0.0,-2.0236,-1.9143,-1.8691,-1.7835,-1.6431,-0.712,0.0,1.0192,2.0982,3.0976,3.8395,4.4266,4.8183,4.8889,4.99,5.065,5.0511,5.1427,5.185,5.1166,4.9704,4.9328,5.1031,5.0715,5.0146,5.0725,5.1296,5.1743,-2.3375,-2.2088,-2.1419,-2.4011,-2.8472,-2.8135,-3.0939,-3.5735,-3.4905,-3.4737,-3.4925,-3.316,-3.1559,-3.0093,-2.8045,0.0,0.0,0.0,-3.0062,-3.1593,-3.1194,-3.1805,-3.3192,-3.1724,-3.1101,-3.1086,-2.8208,-2.7419,-2.8565,-2.6594,-2.3259,-1.8556,0.0,0.0,-1.7483,-2.1299,-2.4328,-2.647,-2.9426,-3.0658,-3.0113,-3.0041,-3.0296,-3.089,-3.1084,-3.1694,-3.2722,-3.2094,-3.0071,-2.6542,-2.5019,-2.0917,0.0,0.0,0.0,0.0,0.0,0.0,0.0,0.0,0.0,0.0,0.0,-0.5484,0.0,0.0,0.0,0.0,-1.079,-1.1508,-1.2977,-1.6083,0.0,0.0,0.0,0.0,0.0,0.0,0.0,-2.0891,-2.5486,-2.8636,-2.8893,-2.8912,-2.8629,-2.7834,-2.6111,-2.5185,-2.5779,0.0,-2.726,-2.6576,-1.9798,-0.9904,0.3708,1.3788,2.4954,4.0126,4.6512,5.0076,5.1239,5.2619,5.3558,5.3749,5.392,5.408,5.4155,5.3327,5.2969,5.429,5.4169,5.3992,5.4471,5.4556,5.4763,-2.6901,-2.6827,-2.4967,-2.7233,-3.1918,-3.1806,-3.4429,-3.8784,-3.9138,-4.0177,-4.138,-3.9126,-3.7795,-3.7071,-3.4134,0.0,-3.4456,-3.4939,-3.5453,-3.6096,-3.5453,-3.5371,-3.5656,-3.3534,-3.2546,-3.2602,-2.9174,-2.8554,-3.0354,-2.7074,-2.5796,-2.6714,-2.5234,-2.3977,-2.3111,-2.4508,-2.6163,-2.7932,-2.9633,-3.0543,-3.0584,-3.053,-3.1022,-3.2051,-3.2785,-3.3272,-3.3593,-3.3749,-3.2842,-3.0753,-3.0407,-2.7382,-2.1006,0.0,0.0,0.0,0.0,0.0,0.0,0.0,0.0,0.0,0.0,0.0,0.0,0.0,0.0,0.0,-1.9057,0.0,-2.2099,-2.2228,0.0,0.0,0.0,-2.0393,-2.2986,-2.5548,-2.74,-2.7919,0.0,0.0,-3.3089,-3.4698,-3.5794,-3.5549,-3.3422,-3.2219,-3.3241,-3.6934,-3.7883,-3.2529,-3.3158,-2.5869,-0.4229,0.5157,1.7948,4.1161,4.8956,5.102,5.2258,5.3343,5.4046,5.3855,5.4353,5.4743,5.4802,5.4676,5.479,5.4506,5.5088,5.5615,5.5576,5.5595,5.5669,-2.9667,-2.8423,-3.1864,-3.3572,-3.4016,-3.416,-3.7038,-4.1548,-4.1834,-4.2125,-4.245,-4.1858,-4.1131,-4.0347,-3.96,-3.9123,-3.8952,-3.9059,-3.9272,-3.9513,-3.8496,-3.8024,-3.8024,-3.6354,-3.5103,-3.4282,-3.3243,-3.2514,-3.2121,-3.1093,-3.0126,-2.9233,-2.8653,-2.7074,-2.4725,-2.6028,-2.7514,-2.9015,-2.9794,-3.0553,-3.134,-3.1521,-3.176,-3.2001,-3.3015,-3.3333,-3.2809,-3.2533,-3.2128,-3.1497,-3.0256,-2.8215,-2.5298,-2.2944,0.0,0.0,0.0,0.0,0.0,0.0,0.0,0.0,0.0,-1.185,-1.1044,0.0,-1.4519,0.0,-2.5968,-2.5694,-2.1382,-2.3763,0.0,0.0,-2.37,-2.3952,-2.8613,-2.9392,-3.0034,-3.1309,-3.3405,-3.56,-3.801,-3.8686,-4.0501,-4.4101,-3.9617,-3.6268,-3.7595,-4.0562,-4.3078,-4.291,-3.7668,-3.0396,-2.1922,-0.2404,1.9594,4.1305,4.4739,4.5939,4.9593,5.0617,5.1176,5.2151,5.3088,5.3766,5.4262,5.4368,5.4398,5.4514,5.4995,5.5448,5.5594,5.5634,5.5788,-2.4913,-2.3988,-2.6935,-2.9849,-3.2803,-3.6207,-3.9965,-4.3605,-4.384,-4.3921,-4.3902,-4.3902,-4.3314,-4.2332,-4.2308,-4.2102,-4.1717,-4.1412,-4.1314,-4.1371,-4.0721,-4.021,-3.9831,-3.8446,-3.7368,-3.6671,-3.5694,-3.4627,-3.3643,-3.349,-3.3071,-3.2424,-3.1929,-3.0698,-2.8845,-2.8092,-2.7794,-2.7837,-2.9303,-3.0654,-3.1737,-3.183,-3.1632,-3.1172,-3.2112,-3.2113,-3.0936,-3.1175,-3.0917,-3.0049,-2.9132,-2.7834,-2.6053,-2.4155,-2.1016,0.0,0.0,0.0,0.0,0.0,0.0,0.0,0.0,0.0,0.0,0.0,-2.2364,-2.7052,-2.9898,-2.9788,-2.5712,-2.8065,-3.0357,-3.173,-3.0026,-3.0273,-3.4025,-3.4074,-3.4373,-3.5678,-3.6631,-3.8266,-4.0978,-4.1996,-4.3981,-4.8101,-4.5835,-4.3917,-4.4576,-4.6388,-4.8402,-5.0173,-4.6025,-3.776,-2.7731,-0.3412,1.8973,3.333,4.0022,4.3138,4.4818,4.719,4.9127,4.9988,5.1142,5.2272,5.3045,5.3197,5.3232,5.3516,5.3949,5.4481,5.5,5.5148,5.5265,-1.8644,-1.7845,-1.8528,-2.2666,-2.9456,-3.7092,-4.1971,-4.4597,-4.4868,-4.4949,-4.49,-4.4995,-4.4304,-4.3087,-4.3231,-4.32,-4.3056,-4.2573,-4.2231,-4.2119,-4.2006,-4.1569,-4.0839,-3.9738,-3.9059,-3.8724,-3.7283,-3.612,-3.5294,-3.5379,-3.5466,-3.5562,-3.4856,-3.4119,-3.3213,-3.0475,-2.8178,-2.6509,-2.8824,-3.0643,-3.1882,-3.1479,-3.0795,-2.9915,-3.0771,-3.049,-2.8887,-2.9743,-2.9518,-2.7923,-2.7828,-2.7137,-2.5648,-2.3181,-2.0806,0.0,-1.7184,0.0,0.0,0.0,0.0,0.0,0.0,0.0,0.0,-2.9042,-3.136,-2.9494,-3.2581,-3.4017,-3.2429,-3.3842,-3.5892,-3.8351,-3.7568,-3.7348,-3.8743,-3.8767,-3.905,-4.0129,-4.0114,-4.0913,-4.3485,-4.5102,-4.6992,-4.9522,-5.0849,-5.1261,-5.1716,-5.2056,-5.2907,-5.4271,-5.3693,-4.2791,-2.2498,-0.1768,1.5059,2.5399,3.4247,4.0205,3.9434,4.3481,4.6962,4.7378,4.8734,5.0169,5.1333,5.1518,5.1784,5.2098,5.2663,5.338,5.4127,5.4478,5.4609,-2.3212,-1.8277,-2.2522,-2.3928,-2.4116,-3.3443,-3.9496,-4.2867,-4.315,-4.3042,-4.2744,-4.338,-4.2955,-4.1863,-4.2838,-4.272,-4.1825,-4.2705,-4.2534,-4.1533,-4.0928,-4.0326,-3.9708,-3.9362,-3.8714,-3.7891,-3.8941,-3.9106,-3.8349,-3.8837,-3.8475,-3.7234,-3.6825,-3.5308,-3.29,0.0,0.0,0.0,-2.9526,-3.0268,-3.1389,-2.979,-2.8887,-2.8981,-3.0025,0.0,-2.8125,-2.833,-2.8291,-2.784,-2.7908,0.0,0.0,0.0,0.0,0.0,0.0,0.0,0.0,0.0,0.0,0.0,-3.1448,-3.183,-3.3754,-3.4661,-3.4273,-3.2569,-3.6566,-3.8749,-3.7203,-3.9753,-4.1293,-4.0763,-4.1376,-4.191,-4.1853,-4.1749,-4.1913,-4.2585,-4.2695,-4.4075,-4.7541,-4.8644,-4.9746,-5.1962,-5.3126,-5.3728,-5.4132,-5.4178,-5.4551,-5.478,-4.9049,-3.7146,-2.0685,-0.7044,0.7155,2.1893,2.8411,3.2402,3.6251,4.0174,4.3122,4.3727,4.5886,4.7838,4.8257,4.9298,5.0415,5.0959,5.1968,5.2968,5.3497,5.4093,5.4579,-1.5921,0.0,-1.5437,-1.7328,0.0,-2.7749,-3.3185,-3.6539,-4.2585,-4.412,-4.2386,-4.1687,-4.0334,-3.8601,-3.9599,-3.9333,-3.8159,-3.9053,-3.898,-3.8176,-3.8958,-3.8679,-3.7525,-3.772,-3.7695,-3.752,-3.7327,-3.7254,-3.7138,-3.734,-3.7334,-3.711,-3.7609,-3.7317,-3.6435,-3.7298,-3.592,-3.2218,-3.2062,-3.2645,-3.3944,-3.2625,-3.1506,-3.0833,-3.1366,0.0,0.0,0.0,0.0,0.0,0.0,0.0,0.0,0.0,0.0,-3.0658,-3.1164,-3.2041,-3.3414,-3.4892,-3.6289,-3.7591,-3.8527,-3.8614,-3.766,-3.8909,-3.9219,-3.8079,-4.0991,-4.2772,-4.2397,-4.3191,-4.3764,-4.4019,-4.4369,-4.4453,-4.4164,-4.4414,-4.4793,-4.5256,-4.5342,-4.6625,-4.9743,-5.0122,-5.1084,-5.3255,-5.3837,-5.4322,-5.5094,-5.5244,-5.5376,-5.5781,-5.1508,-4.084,-2.4225,-1.5533,-0.3008,1.5281,2.4222,2.8031,3.1847,3.665,4.0167,4.1069,4.3366,4.5476,4.6415,4.7994,4.9578,5.0372,5.1245,5.1964,5.2477,5.332,5.3941,-0.7901,-0.7268,-0.7268,-1.0544,-1.6352,-2.3408,-2.9087,-3.3874,0.0,0.0,0.0,-3.9943,-3.7878,-3.6143,-3.6467,-3.5808,-3.4534,-3.5258,-3.5185,-3.4593,-3.6618,-3.6725,-3.5291,-3.5661,-3.619,-3.6626,-3.5107,-3.4555,-3.5026,-3.5538,-3.626,-3.7316,-3.8824,-4.0009,-4.0722,-4.1349,-3.976,-3.603,-3.5054,-3.5211,-3.6441,-3.5539,-3.4357,-3.2921,-3.3153,-3.2205,-2.9987,-3.0568,-3.0586,-2.9823,-2.9518,-2.9557,-2.9932,-3.0181,-3.1025,-3.2546,-3.3231,-3.4021,-3.5093,-3.6543,-3.8026,-3.9558,-4.126,-4.1492,-3.9712,-4.1945,-4.3463,-4.3535,-4.4689,-4.5663,-4.6189,-4.5582,-4.5605,-4.7052,-4.6918,-4.6667,-4.6481,-4.6934,-4.7523,-4.7907,-4.8006,-4.8779,-5.0963,-5.1362,-5.1907,-5.3685,-5.4291,-5.466,-5.5569,-5.5814,-5.589,-5.6008,-5.2391,-4.4951,-3.0602,-1.9825,-1.013,0.8923,1.8585,2.4438,2.8058,3.3007,3.6869,3.8167,4.0807,4.3072,4.4507,4.6407,4.8386,4.9548,5.0241,5.0805,5.1393,5.2363,5.3036,-1.0534,-0.7496,-0.7268,-1.1392,-1.8498,-2.524,-3.54,-4.6544,-4.1192,-3.9416,-4.0487,-3.8044,-3.7326,-3.7938,-3.666,-3.5149,-3.3599,-3.495,-3.4908,-3.3819,-3.4126,-3.412,-3.3897,-3.3801,-3.3816,-3.3906,-3.4475,-3.4851,-3.5285,-3.8275,-4.0084,-4.0333,-4.2606,-4.3455,-4.2934,-4.3178,-4.2745,-4.148,-3.7499,-3.5421,-3.5306,-3.3723,-3.2847,-3.2881,-3.3871,-3.379,-3.2535,-3.2598,-3.2557,-3.2377,-3.2331,-3.2605,-3.3296,-3.4089,-3.5033,-3.6015,-3.7461,-3.8692,-3.9496,-4.029,-4.1384,-4.2845,-4.3521,-4.3831,-4.3823,-4.2831,-4.3266,-4.5626,-4.6122,-4.6124,-4.5864,-4.7461,-4.8453,-4.8488,-4.9344,-4.9878,-4.964,-4.9625,-4.9943,-5.0592,-5.0659,-5.1239,-5.2776,-5.3454,-5.3641,-5.4187,-5.4871,-5.5672,-5.6133,-5.627,-5.6241,-5.4881,-4.7414,-4.0457,-3.4808,-2.0702,-0.8785,0.0404,1.0397,1.9264,2.5856,2.9856,3.304,3.5098,3.8278,4.0605,4.1671,4.3593,4.5794,4.7437,4.8641,4.978,5.0482,5.1327,5.2054,-0.8958,-0.7487,-0.7268,-0.9219,-1.2962,-1.8264,-2.8711,-4.1091,-3.5937,-3.6059,-3.9984,-3.7983,-3.6007,-3.4438,-3.4081,-3.3115,-3.166,-3.2625,-3.2361,-3.1269,-3.178,-3.178,-3.1162,-3.1088,-3.1429,-3.2014,-3.1758,-3.2677,-3.479,-3.6627,-3.8506,-4.0618,-4.333,-4.444,-4.4011,-4.4326,-4.4135,-4.3331,-4.0916,-3.9431,-3.8953,-3.8146,-3.7338,-3.6579,-3.7066,-3.6833,-3.5803,-3.5746,-3.5724,-3.572,-3.5585,-3.5748,-3.6253,-3.6983,-3.7824,-3.8777,-3.9971,-4.0984,-4.1718,-4.2303,-4.3,-4.377,-4.3414,-4.3532,-4.4547,-4.3924,-4.4031,-4.5377,-4.5846,-4.6004,-4.5722,-4.7083,-4.8192,-4.8681,-4.9947,-5.108,-5.1726,-5.2183,-5.2508,-5.278,-5.2747,-5.308,-5.4031,-5.4192,-5.4466,-5.4846,-5.5622,-5.6183,-5.6448,-5.6222,-5.6116,-5.5714,-5.1149,-4.5432,-3.9846,-2.7404,-1.4402,-0.4282,0.6692,1.5925,2.3332,2.6844,2.9538,3.3116,3.6056,3.7791,3.906,4.218,4.4384,4.5619,4.7441,4.8809,4.9677,5.0462,5.1327,-0.7268,-0.7268,-0.7268,-0.8262,-1.029,-1.5128,-2.3612,-3.3235,-3.2027,-3.3879,-3.772,-3.7432,-3.4896,-3.1137,-3.1705,-3.0918,-2.9174,-2.9222,-2.8913,-2.8137,-2.8012,-2.7575,-2.6712,-2.6642,-2.715,-2.7897,-2.6817,-2.8231,-3.1744,-3.3143,-3.6384,-4.1056,-4.3634,-4.4654,-4.4562,-4.504,-4.4974,-4.4326,-4.395,-4.3341,-4.2498,-4.248,-4.1847,-4.0645,-4.0237,-3.9829,-3.9262,-3.8984,-3.8969,-3.921,-3.9013,-3.9035,-3.9367,-3.973,-4.0331,-4.119,-4.196,-4.2666,-4.3348,-4.4001,-4.4263,-4.4078,-4.3288,-4.3137,-4.3903,-4.4007,-4.4139,-4.4495,-4.4992,-4.533,-4.5484,-4.6595,-4.7707,-4.8989,-5.0588,-5.2122,-5.3256,-5.3996,-5.4356,-5.4249,-5.4181,-5.4204,-5.4479,-5.4541,-5.4868,-5.5663,-5.6114,-5.6342,-5.6387,-5.6075,-5.5938,-5.5907,-5.5448,-5.1951,-4.3616,-3.5027,-2.3808,-1.044,0.0619,1.0484,1.8384,2.3149,2.662,3.1142,3.3894,3.5762,3.7674,4.0702,4.3328,4.452,4.6169,4.7784,4.9103,4.9861,5.0607,-0.7382,-0.7496,-0.7274,-1.1034,-1.7014,-2.4061,-2.769,-2.9511,-3.2875,-3.3141,-3.162,-3.5066,-3.4192,-3.0777,-3.1104,-2.9184,-2.5399,-2.5183,-2.5071,-2.4591,-2.1254,-1.9487,-1.9676,-1.9331,-1.9077,-1.9309,-1.9079,-2.1133,-2.484,-2.9345,-3.5679,-4.3144,-4.4574,-4.4742,-4.4751,-4.5267,-4.5542,-4.5546,-4.5722,-4.4995,-4.3414,-4.3364,-4.3246,-4.2999,-4.2118,-4.1994,-4.2383,-4.1822,-4.1755,-4.2618,-4.2486,-4.2583,-4.2807,-4.2814,-4.2879,-4.3102,-4.3754,-4.4453,-4.5104,-4.5907,-4.5697,-4.4554,-4.4433,-4.3939,-4.294,-4.2288,-4.2517,-4.3592,-4.3994,-4.4007,-4.4187,-4.6819,-4.8919,-4.9926,-5.1887,-5.3721,-5.442,-5.4704,-5.4661,-5.4642,-5.4578,-5.4609,-5.4809,-5.5151,-5.5677,-5.6207,-5.6203,-5.6203,-5.6251,-5.6006,-5.573,-5.5596,-5.5205,-5.4477,-5.1146,-4.5076,-3.3085,-2.1673,-1.1787,0.0948,1.2875,1.9203,2.2015,2.8416,3.2107,3.3801,3.6908,3.9729,4.1432,4.3652,4.5112,4.6484,4.8647,4.9555,4.993,-0.7442,-0.7379,-0.7263,-0.9012,-1.2238,-1.5172,-1.8797,-2.2605,-2.4205,-2.5461,-2.678,-2.8657,-2.8769,-2.7637,-2.8065,-2.5839,-2.1891,-2.1615,-2.1357,-2.0934,-1.9264,-1.8419,-1.8044,-1.7935,-1.787,-1.7758,-1.7667,-1.9121,-2.2882,-2.96,-3.5241,-3.8904,-4.2693,-4.4761,-4.4762,-4.5299,-4.5625,-4.5648,-4.5894,-4.5659,-4.4943,-4.4433,-4.3889,-4.3281,-4.2874,-4.2753,-4.2977,-4.2701,-4.2706,-4.3049,-4.3052,-4.3115,-4.3211,-4.3195,-4.346,-4.4029,-4.4754,-4.5503,-4.6247,-4.6127,-4.601,-4.5991,-4.5352,-4.4763,-4.4314,-4.3748,-4.3647,-4.3866,-4.3171,-4.2704,-4.3619,-4.5868,-4.7956,-4.9631,-5.1763,-5.3568,-5.4776,-5.4852,-5.4822,-5.4833,-5.4829,-5.4963,-5.5273,-5.5698,-5.6077,-5.6337,-5.6239,-5.6181,-5.6199,-5.5891,-5.5615,-5.541,-5.4648,-5.4204,-5.3376,-4.4669,-3.4999,-2.5959,-1.5975,-0.3587,0.8593,1.3669,1.6936,2.4867,2.7868,3.0871,3.403,3.7156,3.9513,4.207,4.4629,4.6141,4.7753,4.843,4.8821,-0.7467,-0.7388,-0.735,-0.7381,-0.7496,-0.7607,-1.0501,-1.5074,-1.6298,-1.8427,-2.1212,-2.246,-2.2756,-2.2601,-2.3607,-2.2008,-1.8434,-1.7865,-1.6947,-1.587,-1.5544,-1.4719,-1.3517,-1.2795,-1.2538,-1.2432,-1.2009,-1.4565,-1.9719,-2.6913,-3.2069,-3.5011,-3.964,-4.2963,-4.4769,-4.5371,-4.564,-4.5718,-4.5869,-4.5905,-4.5776,-4.5291,-4.4626,-4.3943,-4.3563,-4.3462,-4.367,-4.3412,-4.3421,-4.3656,-4.371,-4.3775,-4.3833,-4.3891,-4.424,-4.4905,-4.568,-4.6326,-4.6901,-4.6743,-4.672,-4.6824,-4.6187,-4.5677,-4.5299,-4.4941,-4.4807,-4.4844,-4.3575,-4.332,-4.408,-4.6169,-4.8234,-5.0001,-5.2116,-5.3959,-5.4952,-5.5066,-5.5085,-5.5075,-5.5188,-5.5324,-5.5706,-5.6026,-5.6258,-5.6265,-5.6153,-5.604,-5.5961,-5.5624,-5.5284,-5.5084,-5.351,-5.2662,-5.2698,-4.7465,-3.7292,-2.7577,-1.8691,-0.9361,0.4712,0.9078,1.3508,2.2079,2.4533,2.8088,3.2214,3.5355,3.8259,4.0971,4.362,4.5665,4.6742,4.7323,4.7965,-0.7516,-0.7494,-0.7388,-0.7274,-0.7268,-0.7499,-0.7587,-0.8662,-1.2091,-1.3931,-1.4482,-1.776,-1.744,-1.441,-1.799,-1.7722,-1.4306,-1.3439,-1.1513,-0.8682,-0.784,-0.5802,-0.2356,-0.0527,0.0103,-0.1012,-0.0809,-0.5237,-1.4754,-1.9226,-2.5309,-3.4023,-3.5802,-3.8988,-4.4371,-4.5509,-4.5723,-4.5906,-4.5841,-4.581,-4.578,-4.568,-4.5549,-4.5312,-4.4468,-4.4316,-4.503,-4.4341,-4.4191,-4.5246,-4.5189,-4.5334,-4.557,-4.5665,-4.5811,-4.6068,-4.6736,-4.7117,-4.7273,-4.8261,-4.8405,-4.6995,-4.715,-4.6752,-4.5414,-4.5113,-4.5353,-4.6148,-4.5915,-4.5897,-4.6514,-4.8829,-5.094,-5.1908,-5.3983,-5.5241,-5.5508,-5.5456,-5.5499,-5.5489,-5.5538,-5.578,-5.6121,-5.6171,-5.622,-5.6145,-5.5943,-5.5726,-5.5547,-5.5183,-5.481,-5.3939,-5.2145,-5.0092,-5.076,-4.8119,-4.1652,-3.2166,-2.2986,-1.5778,-0.2714,0.8631,1.4018,1.9051,2.2174,2.6074,3.0626,3.4342,3.7404,4.0307,4.315,4.5079,4.5829,4.6566,4.7172,-0.7698,-0.7625,-0.7502,-0.738,-0.7277,-0.7384,-0.734,-0.7374,-0.8859,-0.9486,-0.9584,-1.1035,-1.0721,-0.9479,-1.1008,-1.0904,-0.9377,-0.7097,-0.4597,-0.2031,0.0324,0.2901,0.5185,0.61,0.4393,0.1665,0.1767,-0.31,-1.3013,-2.0287,-2.7178,-3.3791,-3.958,-4.3651,-4.5531,-4.5712,-4.5649,-4.5742,-4.5696,-4.5613,-4.555,-4.5454,-4.5343,-4.514,-4.484,-4.4822,-4.5142,-4.4779,-4.4715,-4.5,-4.5258,-4.5419,-4.5549,-4.6152,-4.661,-4.6863,-4.7574,-4.8274,-4.8775,-4.8833,-4.9013,-4.9243,-4.837,-4.7924,-4.7565,-4.7029,-4.6731,-4.7057,-4.817,-4.8893,-4.9658,-5.0765,-5.1825,-5.294,-5.4516,-5.564,-5.5682,-5.564,-5.5618,-5.5605,-5.5752,-5.6024,-5.6287,-5.6386,-5.6302,-5.6097,-5.5917,-5.5646,-5.5275,-5.4838,-5.4363,-5.3812,-5.2152,-5.0382,-4.9567,-4.7646,-4.2645,-3.4196,-2.5492,-1.6291,-0.4688,0.3108,0.8838,1.4626,1.8604,2.3527,2.8028,3.3837,3.6816,3.9789,4.2597,4.4126,4.4987,4.5641,4.623,-0.7804,-0.7698,-0.7614,-0.7508,-0.7394,-0.7353,-0.729,-0.7211,-0.7171,-0.7154,-0.7154,-0.7154,-0.6584,-0.5901,-0.6697,-0.647,-0.5452,-0.3992,-0.2198,0.0109,0.1517,0.3337,0.5545,0.6366,0.4757,0.1796,0.2003,-0.2576,-1.1637,-1.9074,-2.619,-3.3451,-4.0296,-4.4684,-4.6261,-4.6493,-4.635,-4.6357,-4.6388,-4.6299,-4.6069,-4.599,-4.5859,-4.564,-4.5571,-4.5281,-4.4903,-4.4787,-4.4781,-4.4833,-4.5057,-4.5354,-4.5763,-4.6769,-4.7442,-4.7658,-4.8443,-4.9207,-4.9763,-4.9504,-4.972,-5.0505,-4.9556,-4.8964,-4.9089,-4.8678,-4.8287,-4.84,-4.9766,-5.1305,-5.1907,-5.2286,-5.2847,-5.3834,-5.4931,-5.5583,-5.5583,-5.5707,-5.5789,-5.5869,-5.5991,-5.6216,-5.6426,-5.6381,-5.6154,-5.5826,-5.5599,-5.5193,-5.4838,-5.4284,-5.3832,-5.3454,-5.2043,-5.0417,-4.8922,-4.6684,-4.1369,-3.3233,-2.667,-1.7397,-0.8441,-0.1549,0.4606,1.006,1.5381,2.0598,2.6217,3.2332,3.6257,3.9215,4.1324,4.2953,4.3773,4.4648,4.5341,-0.7807,-0.7717,-0.7701,-0.763,-0.7516,-0.7415,-0.7347,-0.732,-0.7214,-0.7173,-0.7179,-0.716,-0.5565,-0.3545,-0.6015,-0.545,-0.3657,-0.5452,-0.432,-0.1098,-0.3643,-0.2862,0.0764,0.2475,0.2084,0.0615,0.1671,-0.2872,-1.2663,-1.7152,-2.3934,-3.2436,-3.7307,-4.2455,-4.7754,-4.7693,-4.7733,-4.768,-4.7703,-4.7721,-4.7594,-4.7248,-4.7068,-4.6973,-4.6518,-4.5718,-4.471,-4.4476,-4.464,-4.4885,-4.4966,-4.5426,-4.6531,-4.7703,-4.8367,-4.8515,-4.934,-4.986,-5.0024,-5.0518,-5.056,-5.0449,-5.0179,-4.9651,-4.9175,-4.937,-4.9508,-4.9542,-5.0935,-5.2521,-5.3175,-5.3792,-5.4449,-5.5183,-5.5362,-5.5359,-5.5487,-5.5731,-5.6088,-5.6219,-5.6263,-5.6351,-5.6391,-5.6212,-5.5865,-5.5421,-5.4924,-5.4446,-5.4206,-5.3664,-5.3065,-5.2516,-5.1558,-5.0244,-4.8044,-4.5269,-3.8707,-3.205,-2.6373,-1.8966,-0.962,-0.2054,0.3278,0.8862,1.4595,1.9835,2.5883,3.1661,3.5078,3.7881,3.9843,4.1806,4.2931,4.3878,4.4588,-0.785,-0.782,-0.7818,-0.7752,-0.7646,-0.7603,-0.7543,-0.7451,-0.7334,-0.7282,-0.7263,-0.719,-0.647,-0.5904,-0.6811,-0.647,-0.5678,-0.6581,-0.3303,0.2495,0.282,0.4749,0.8471,0.8322,0.4448,-0.2203,-0.7797,-1.4946,-2.3023,-2.8052,-3.4622,-4.0975,-4.3472,-4.577,-4.8253,-4.798,-4.7588,-4.7558,-4.7594,-4.7433,-4.7097,-4.7014,-4.6832,-4.6397,-4.5909,-4.5512,-4.5311,-4.5467,-4.5755,-4.6068,-4.6234,-4.6547,-4.7143,-4.8279,-4.8963,-4.909,-5.0113,-5.082,-5.0864,-5.1008,-5.1061,-5.0797,-5.045,-5.0097,-4.9744,-4.9616,-4.983,-5.0191,-5.1473,-5.2608,-5.367,-5.4306,-5.5,-5.5826,-5.5612,-5.5532,-5.5843,-5.6029,-5.6181,-5.6283,-5.6305,-5.6367,-5.6361,-5.6115,-5.5668,-5.5301,-5.4776,-5.4295,-5.3719,-5.3226,-5.2696,-5.2029,-5.1034,-5.0085,-4.8337,-4.5559,-4.0124,-3.3326,-2.7049,-2.0624,-1.14,-0.2904,0.2428,0.8125,1.3839,1.9025,2.518,3.0088,3.3434,3.6697,3.9026,4.0761,4.2235,4.3027,4.3457,-0.7872,-0.7872,-0.7872,-0.7831,-0.7761,-0.7722,-0.766,-0.7573,-0.7456,-0.738,-0.7093,-0.5758,-0.4462,-0.3769,-0.4552,-0.3653,-0.1986,-0.5109,-0.253,0.4014,0.2824,0.4432,0.7307,0.6017,0.0465,-0.7583,-1.363,-2.1419,-3.0997,-3.5666,-4.03,-4.4574,-4.7443,-4.8608,-4.8937,-4.8683,-4.8409,-4.8299,-4.8339,-4.8096,-4.774,-4.7585,-4.7378,-4.6947,-4.6562,-4.6505,-4.6651,-4.6783,-4.6598,-4.6487,-4.6869,-4.732,-4.7655,-4.8907,-4.9693,-4.9873,-5.0569,-5.1267,-5.132,-5.1244,-5.1215,-5.1081,-5.0777,-5.0487,-5.0356,-5.0138,-5.0555,-5.0869,-5.2169,-5.3264,-5.4072,-5.4722,-5.5403,-5.6154,-5.5784,-5.5747,-5.6135,-5.6269,-5.6293,-5.636,-5.6364,-5.6398,-5.6348,-5.6058,-5.5556,-5.5168,-5.4679,-5.4014,-5.33,-5.2758,-5.2112,-5.1411,-5.057,-4.9722,-4.8877,-4.5635,-4.1563,-3.492,-2.8041,-2.1285,-1.3332,-0.4691,0.2073,0.8374,1.4267,1.6668,2.2214,2.7429,3.1433,3.464,3.8093,3.937,4.0628,4.1242,4.1986,-0.7872,-0.7872,-0.7872,-0.7867,-0.785,-0.7761,-0.7717,-0.7693,-0.7581,-0.7475,-0.6682,-0.455,-0.1343,0.0993,-0.2102,-0.033,0.4822,-0.2652,-0.366,0.0,-0.1988,-0.4189,-0.4645,-0.498,-0.9597,-1.6769,-1.8634,-2.4359,-3.473,-3.8327,-4.075,-4.4767,-4.7972,-4.958,-4.9157,-4.9728,-4.97,-4.938,-4.957,-4.9351,-4.8841,-4.8795,-4.8584,-4.831,-4.8141,-4.8066,-4.7991,-4.7736,-4.7074,-4.6176,-4.721,-4.7927,-4.8423,-4.9632,-5.0237,-5.025,-5.0977,-5.1301,-5.1367,-5.1335,-5.1279,-5.1211,-5.1268,-5.1102,-5.089,-5.1402,-5.1798,-5.1817,-5.3223,-5.4343,-5.4667,-5.5195,-5.5864,-5.6222,-5.5987,-5.5966,-5.63,-5.64,-5.6415,-5.6442,-5.6424,-5.6403,-5.642,-5.6013,-5.5453,-5.4924,-5.4401,-5.3682,-5.2802,-5.2149,-5.1447,-5.0786,-5.0102,-4.958,-4.8821,-4.5639,-4.176,-3.8024,-3.0218,-2.2005,-1.462,-0.5981,0.2193,0.8612,1.3912,1.6183,1.9424,2.4907,3.0095,3.4178,3.6546,3.7938,3.8973,3.9775,4.1183,-0.7872,-0.7872,-0.7872,-0.7872,-0.7869,-0.7837,-0.7826,-0.7812,-0.7703,-0.763,-0.721,-0.6467,-0.4887,-0.4518,-0.5027,-0.455,-0.3319,-0.5226,-0.5695,-0.3338,-0.3905,-0.8111,-1.1551,-1.2831,-1.8502,-2.7776,-3.0476,-3.6176,-4.2329,-4.4121,-4.621,-4.8365,-4.7997,-4.8595,-4.9265,-4.9412,-4.9296,-4.916,-4.927,-4.9188,-4.8783,-4.8695,-4.8495,-4.819,-4.8381,-4.8324,-4.8053,-4.7951,-4.7926,-4.7776,-4.8192,-4.8617,-4.8832,-4.9576,-5.0065,-5.0202,-5.0662,-5.1122,-5.1343,-5.1386,-5.1338,-5.1362,-5.183,-5.2141,-5.2019,-5.2742,-5.3437,-5.3906,-5.4693,-5.5158,-5.5701,-5.6032,-5.6277,-5.6341,-5.6223,-5.6193,-5.6342,-5.6438,-5.6461,-5.6422,-5.6313,-5.6285,-5.6161,-5.5755,-5.5193,-5.4676,-5.4183,-5.3471,-5.2526,-5.194,-5.1429,-5.046,-4.9774,-4.9394,-4.8155,-4.5088,-4.2335,-4.0142,-3.2675,-2.2822,-1.489,-0.6215,0.1687,0.8998,1.3779,1.6715,1.9529,2.36,2.846,3.3522,3.5328,3.6734,3.7894,3.8857,4.0562,-0.7872,-0.7872,-0.7872,-0.7872,-0.7872,-0.7872,-0.7872,-0.7858,-0.7804,-0.7741,-0.7419,-0.5832,-0.5157,-0.5117,-0.4925,-0.399,-0.3205,-0.7065,-0.8528,-0.8888,-1.2292,-1.4542,-1.6004,-1.8006,-2.5775,-3.4957,-3.7854,-4.1685,-4.6371,-4.8394,-4.9027,-4.8933,-4.8661,-4.8664,-4.9006,-4.9327,-4.9239,-4.9094,-4.9061,-4.8925,-4.8569,-4.8495,-4.8306,-4.805,-4.8245,-4.8148,-4.7852,-4.7933,-4.8192,-4.8531,-4.8795,-4.9015,-4.9309,-4.9758,-5.0007,-5.0102,-5.0618,-5.1062,-5.1221,-5.1318,-5.1543,-5.1831,-5.2365,-5.269,-5.299,-5.3556,-5.4177,-5.4903,-5.5121,-5.5592,-5.6202,-5.6419,-5.6406,-5.6404,-5.6385,-5.6395,-5.6417,-5.6484,-5.6497,-5.6411,-5.632,-5.6208,-5.6168,-5.5672,-5.5188,-5.4762,-5.442,-5.336,-5.2309,-5.1886,-5.1241,-5.0181,-4.9555,-4.9229,-4.8222,-4.5642,-4.2332,-4.0146,-3.2699,-2.3054,-1.3959,-0.5628,0.1323,0.8377,1.3263,1.745,2.0477,2.3476,2.7629,3.1673,3.3702,3.6081,3.7766,3.8354,4.0034,-0.7872,-0.7872,-0.7872,-0.7872,-0.7872,-0.7872,-0.7872,-0.7872,-0.7864,-0.7809,-0.7217,-0.4225,-0.3806,-0.2607,-0.4666,-0.1971,0.0109,-1.0072,-1.3188,-1.6537,-2.1428,-2.481,-2.1259,-2.5768,-3.2609,-3.9564,-4.0139,-4.3733,-4.7952,-4.9698,-4.9292,-4.8795,-4.9258,-4.9215,-4.8926,-4.9214,-4.9321,-4.9079,-4.8959,-4.8785,-4.8513,-4.8363,-4.8169,-4.7966,-4.7907,-4.801,-4.7955,-4.8035,-4.8327,-4.8949,-4.8949,-4.9094,-4.9589,-4.9983,-5.0191,-5.0256,-5.0619,-5.0961,-5.1171,-5.1372,-5.174,-5.2373,-5.2695,-5.3085,-5.3828,-5.4238,-5.4707,-5.5409,-5.535,-5.5797,-5.6256,-5.6411,-5.6352,-5.6335,-5.6309,-5.6341,-5.643,-5.648,-5.6478,-5.6465,-5.6359,-5.6212,-5.6059,-5.5825,-5.5439,-5.4781,-5.4387,-5.3553,-5.2444,-5.1748,-5.0823,-4.958,-4.9229,-4.9063,-4.7802,-4.6277,-4.2953,-3.9466,-3.0897,-2.1643,-1.2026,-0.4088,0.1933,0.7878,1.3122,1.774,2.1559,2.4836,2.8314,3.0535,3.3133,3.6265,3.897,3.8622,3.9502,-0.7872,-0.7872,-0.7872,-0.7872,-0.7872,-0.7872,-0.7872,-0.7872,-0.7872,-0.7853,-0.7661,-0.6643,-0.6194,-0.638,-0.8759,-1.0359,-0.9743,-1.694,-2.1583,-2.4835,-3.1805,-3.5056,-3.3633,-3.5678,-4.0246,-4.58,-4.7628,-4.8604,-4.9935,-4.9589,-4.9359,-4.9532,-4.8754,-4.8512,-4.8996,-4.8781,-4.8642,-4.8642,-4.8678,-4.8587,-4.8401,-4.8265,-4.8087,-4.7884,-4.7806,-4.8075,-4.8383,-4.8383,-4.8623,-4.9071,-4.9067,-4.9048,-4.9352,-4.9719,-4.9973,-5.0144,-5.0355,-5.0712,-5.1139,-5.1773,-5.2297,-5.2752,-5.378,-5.4701,-5.4869,-5.547,-5.5864,-5.6196,-5.6216,-5.6202,-5.6342,-5.62,-5.6166,-5.6197,-5.6129,-5.6117,-5.622,-5.63,-5.632,-5.6278,-5.6168,-5.6007,-5.5807,-5.5628,-5.5256,-5.4787,-5.427,-5.3665,-5.2779,-5.182,-5.0735,-4.9563,-4.9107,-4.894,-4.8175,-4.6041,-4.2194,-3.8789,-3.0935,-2.1889,-1.2205,-0.4657,0.0716,0.6931,1.3339,1.7773,2.2269,2.6291,2.9828,3.1296,3.3064,3.6227,3.8719,3.8525,3.9604,-0.5345,-0.7869,-0.7872,-0.7872,-0.7872,-0.7872,-0.7872,-0.7872,-0.7872,-0.7872,-0.7834,-0.7676,-0.7576,-0.7843,-1.1406,-1.329,-1.5863,-2.4151,-3.1055,-3.553,-4.1323,-4.3958,-4.4336,-4.4414,-4.6833,-5.0246,-5.032,-5.0429,-5.0164,-4.98,-4.957,-4.9712,-4.893,-4.8832,-4.8952,-4.8783,-4.8714,-4.8642,-4.855,-4.8438,-4.8247,-4.8068,-4.7866,-4.7657,-4.7597,-4.7793,-4.8327,-4.8269,-4.8569,-4.899,-4.9155,-4.9201,-4.937,-4.9693,-4.9924,-4.9986,-5.0543,-5.0932,-5.1525,-5.2363,-5.3185,-5.3623,-5.4663,-5.5213,-5.5608,-5.6144,-5.6309,-5.6368,-5.631,-5.628,-5.6197,-5.5975,-5.5915,-5.6004,-5.5882,-5.5864,-5.6067,-5.6207,-5.6255,-5.6194,-5.6132,-5.5917,-5.5711,-5.5535,-5.5262,-5.4884,-5.4784,-5.4134,-5.2968,-5.2017,-5.1014,-5.0055,-4.9359,-4.8844,-4.8336,-4.5703,-4.1192,-3.7497,-3.2592,-2.3554,-1.4225,-0.7591,-0.1641,0.5768,1.3556,1.865,2.3051,2.711,3.1343,3.4322,3.6422,3.7738,3.8772,3.9653,4.0944,-0.3244,-0.7872,-0.7872,-0.7872,-0.7872,-0.7872,-0.7872,-0.7991,-0.8465,-0.9057,-0.8911,-0.8916,-1.0368,-1.0551,-1.4123,-1.5749,-2.1327,-2.9621,-3.916,-4.435,-4.7332,-4.9044,-4.9463,-4.9615,-4.9652,-5.0317,-5.0448,-5.0406,-5.0268,-5.0044,-4.9731,-4.9461,-4.9469,-4.9239,-4.894,-4.8925,-4.8909,-4.8697,-4.8532,-4.8324,-4.809,-4.7847,-4.7572,-4.7381,-4.7312,-4.7536,-4.7995,-4.8093,-4.8288,-4.8855,-4.927,-4.9483,-4.9728,-5.002,-5.0266,-5.0255,-5.116,-5.1644,-5.2048,-5.2908,-5.3897,-5.4735,-5.5092,-5.5516,-5.5968,-5.609,-5.6129,-5.6121,-5.6059,-5.5998,-5.5915,-5.5691,-5.5668,-5.5749,-5.5621,-5.5621,-5.5885,-5.6056,-5.6112,-5.616,-5.6087,-5.5919,-5.5749,-5.5554,-5.5288,-5.5038,-5.4941,-5.449,-5.3345,-5.2334,-5.1365,-5.0465,-4.9797,-4.8202,-4.749,-4.626,-4.1617,-3.7279,-3.3244,-2.5069,-1.6357,-0.9742,-0.2798,0.6502,1.3742,1.8918,2.3787,2.7957,3.2296,3.6727,3.8332,3.8135,3.9181,4.0756,4.2092,-0.6902,-0.7872,-0.7872,-0.7872,-0.7991,-0.7991,-0.834,-0.8468,-1.128,-1.2103,-1.2653,-1.4965,-1.6452,-1.8101,-2.1715,-2.7913,-3.4583,-4.0764,-4.5038,-4.8587,-5.0341,-5.0701,-5.0801,-5.0817,-5.0715,-5.0377,-5.031,-5.0268,-5.0268,-5.007,-4.975,-4.9577,-4.9365,-4.9141,-4.8959,-4.8839,-4.8697,-4.8605,-4.8419,-4.8187,-4.8038,-4.779,-4.7579,-4.7402,-4.7348,-4.7587,-4.7938,-4.8068,-4.8288,-4.8872,-4.945,-4.9734,-5.0094,-5.0714,-5.1258,-5.1687,-5.2196,-5.2528,-5.259,-5.3273,-5.3851,-5.4321,-5.492,-5.5455,-5.5818,-5.593,-5.5913,-5.5861,-5.5769,-5.5671,-5.5651,-5.5427,-5.5394,-5.5442,-5.5394,-5.5383,-5.5596,-5.5768,-5.5921,-5.6007,-5.5993,-5.5975,-5.5788,-5.5621,-5.5413,-5.5183,-5.5038,-5.4516,-5.3516,-5.2663,-5.1896,-5.1049,-5.0181,-4.8224,-4.6407,-4.523,-4.2525,-3.7927,-3.3123,-2.6391,-1.8293,-1.1519,-0.3483,0.7735,1.4892,1.9584,2.4253,2.8712,3.2397,3.6294,3.7202,3.7808,3.9645,4.1298,4.1897,-0.4943,-0.8102,-1.0314,-1.1347,-1.1696,-1.3302,-1.4311,-1.4966,-1.6034,-1.6833,-1.7956,-1.9828,-2.1193,-2.3049,-2.7893,-3.5466,-4.2542,-4.5467,-4.7971,-5.0189,-5.0742,-5.0862,-5.0903,-5.0879,-5.0661,-5.0404,-5.0217,-5.0152,-5.0217,-4.9933,-4.9636,-4.9327,-4.9155,-4.9027,-4.882,-4.8697,-4.8587,-4.8494,-4.8341,-4.8306,-4.8327,-4.8063,-4.7922,-4.795,-4.7689,-4.7875,-4.8353,-4.8369,-4.8553,-4.8992,-4.9195,-4.9753,-5.0493,-5.1287,-5.1916,-5.2256,-5.2881,-5.3251,-5.3255,-5.388,-5.4434,-5.4409,-5.4986,-5.5352,-5.5513,-5.5572,-5.5631,-5.5544,-5.5503,-5.5408,-5.538,-5.5164,-5.5157,-5.5236,-5.5176,-5.5229,-5.5432,-5.5593,-5.5726,-5.5866,-5.5959,-5.5941,-5.5847,-5.5684,-5.5573,-5.5364,-5.5157,-5.4522,-5.37,-5.3071,-5.2433,-5.1633,-5.0627,-4.8589,-4.6647,-4.5278,-4.2865,-3.8505,-3.3637,-2.6893,-1.8547,-1.095,0.0,1.1832,1.7198,2.1393,2.4905,2.9268,3.2574,3.5568,3.6552,3.7887,4.0114,4.1702,4.2237,-0.3953,-0.9503,-1.3048,-1.5071,-1.6304,-1.8791,-2.0323,-2.1266,-2.1478,-2.2111,-2.3104,-2.5365,-2.6814,-2.8844,-3.4393,-4.1262,-4.7204,-4.7763,-4.9421,-5.0625,-5.0979,-5.1062,-5.1175,-5.1037,-5.099,-5.1273,-5.0904,-5.0342,-5.0057,-4.9843,-4.9457,-4.9252,-4.9193,-4.9073,-4.8864,-4.9012,-4.8827,-4.8822,-4.8663,-4.8803,-4.8862,-4.8541,-4.8342,-4.8537,-4.7869,-4.767,-4.817,-4.8092,-4.8326,-4.8674,-4.9066,-4.9621,-5.0954,-5.1917,-5.239,-5.2548,-5.3383,-5.3755,-5.3924,-5.417,-5.4436,-5.4245,-5.4814,-5.5033,-5.5167,-5.5268,-5.5356,-5.5243,-5.5099,-5.5126,-5.5083,-5.4922,-5.4922,-5.5057,-5.5028,-5.5,-5.5236,-5.5437,-5.5573,-5.5747,-5.5885,-5.5941,-5.5885,-5.5808,-5.5707,-5.5554,-5.5345,-5.4819,-5.4052,-5.3572,-5.2936,-5.219,-5.0961,-4.9025,-4.7257,-4.5848,-4.2824,-3.8515,-3.3941,-2.8352,-1.8765,-0.9361,0.2684,1.4436,2.0089,2.407,2.7065,2.9746,3.3557,3.6011,3.6508,3.7861,4.0187,4.1673,4.2319,-0.9446,-1.3844,-1.4397,-1.6846,-2.0464,-2.1462,-2.158,-2.2505,-2.6343,-2.7903,-2.878,-3.2794,-3.5937,-3.9127,-4.377,-4.7458,-4.9173,-5.0506,-5.1336,-5.1799,-5.1529,-5.1625,-5.2012,-5.2043,-5.2049,-5.2168,-5.2094,-5.1319,-5.0502,-5.0024,-4.9687,-4.9508,-4.9463,-4.9365,-4.9677,-4.9638,-4.9873,-5.0211,-5.0034,-4.9825,-4.9487,-4.8574,-4.8192,-4.7904,-4.7333,-4.7019,-4.7599,-4.7631,-4.7743,-4.8366,-4.9081,-4.9934,-5.1083,-5.2379,-5.3211,-5.3718,-5.4256,-5.4625,-5.4171,-5.4112,-5.4065,-5.403,-5.4284,-5.4535,-5.4701,-5.4943,-5.5083,-5.5038,-5.4685,-5.4591,-5.4704,-5.4597,-5.4629,-5.4773,-5.4912,-5.4931,-5.5085,-5.5389,-5.5551,-5.5707,-5.5903,-5.5975,-5.5975,-5.5922,-5.5847,-5.5707,-5.547,-5.4977,-5.4453,-5.399,-5.3452,-5.2667,-5.1748,-4.9878,-4.7995,-4.6601,-4.3351,-3.8905,-3.4959,-2.9007,-1.5414,-0.4137,0.5026,1.5341,2.1482,2.4966,2.5644,2.8901,3.4041,3.6803,3.7638,3.8778,4.026,4.1365,4.2386,-1.275,-1.5077,-2.0168,-2.3879,-2.6643,-2.8574,-3.0404,-3.1894,-3.3363,-3.5052,-3.6698,-3.9541,-4.3251,-4.6999,-5.0307,-5.1472,-5.2295,-5.3001,-5.3129,-5.2775,-5.2496,-5.2469,-5.2625,-5.2588,-5.2682,-5.2824,-5.2505,-5.1964,-5.1185,-5.0929,-5.0694,-5.0538,-5.0352,-5.0324,-5.045,-5.0333,-5.0281,-5.038,-5.0442,-5.0479,-5.0145,-4.9564,-4.918,-4.9361,-4.8364,-4.8103,-4.8277,-4.8395,-4.8697,-4.9289,-4.9822,-5.0213,-5.1132,-5.1989,-5.2698,-5.3228,-5.3248,-5.3497,-5.3832,-5.3944,-5.387,-5.3833,-5.3997,-5.4153,-5.4112,-5.4382,-5.4382,-5.3775,-5.3941,-5.4069,-5.4262,-5.4281,-5.4382,-5.4565,-5.4791,-5.4971,-5.5085,-5.5333,-5.5554,-5.5729,-5.5902,-5.6007,-5.6071,-5.6056,-5.6007,-5.5919,-5.575,-5.5397,-5.4893,-5.4421,-5.3832,-5.3138,-5.2162,-5.0974,-4.9091,-4.7295,-4.4263,-4.053,-3.7964,-2.8801,-1.0152,0.2057,0.9983,1.8164,2.5843,2.7189,2.5255,2.8745,3.4667,3.7031,3.8845,3.9752,4.076,4.1782,4.2856,-1.7138,-1.9271,-2.5943,-3.006,-3.2418,-3.5394,-3.7688,-3.9654,-3.969,-4.0945,-4.3245,-4.5437,-4.8922,-5.2018,-5.3159,-5.397,-5.4878,-5.4704,-5.4292,-5.3851,-5.3455,-5.3302,-5.3377,-5.3238,-5.3206,-5.3451,-5.3158,-5.2793,-5.2564,-5.227,-5.1914,-5.147,-5.0991,-5.104,-5.0986,-5.0936,-5.0939,-5.0976,-5.1092,-5.1072,-5.0909,-5.0249,-5.0136,-4.9977,-4.9547,-4.899,-4.9331,-4.9104,-4.9274,-4.9859,-5.0145,-5.0569,-5.1408,-5.2132,-5.2526,-5.281,-5.2681,-5.2619,-5.3051,-5.3351,-5.3701,-5.3814,-5.3777,-5.3758,-5.3702,-5.3992,-5.4081,-5.3341,-5.3376,-5.3587,-5.372,-5.3997,-5.4158,-5.4416,-5.468,-5.4952,-5.5203,-5.5437,-5.5624,-5.5808,-5.5971,-5.6097,-5.616,-5.6174,-5.6146,-5.6097,-5.5949,-5.575,-5.5246,-5.4646,-5.4043,-5.3348,-5.292,-5.1718,-4.9796,-4.7597,-4.4559,-4.1794,-3.9271,-2.7688,-0.8374,0.393,1.1978,2.0495,2.972,2.9236,2.7063,3.111,3.5089,3.724,3.9213,4.0201,4.1155,4.2179,4.3446,-2.4333,-2.9441,-3.0264,-3.3041,-3.6842,-3.8701,-3.9939,-4.141,-4.3257,-4.4566,-4.6284,-4.9674,-5.2174,-5.3553,-5.4706,-5.5533,-5.6075,-5.5216,-5.4854,-5.439,-5.3822,-5.3879,-5.3983,-5.4044,-5.4044,-5.4439,-5.3994,-5.3793,-5.3809,-5.3219,-5.2474,-5.151,-5.1486,-5.147,-5.1499,-5.1566,-5.1663,-5.169,-5.1748,-5.1674,-5.1298,-5.0624,-4.9925,-4.9608,-4.8707,-4.7855,-4.7924,-4.8242,-4.8766,-4.9635,-5.0102,-5.0718,-5.1538,-5.2142,-5.2417,-5.2216,-5.1903,-5.1903,-5.2318,-5.2615,-5.3017,-5.333,-5.3394,-5.3281,-5.332,-5.3341,-5.3417,-5.3394,-5.3106,-5.3267,-5.3508,-5.3758,-5.3961,-5.4262,-5.461,-5.5028,-5.5295,-5.5516,-5.571,-5.5882,-5.6017,-5.6181,-5.6271,-5.6283,-5.6239,-5.6181,-5.6059,-5.5877,-5.5169,-5.4571,-5.4056,-5.3589,-5.3526,-5.2379,-5.0312,-4.8048,-4.6012,-4.2697,-3.9507,-2.4286,-0.5378,0.443,1.2195,2.4116,3.2575,3.0732,2.9572,3.2216,3.4978,3.7661,3.9555,4.0371,4.1489,4.2651,4.4205,-3.2381,-3.5371,-3.9054,-4.0567,-4.0421,-4.1425,-4.2902,-4.4692,-4.6389,-4.8237,-5.0187,-5.3144,-5.4671,-5.5105,-5.563,-5.6185,-5.626,-5.5925,-5.554,-5.5306,-5.4989,-5.4806,-5.4834,-5.4585,-5.461,-5.4602,-5.4292,-5.4052,-5.3888,-5.3619,-5.3142,-5.2453,-5.2132,-5.2218,-5.2295,-5.2028,-5.2051,-5.1988,-5.1956,-5.1858,-5.1586,-5.0998,-5.0382,-5.0275,-4.9712,-4.9131,-4.92,-4.9166,-4.9565,-5.0031,-5.0452,-5.093,-5.1262,-5.1754,-5.1782,-5.1479,-5.0974,-5.1137,-5.2069,-5.229,-5.2543,-5.2949,-5.2941,-5.2676,-5.2663,-5.2532,-5.2309,-5.229,-5.2536,-5.2839,-5.29,-5.3388,-5.3833,-5.4104,-5.4522,-5.5037,-5.5399,-5.5607,-5.5843,-5.6048,-5.6168,-5.6286,-5.6358,-5.6407,-5.6358,-5.6286,-5.6142,-5.5901,-5.5253,-5.4713,-5.4258,-5.3865,-5.3777,-5.3308,-5.1382,-4.9478,-4.7612,-4.3778,-3.9716,-2.4563,-0.8467,0.2842,1.1655,2.4571,3.44,3.3483,3.2918,3.3066,3.5034,3.8398,3.9809,4.0357,4.1699,4.3066,4.4659,-3.86,-4.1264,-4.5524,-4.5961,-4.3905,-4.4714,-4.6287,-4.8124,-4.9249,-5.1194,-5.3773,-5.5243,-5.5885,-5.6016,-5.6175,-5.6321,-5.6232,-5.611,-5.5904,-5.5662,-5.5455,-5.5326,-5.5018,-5.4689,-5.4414,-5.4307,-5.4088,-5.3832,-5.3737,-5.3359,-5.3065,-5.2944,-5.2969,-5.2714,-5.2481,-5.2275,-5.2071,-5.1956,-5.1858,-5.1758,-5.1538,-5.107,-5.0659,-5.0532,-4.9936,-4.9705,-4.967,-4.9636,-4.9924,-5.0427,-5.0786,-5.0858,-5.0982,-5.1052,-5.0999,-5.0647,-5.0312,-5.0342,-5.1581,-5.2488,-5.2354,-5.2453,-5.2154,-5.1748,-5.154,-5.1656,-5.1476,-5.1512,-5.1915,-5.2275,-5.2462,-5.3203,-5.3644,-5.3943,-5.4623,-5.5157,-5.5451,-5.5691,-5.5978,-5.6219,-5.6308,-5.6388,-5.6417,-5.6455,-5.6437,-5.6378,-5.6338,-5.6071,-5.5557,-5.5078,-5.474,-5.434,-5.4006,-5.3397,-5.2535,-5.0759,-4.8517,-4.4032,-3.8718,-2.9148,-1.5359,-0.2534,1.1612,2.4892,3.2506,3.5115,3.5496,3.4495,3.6491,3.9459,4.0475,4.1226,4.1932,4.3367,4.4765,-4.2209,-4.7388,-4.8017,-4.7796,-4.7403,-4.8655,-4.9838,-5.0789,-5.1857,-5.347,-5.5324,-5.5746,-5.589,-5.6149,-5.6176,-5.6154,-5.6126,-5.6065,-5.5847,-5.5618,-5.535,-5.5126,-5.4787,-5.443,-5.4177,-5.3963,-5.3717,-5.3579,-5.3539,-5.3235,-5.3048,-5.2875,-5.2698,-5.249,-5.2282,-5.2023,-5.1925,-5.1858,-5.169,-5.1589,-5.1263,-5.0928,-5.0602,-5.0324,-4.9705,-4.947,-4.9649,-4.9656,-4.993,-5.0492,-5.0657,-5.0803,-5.1105,-5.121,-5.1226,-5.1049,-5.0477,-5.0394,-5.0841,-5.209,-5.2218,-5.171,-5.1393,-5.1017,-5.1069,-5.0999,-5.0911,-5.1052,-5.1601,-5.1951,-5.2481,-5.3162,-5.3547,-5.3943,-5.4623,-5.5217,-5.5522,-5.5788,-5.6059,-5.6286,-5.6407,-5.6483,-5.6483,-5.6483,-5.6483,-5.6483,-5.6483,-5.6228,-5.5769,-5.5499,-5.5212,-5.4713,-5.4277,-5.3477,-5.2761,-5.1831,-4.9278,-4.4697,-3.8771,-3.0479,-1.7583,-0.2198,1.1753,2.4924,3.3459,3.8674,3.744,3.5378,3.7669,3.9775,4.144,4.2438,4.2986,4.3603,4.493,-5.0336,-5.2705,-5.2859,-5.2756,-5.2348,-5.128,-5.1407,-5.2375,-5.3894,-5.5204,-5.5905,-5.6062,-5.6089,-5.6192,-5.6142,-5.6062,-5.5962,-5.5903,-5.5701,-5.5205,-5.5053,-5.4727,-5.4416,-5.4161,-5.3889,-5.3736,-5.3518,-5.3355,-5.3295,-5.3023,-5.2761,-5.2599,-5.234,-5.2174,-5.2125,-5.1943,-5.174,-5.1349,-5.1418,-5.1487,-5.0999,-5.0585,-5.0307,-5.0119,-4.9392,-4.9155,-4.9479,-4.947,-4.9821,-5.0285,-5.0359,-5.0453,-5.0602,-5.0657,-5.0392,-4.9994,-4.9346,-4.9131,-4.952,-5.0352,-5.116,-5.0928,-5.0657,-5.0474,-5.0624,-5.0567,-5.0567,-5.0804,-5.1226,-5.1569,-5.1994,-5.3065,-5.3626,-5.3888,-5.4484,-5.5199,-5.5611,-5.5861,-5.6126,-5.6328,-5.6483,-5.6483,-5.6483,-5.6483,-5.6483,-5.6474,-5.6455,-5.6455,-5.6142,-5.5966,-5.5736,-5.5082,-5.4505,-5.3681,-5.2821,-5.1682,-4.9378,-4.5106,-4.0481,-3.4654,-2.0069,-0.3339,0.8694,2.0218,3.1993,4.2269,3.9396,3.7281,3.818,3.9815,4.1281,4.2585,4.3254,4.3866,4.4812,-5.4996,-5.5513,-5.5614,-5.5644,-5.5292,-5.3656,-5.3275,-5.4033,-5.5326,-5.6049,-5.6172,-5.619,-5.6166,-5.6114,-5.6001,-5.5885,-5.5695,-5.5527,-5.5301,-5.4809,-5.472,-5.4444,-5.4142,-5.3907,-5.3697,-5.3536,-5.3355,-5.317,-5.3042,-5.2717,-5.2526,-5.2282,-5.1862,-5.1645,-5.1645,-5.1455,-5.1297,-5.0964,-5.107,-5.107,-5.0694,-5.0345,-4.9873,-4.9571,-4.9052,-4.868,-4.9059,-4.9393,-4.9595,-4.9808,-4.9935,-4.9935,-5.0011,-4.9924,-4.985,-4.9451,-4.9044,-4.8837,-4.8887,-4.9223,-5.0066,-5.0477,-5.0132,-5.0074,-5.0176,-5.0097,-5.0137,-5.0345,-5.075,-5.1192,-5.1732,-5.284,-5.3532,-5.3776,-5.4497,-5.5224,-5.5609,-5.5843,-5.6078,-5.6306,-5.6483,-5.6483,-5.6483,-5.6483,-5.6483,-5.6455,-5.6437,-5.6407,-5.6378,-5.6181,-5.5839,-5.5128,-5.4438,-5.3535,-5.2528,-5.1343,-4.8699,-4.5261,-4.0358,-3.5212,-2.2834,-0.6406,0.4522,1.6754,3.1655,4.1698,4.01,3.913,3.9005,3.9387,4.0562,4.1898,4.324,4.4128,4.4918,-5.5758,-5.6012,-5.6093,-5.6035,-5.5996,-5.5151,-5.5265,-5.5761,-5.6054,-5.6151,-5.609,-5.5899,-5.5773,-5.5843,-5.5568,-5.5397,-5.535,-5.5088,-5.4867,-5.4609,-5.449,-5.4193,-5.3963,-5.3754,-5.3518,-5.3314,-5.3127,-5.2937,-5.2779,-5.2508,-5.2264,-5.1992,-5.1436,-5.1123,-5.0997,-5.0782,-5.0694,-5.055,-5.0587,-5.0605,-5.0384,-4.9896,-4.9445,-4.8955,-4.8312,-4.8266,-4.8522,-4.8754,-4.911,-4.9436,-4.9801,-4.9877,-4.9935,-4.9935,-5.0285,-5.0288,-4.9784,-4.8977,-4.8785,-4.9079,-4.9378,-5.0016,-5.0051,-4.9918,-4.9842,-4.9825,-4.9808,-5.0022,-5.0366,-5.0858,-5.1465,-5.2372,-5.3244,-5.3884,-5.4597,-5.5115,-5.5477,-5.575,-5.5982,-5.6194,-5.6398,-5.6474,-5.6483,-5.6483,-5.6483,-5.6455,-5.6407,-5.6275,-5.6207,-5.6063,-5.5615,-5.479,-5.4054,-5.325,-5.21,-5.0594,-4.7553,-4.4008,-3.8477,-3.2424,-2.0248,-0.8097,0.6325,2.0357,3.4582,4.1674,4.2016,4.0674,3.8681,3.9385,4.0901,4.198,4.3585,4.422,4.4993,-5.4225,-5.4252,-5.4274,-5.4294,-5.4287,-5.4178,-5.4863,-5.6072,-5.6207,-5.5877,-5.5191,-5.4967,-5.4844,-5.4639,-5.4364,-5.4645,-5.4874,-5.489,-5.4717,-5.4505,-5.4193,-5.3944,-5.3717,-5.3518,-5.3314,-5.3127,-5.2937,-5.2717,-5.2572,-5.2293,-5.2102,-5.1858,-5.1123,-5.0675,-5.0324,-4.9965,-4.9971,-5.0067,-5.0107,-5.0124,-4.9896,-4.9428,-4.8944,-4.8349,-4.7699,-4.7701,-4.7948,-4.8178,-4.8461,-4.8742,-4.8855,-4.9012,-4.9453,-4.9419,-4.9578,-4.9695,-4.8907,-4.8136,-4.8942,-4.8784,-4.8916,-4.9689,-4.9976,-4.9993,-4.986,-4.9725,-4.9708,-4.989,-5.0254,-5.0804,-5.1447,-5.2254,-5.3142,-5.3885,-5.4566,-5.5007,-5.5389,-5.575,-5.5982,-5.6226,-5.6427,-5.6474,-5.6483,-5.6483,-5.6483,-5.6474,-5.6378,-5.6219,-5.6059,-5.5896,-5.5305,-5.4484,-5.3622,-5.2812,-5.0994,-4.9361,-4.6109,-4.2455,-3.6711,-3.0443,-2.1065,-0.808,0.8557,2.3737,3.7486,4.3667,4.5811,4.3268,3.9102,4.0499,4.1918,4.2894,4.3741,4.4389,4.52,-5.3271,-5.3458,-5.3351,-5.3388,-5.353,-5.356,-5.4252,-5.5093,-5.5186,-5.4725,-5.4072,-5.387,-5.3828,-5.3907,-5.3742,-5.3974,-5.472,-5.4443,-5.4237,-5.411,-5.3963,-5.3717,-5.3459,-5.3295,-5.3127,-5.2937,-5.2735,-5.2572,-5.2358,-5.2102,-5.1907,-5.174,-5.0946,-5.0477,-5.0028,-4.9445,-4.905,-4.9257,-4.9436,-4.9588,-4.9351,-4.8821,-4.8272,-4.7884,-4.7194,-4.7259,-4.7523,-4.7714,-4.7975,-4.8303,-4.8416,-4.8543,-4.8934,-4.9101,-4.9154,-4.9191,-4.8709,-4.8292,-4.8588,-4.8692,-4.898,-4.9435,-4.9855,-4.9993,-4.9935,-4.9784,-4.9866,-5.0045,-5.0422,-5.0876,-5.1562,-5.2245,-5.3074,-5.3888,-5.4433,-5.4952,-5.5346,-5.5731,-5.6013,-5.6283,-5.6398,-5.6474,-5.6483,-5.6483,-5.6474,-5.6417,-5.6286,-5.6073,-5.591,-5.5749,-5.4989,-5.4096,-5.3216,-5.2295,-5.0172,-4.7563,-4.4078,-3.9967,-3.4483,-2.787,-2.0251,-0.4498,1.5479,2.8724,4.0148,4.4262,4.6992,4.2936,3.9706,4.1383,4.2719,4.318,4.3927,4.4572,4.5494,-5.2612,-5.3154,-5.2961,-5.2901,-5.3282,-5.3166,-5.3203,-5.3282,-5.328,-5.3148,-5.2828,-5.2762,-5.2895,-5.294,-5.2911,-5.3376,-5.3935,-5.3979,-5.3963,-5.3716,-5.3716,-5.3558,-5.3336,-5.317,-5.2955,-5.2672,-5.2508,-5.2387,-5.2216,-5.2005,-5.174,-5.1571,-5.046,-5.0011,-4.9971,-4.9057,-4.8589,-4.8613,-4.863,-4.8664,-4.8771,-4.8319,-4.7638,-4.7404,-4.7085,-4.6929,-4.7337,-4.7588,-4.782,-4.8113,-4.8289,-4.8225,-4.8606,-4.89,-4.8992,-4.9017,-4.8795,-4.8657,-4.8571,-4.8674,-4.8882,-4.9217,-4.9579,-4.989,-4.9935,-4.986,-4.9942,-5.0119,-5.0477,-5.0964,-5.1547,-5.2472,-5.3318,-5.3923,-5.4452,-5.4943,-5.5375,-5.573,-5.6063,-5.6294,-5.6437,-5.6483,-5.6483,-5.6483,-5.6437,-5.6368,-5.6263,-5.6044,-5.5635,-5.5455,-5.4666,-5.3663,-5.2425,-5.1083,-4.8504,-4.5708,-4.1923,-3.7364,-3.1917,-2.6437,-1.9751,0.0094,2.3638,3.5421,4.5857,4.5917,4.6616,4.3152,4.1334,4.2365,4.3351,4.3543,4.4097,4.4814,4.5785,-5.0922,-5.1162,-5.1338,-5.1276,-5.1053,-5.126,-5.1395,-5.1376,-5.116,-5.1439,-5.1794,-5.1662,-5.1489,-5.1525,-5.1802,-5.2389,-5.3184,-5.3535,-5.3833,-5.3758,-5.3604,-5.3396,-5.317,-5.298,-5.2779,-5.2572,-5.2387,-5.2216,-5.2005,-5.1808,-5.147,-5.1017,-5.0124,-4.9763,-4.9529,-4.8639,-4.8336,-4.8108,-4.7785,-4.7523,-4.7391,-4.7638,-4.7354,-4.6636,-4.6072,-4.6072,-4.6269,-4.6269,-4.6636,-4.7118,-4.7404,-4.7852,-4.856,-4.8995,-4.9368,-4.9533,-4.9183,-4.9045,-4.9045,-4.901,-4.9097,-4.9476,-4.9838,-4.9924,-4.9993,-4.9935,-5.0017,-5.0194,-5.055,-5.107,-5.1647,-5.2605,-5.3493,-5.3994,-5.4503,-5.4933,-5.5383,-5.5769,-5.6093,-5.6283,-5.6446,-5.6483,-5.6483,-5.6455,-5.6398,-5.6317,-5.6251,-5.5971,-5.5314,-5.4925,-5.4188,-5.3082,-5.1409,-4.9695,-4.7148,-4.3245,-3.9198,-3.4487,-2.906,-2.3934,-1.8017,0.3612,2.6395,4.0967,5.0798,4.95,4.7437,4.4947,4.3775,4.4098,4.3478,4.3419,4.422,4.4993,4.6095,-4.986,-5.0157,-5.045,-5.0448,-5.0275,-5.0404,-5.0485,-5.0421,-5.0183,-5.0285,-5.0556,-5.0421,-5.0327,-5.0314,-5.0691,-5.1286,-5.2246,-5.2865,-5.2956,-5.3085,-5.3434,-5.3217,-5.3042,-5.2787,-5.2599,-5.2434,-5.2198,-5.2005,-5.1808,-5.1589,-5.1211,-5.0605,-4.9936,-4.9334,-4.8911,-4.843,-4.7868,-4.7605,-4.7004,-4.6491,-4.6109,-4.6134,-4.641,-4.5624,-4.5478,-4.5332,-4.5405,-4.5478,-4.6001,-4.6512,-4.6945,-4.7671,-4.8306,-4.8685,-4.9212,-4.9622,-4.9648,-4.939,-4.9441,-4.9459,-4.9338,-4.9614,-4.9942,-4.9976,-4.9993,-4.9993,-5.0206,-5.0418,-5.0964,-5.1482,-5.1994,-5.2827,-5.351,-5.4086,-5.4425,-5.4798,-5.5389,-5.5932,-5.6194,-5.6398,-5.6483,-5.6483,-5.6483,-5.6483,-5.6407,-5.6239,-5.6168,-5.5764,-5.5135,-5.4231,-5.3496,-5.2108,-5.0201,-4.8387,-4.6202,-4.1444,-3.5991,-3.1188,-2.6178,-1.3962,-0.3363,1.1754,2.8587,4.2641,5.097,5.0453,4.8269,4.5698,4.5185,4.5458,4.4318,4.3076,4.4128,4.5184,4.615,-4.9296,-4.9776,-5.0043,-5.0135,-5.0111,-5.0135,-5.0159,-5.0092,-4.9819,-4.9627,-4.9483,-4.939,-4.9575,-4.978,-5.0064,-5.0509,-5.1157,-5.2175,-5.228,-5.2456,-5.2964,-5.2975,-5.2831,-5.2635,-5.249,-5.2275,-5.2005,-5.1858,-5.174,-5.1349,-5.0822,-5.0276,-4.9688,-4.9093,-4.8551,-4.7769,-4.702,-4.7004,-4.6539,-4.5722,-4.5095,-4.4601,-4.511,-4.5243,-4.4871,-4.451,-4.4812,-4.5184,-4.5624,-4.623,-4.6807,-4.7538,-4.8177,-4.8606,-4.9135,-4.9615,-4.9982,-4.9637,-4.9441,-4.9666,-4.9459,-4.9459,-4.9786,-4.9959,-4.9993,-5.0109,-5.0302,-5.0657,-5.1192,-5.175,-5.225,-5.2926,-5.3547,-5.4158,-5.4458,-5.476,-5.5445,-5.5982,-5.6181,-5.6368,-5.6349,-5.6349,-5.6319,-5.6349,-5.6161,-5.6035,-5.5801,-5.5391,-5.4768,-5.3615,-5.2642,-5.0503,-4.8155,-4.6389,-4.4626,-3.9436,-3.3479,-2.8076,-2.1454,-0.4785,0.9627,1.8633,2.9645,4.3546,4.9607,4.9785,4.8438,4.5909,4.6006,4.6082,4.4228,4.2856,4.4082,4.511,4.6064,-4.9365,-4.9518,-4.9776,-4.9749,-4.9598,-4.9776,-4.9884,-4.9792,-4.9472,-4.9277,-4.9169,-4.8906,-4.8898,-4.91,-4.9695,-5.0065,-5.0212,-5.1337,-5.1956,-5.2183,-5.2614,-5.2754,-5.2698,-5.2563,-5.2379,-5.2114,-5.184,-5.174,-5.1331,-5.0875,-5.0349,-4.9688,-4.9334,-4.8697,-4.7934,-4.7388,-4.7406,-4.6984,-4.64,-4.5722,-4.5447,-4.502,-4.4721,-4.4419,-4.3726,-4.3819,-4.4128,-4.4631,-4.5316,-4.6001,-4.6598,-4.7321,-4.7983,-4.848,-4.8951,-4.9394,-4.9842,-4.9797,-4.9578,-4.9722,-4.9475,-4.9584,-4.9918,-5.0051,-5.0068,-5.0109,-5.0302,-5.0509,-5.0999,-5.1551,-5.2137,-5.2975,-5.3663,-5.4262,-5.4654,-5.5053,-5.5588,-5.575,-5.5861,-5.5891,-5.5849,-5.5797,-5.5726,-5.5576,-5.5241,-5.5144,-5.5068,-5.4667,-5.4006,-5.2924,-5.1734,-4.9045,-4.6355,-4.3897,-4.17,-3.6678,-3.0997,-2.55,-1.7489,-0.2888,0.9589,1.8973,3.0823,4.5286,4.9363,4.9413,4.7741,4.7012,4.5532,4.5203,4.3394,4.2555,4.3819,4.511,4.6221]}]]